[[{"header":{"parameterUnit":"m.s-1","parameterCategory":1,"la1":30.6,"la2":29.2853,"lo1":-89.7004,"lo2":-87.6739,"dy":0.0162,"dx":0.0183,"nx":112,"ny":82,"refTime":"2023-04-09T00:00:00:Z","depth":0,"parameterNumber":2,"parameterNumberName":"U-component_of_WINDS"},"data":[0.0,0.0,0.0,0.0,0.0,0.0,0.0,0.0,0.0,0.0,0.0,0.0,0.0,0.0,0.0,0.0,0.0,0.0,0.0,0.0,0.0,0.0,0.0,0.0,0.0,0.0,0.0,0.0,0.0,0.0,0.0,0.0,0.0,0.0,0.0,0.0,0.0,0.0,0.0,0.0,0.0,0.0,0.0,0.0,0.0,0.0,0.0,0.0,0.0,0.0,0.0,0.0,0.0,0.0,0.0,0.0,0.0,0.0,0.0,0.0,0.0,0.0,0.0,0.0,0.0,0.0,0.0,0.0,0.0,0.0,0.0,0.0,0.0,0.0,0.0,0.0,0.0,0.0,0.0,0.0,0.0,0.0,0.0,0.0,0.0,0.0,0.0,0.0,0.0,0.0,0.0,3.3398,3.822,4.0879,4.0156,3.9375,3.7226,3.3242,0.0,0.0,0.0,0.0,0.0,0.0,0.0,0.0,0.0,0.0,0.0,0.0,0.0,0.0,0.0,0.0,0.0,0.0,0.0,0.0,0.0,0.0,0.0,0.0,0.0,0.0,0.0,0.0,0.0,0.0,0.0,0.0,0.0,0.0,0.0,0.0,0.0,0.0,0.0,0.0,0.0,0.0,0.0,0.0,0.0,0.0,0.0,0.0,0.0,0.0,0.0,0.0,0.0,0.0,0.0,0.0,0.0,0.0,0.0,0.0,0.0,0.0,0.0,0.0,0.0,0.0,0.0,0.0,0.0,0.0,0.0,0.0,0.0,0.0,0.0,0.0,0.0,0.0,0.0,0.0,0.0,0.0,0.0,0.0,0.0,0.0,0.0,0.0,0.0,0.0,0.0,0.0,0.0,0.0,0.0,0.0,0.0,0.0,0.0,0.0,0.0,0.0,0.0,0.0,3.2051,3.7148,3.9823,4.1152,4.0996,3.8887,3.6523,3.4075,0.0,0.0,0.0,0.0,0.0,0.0,0.0,0.0,0.0,0.0,0.0,0.0,0.0,0.0,0.0,0.0,0.0,0.0,0.0,0.0,0.0,0.0,0.0,0.0,0.0,0.0,0.0,0.0,0.0,0.0,0.0,0.0,0.0,0.0,0.0,0.0,0.0,0.0,0.0,0.0,0.0,0.0,0.0,0.0,0.0,0.0,0.0,0.0,0.0,0.0,0.0,0.0,0.0,0.0,0.0,0.0,0.0,0.0,0.0,0.0,0.0,0.0,0.0,0.0,0.0,0.0,0.0,0.0,0.0,0.0,0.0,0.0,0.0,0.0,0.0,0.0,0.0,0.0,0.0,0.0,0.0,0.0,0.0,0.0,0.0,0.0,0.0,0.0,0.0,0.0,0.0,0.0,0.0,0.0,0.0,0.0,0.0,0.0,0.0,0.0,0.0,0.0,0.0,3.1426,3.4134,3.8789,4.0468,4.1211,4.1211,3.9004,3.6719,3.4551,3.2148,0.0,0.0,0.0,0.0,0.0,0.0,0.0,0.0,0.0,0.0,0.0,0.0,0.0,0.0,0.0,0.0,0.0,0.0,0.0,0.0,0.0,0.0,0.0,0.0,0.0,0.0,0.0,0.0,0.0,0.0,0.0,0.0,0.0,0.0,0.0,0.0,0.0,0.0,0.0,0.0,0.0,0.0,0.0,0.0,0.0,0.0,0.0,0.0,0.0,0.0,0.0,0.0,0.0,0.0,0.0,0.0,0.0,0.0,0.0,0.0,0.0,0.0,0.0,0.0,0.0,0.0,0.0,0.0,0.0,0.0,0.0,0.0,0.0,0.0,0.0,0.0,0.0,0.0,0.0,0.0,0.0,0.0,0.0,0.0,0.0,0.0,0.0,0.0,0.0,0.0,0.0,0.0,0.0,0.0,0.0,0.0,0.0,0.0,0.0,0.0,0.0,0.0,3.4316,3.6245,3.9805,4.0879,4.1289,4.1211,3.9082,3.6894,3.4824,3.1875,0.0,0.0,0.0,0.0,0.0,0.0,0.0,0.0,0.0,0.0,0.0,0.0,0.0,0.0,0.0,0.0,0.0,0.0,0.0,0.0,0.0,0.0,0.0,0.0,0.0,0.0,0.0,0.0,0.0,0.0,0.0,0.0,0.0,0.0,0.0,0.0,0.0,0.0,0.0,0.0,0.0,0.0,0.0,0.0,0.0,0.0,0.0,0.0,0.0,0.0,0.0,0.0,0.0,0.0,0.0,0.0,0.0,0.0,0.0,0.0,0.0,0.0,0.0,0.0,0.0,0.0,0.0,0.0,0.0,0.0,0.0,0.0,0.0,0.0,0.0,0.0,0.0,0.0,0.0,0.0,0.0,0.0,0.0,0.0,0.0,0.0,0.0,0.0,0.0,0.0,0.0,0.0,0.0,0.0,0.0,0.0,0.0,0.0,0.0,0.0,0.0,0.0,3.5801,3.8105,4.0839,4.1484,4.1601,4.125,3.8828,3.6582,3.4805,3.1864,0.0,0.0,0.0,0.0,0.0,0.0,0.0,0.0,0.0,0.0,0.0,0.0,0.0,0.0,0.0,0.0,0.0,0.0,0.0,0.0,0.0,0.0,0.0,0.0,0.0,0.0,0.0,0.0,0.0,0.0,0.0,0.0,0.0,0.0,0.0,0.0,0.0,0.0,0.0,0.0,0.0,0.0,0.0,0.0,0.0,0.0,0.0,0.0,0.0,0.0,0.0,0.0,0.0,0.0,0.0,0.0,0.0,0.0,0.0,0.0,0.0,0.0,0.0,0.0,0.0,0.0,0.0,0.0,0.0,0.0,0.0,0.0,0.0,0.0,0.0,0.0,0.0,0.0,0.0,0.0,0.0,0.0,0.0,0.0,0.0,0.0,0.0,0.0,0.0,0.0,0.0,0.0,0.0,0.0,0.0,0.0,0.0,0.0,0.0,0.0,0.0,0.0,3.5957,3.8398,0.0,4.1699,4.1738,4.1582,3.918,3.6836,3.4824,0.0,0.0,0.0,0.0,0.0,0.0,0.0,0.0,0.0,0.0,0.0,0.0,0.0,0.0,0.0,0.0,0.0,0.0,0.0,0.0,0.0,0.0,0.0,0.0,0.0,0.0,0.0,0.0,0.0,0.0,0.0,0.0,0.0,0.0,0.0,0.0,0.0,0.0,0.0,0.0,0.0,0.0,0.0,0.0,0.0,0.0,0.0,0.0,0.0,0.0,0.0,0.0,0.0,0.0,0.0,0.0,0.0,0.0,0.0,0.0,0.0,0.0,0.0,0.0,0.0,0.0,0.0,0.0,0.0,0.0,0.0,0.0,0.0,0.0,0.0,0.0,0.0,0.0,0.0,0.0,0.0,0.0,0.0,0.0,0.0,0.0,0.0,0.0,0.0,0.0,0.0,0.0,0.0,0.0,0.0,0.0,0.0,0.0,0.0,0.0,0.0,0.0,3.3958,3.6523,3.9023,0.0,4.1836,4.1894,4.1621,3.8965,3.6641,3.5019,0.0,0.0,0.0,0.0,0.0,0.0,0.0,0.0,0.0,0.0,0.0,0.0,0.0,0.0,0.0,0.0,0.0,0.0,0.0,0.0,0.0,0.0,0.0,0.0,0.0,0.0,0.0,0.0,0.0,0.0,0.0,0.0,0.0,0.0,0.0,0.0,0.0,0.0,0.0,0.0,0.0,0.0,0.0,0.0,0.0,0.0,0.0,0.0,0.0,0.0,0.0,0.0,0.0,0.0,0.0,0.0,0.0,0.0,0.0,0.0,0.0,0.0,0.0,0.0,0.0,0.0,0.0,0.0,0.0,0.0,0.0,0.0,0.0,0.0,0.0,0.0,0.0,0.0,0.0,0.0,0.0,0.0,0.0,0.0,0.0,0.0,0.0,0.0,0.0,0.0,0.0,0.0,0.0,0.0,0.0,0.0,0.0,0.0,0.0,0.0,0.0,0.0,3.4434,3.7754,4.0234,4.1132,4.1933,4.209,4.1289,3.8008,3.584,0.0,0.0,0.0,0.0,0.0,0.0,0.0,0.0,0.0,0.0,0.0,0.0,0.0,0.0,0.0,0.0,0.0,0.0,0.0,0.0,0.0,0.0,0.0,0.0,0.0,0.0,0.0,0.0,0.0,0.0,0.0,0.0,0.0,0.0,0.0,0.0,0.0,0.0,0.0,0.0,0.0,0.0,0.0,0.0,0.0,0.0,0.0,0.0,0.0,0.0,0.0,0.0,0.0,0.0,0.0,0.0,0.0,0.0,0.0,0.0,0.0,0.0,0.0,0.0,0.0,0.0,0.0,0.0,0.0,0.0,0.0,0.0,0.0,0.0,0.0,0.0,0.0,0.0,0.0,0.0,0.0,0.0,0.0,0.0,0.0,0.0,0.0,0.0,0.0,0.0,0.0,0.0,0.0,0.0,0.0,0.0,0.0,0.0,0.0,0.0,0.0,0.0,0.0,3.5312,3.8125,4.0449,4.1894,4.2285,4.209,4.1289,3.8317,3.6035,3.4961,0.0,0.0,0.0,0.0,0.0,0.0,0.0,0.0,0.0,0.0,0.0,0.0,0.0,0.0,0.0,0.0,0.0,0.0,0.0,0.0,0.0,0.0,0.0,0.0,0.0,0.0,0.0,0.0,0.0,0.0,0.0,0.0,0.0,0.0,0.0,0.0,0.0,0.0,0.0,0.0,0.0,0.0,0.0,0.0,0.0,0.0,0.0,0.0,0.0,0.0,0.0,0.0,0.0,0.0,0.0,0.0,0.0,0.0,0.0,0.0,0.0,0.0,0.0,0.0,0.0,0.0,0.0,0.0,0.0,0.0,0.0,0.0,0.0,0.0,0.0,0.0,0.0,0.0,0.0,0.0,0.0,0.0,0.0,0.0,0.0,0.0,0.0,0.0,0.0,0.0,0.0,0.0,0.0,0.0,0.0,0.0,0.0,0.0,0.0,0.0,0.0,0.0,3.5762,3.8594,4.0918,4.2245,4.2382,4.2148,4.1484,3.8532,3.6284,3.5293,0.0,0.0,0.0,0.0,0.0,0.0,0.0,0.0,0.0,0.0,0.0,0.0,0.0,0.0,0.0,0.0,0.0,0.0,0.0,0.0,0.0,0.0,0.0,0.0,0.0,0.0,0.0,0.0,0.0,0.0,0.0,0.0,0.0,0.0,0.0,0.0,0.0,0.0,0.0,0.0,0.0,0.0,0.0,0.0,0.0,0.0,0.0,0.0,0.0,0.0,0.0,0.0,0.0,0.0,0.0,0.0,0.0,0.0,0.0,0.0,0.0,0.0,0.0,0.0,0.0,0.0,0.0,0.0,0.0,0.0,0.0,0.0,0.0,0.0,0.0,0.0,0.0,0.0,0.0,0.0,0.0,0.0,0.0,0.0,0.0,0.0,0.0,0.0,0.0,0.0,0.0,0.0,0.0,0.0,0.0,0.0,0.0,0.0,0.0,0.0,0.0,0.0,3.5957,3.9043,4.1465,4.2383,4.2421,4.2246,4.1777,3.8689,3.6504,3.5996,0.0,0.0,0.0,0.0,0.0,0.0,0.0,0.0,0.0,0.0,0.0,0.0,0.0,0.0,0.0,0.0,0.0,0.0,0.0,0.0,0.0,0.0,0.0,0.0,0.0,0.0,0.0,0.0,0.0,0.0,0.0,0.0,0.0,0.0,0.0,0.0,0.0,0.0,0.0,0.0,0.0,0.0,0.0,0.0,0.0,0.0,0.0,0.0,0.0,0.0,0.0,0.0,0.0,0.0,0.0,0.0,0.0,0.0,0.0,0.0,3.3528,0.0,0.0,0.0,0.0,0.0,0.0,0.0,0.0,0.0,0.0,0.0,0.0,0.0,0.0,0.0,0.0,0.0,0.0,0.0,0.0,0.0,0.0,0.0,0.0,0.0,0.0,0.0,0.0,0.0,0.0,0.0,0.0,0.0,0.0,0.0,0.0,0.0,0.0,0.0,0.0,0.0,3.6719,3.916,4.125,4.2773,4.2637,4.2129,4.1367,3.8769,3.6699,3.5586,0.0,0.0,0.0,0.0,0.0,0.0,0.0,0.0,0.0,0.0,0.0,0.0,0.0,0.0,0.0,0.0,0.0,0.0,0.0,0.0,0.0,0.0,0.0,0.0,0.0,0.0,0.0,0.0,0.0,0.0,0.0,0.0,0.0,0.0,0.0,0.0,0.0,0.0,0.0,0.0,0.0,0.0,0.0,0.0,0.0,0.0,0.0,0.0,0.0,0.0,0.0,0.0,0.0,0.0,0.0,0.0,0.0,0.0,0.0,0.0,0.0,3.4311,0.0,0.0,0.0,0.0,0.0,0.0,0.0,0.0,0.0,0.0,0.0,0.0,0.0,0.0,0.0,0.0,0.0,0.0,0.0,0.0,0.0,0.0,0.0,0.0,0.0,0.0,0.0,0.0,0.0,0.0,0.0,0.0,0.0,0.0,0.0,0.0,0.0,0.0,0.0,0.0,3.7598,3.9805,4.1797,4.3535,4.2949,4.2246,4.1816,3.959,3.7676,3.6387,3.431,0.0,0.0,0.0,0.0,0.0,0.0,0.0,0.0,0.0,0.0,0.0,0.0,0.0,0.0,0.0,0.0,0.0,0.0,0.0,0.0,0.0,0.0,0.0,0.0,0.0,0.0,0.0,0.0,0.0,0.0,0.0,0.0,0.0,0.0,0.0,0.0,0.0,0.0,0.0,0.0,0.0,0.0,0.0,0.0,0.0,0.0,0.0,0.0,0.0,0.0,0.0,0.0,0.0,3.8395,3.9121,4.0327,4.0241,3.9605,3.8493,3.6593,3.4819,3.3306,0.0,0.0,0.0,0.0,0.0,0.0,0.0,0.0,0.0,0.0,0.0,0.0,0.0,0.0,0.0,0.0,0.0,0.0,0.0,0.0,0.0,0.0,0.0,0.0,0.0,3.5351,3.5469,0.0,0.0,0.0,0.0,0.0,0.0,0.0,0.0,0.0,0.0,0.0,0.0,3.8203,4.041,4.2441,4.4101,4.3164,4.2382,4.2382,4.0527,3.8769,3.748,3.5527,3.3633,0.0,0.0,0.0,0.0,0.0,0.0,0.0,0.0,0.0,0.0,0.0,0.0,0.0,0.0,0.0,0.0,0.0,0.0,0.0,0.0,0.0,0.0,0.0,0.0,0.0,0.0,0.0,0.0,0.0,0.0,0.0,0.0,3.3247,3.3735,0.0,0.0,0.0,0.0,0.0,0.0,0.0,0.0,0.0,0.0,0.0,0.0,0.0,3.9002,4.0318,3.9717,3.9743,4.0355,3.9504,3.9394,3.9929,3.9549,3.966,4.0164,3.9521,0.0,3.4468,3.4717,0.0,0.0,0.0,0.0,0.0,0.0,0.0,0.0,0.0,0.0,0.0,0.0,0.0,0.0,0.0,0.0,0.0,0.0,0.0,0.0,0.0,0.0,3.4766,3.6069,3.6499,3.6582,0.0,3.543,3.4219,3.3418,0.0,0.0,0.0,0.0,0.0,0.0,0.0,0.0,3.7796,4.0234,4.2305,4.3652,4.2969,4.2382,4.2382,4.082,3.9238,3.793,3.6543,3.498,3.3211,3.2363,0.0,0.0,0.0,0.0,0.0,0.0,0.0,0.0,0.0,0.0,0.0,0.0,0.0,0.0,0.0,0.0,0.0,0.0,0.0,0.0,0.0,0.0,0.0,0.0,0.0,0.0,0.0,0.0,0.0,3.4448,3.4378,3.4204,3.4021,3.3688,0.0,0.0,0.0,0.0,0.0,0.0,0.0,0.0,0.0,3.7818,3.8712,3.9686,4.0761,4.0727,4.1196,4.2079,4.2093,4.248,4.3144,4.293,4.3047,4.3398,4.2969,4.1621,3.9588,3.7435,3.5263,3.3305,0.0,0.0,0.0,0.0,3.3184,3.3223,3.459,3.4935,0.0,0.0,0.0,0.0,0.0,0.0,0.0,0.0,0.0,0.0,0.0,0.0,0.0,3.9238,4.0098,4.0469,3.9941,3.9238,3.8008,0.0,3.4707,3.4101,3.3625,0.0,0.0,0.0,0.0,0.0,3.9143,4.1211,4.293,4.3984,4.3086,4.2382,4.2382,4.1308,4.0156,3.9101,3.7777,3.6391,3.4908,3.3594,3.248,0.0,0.0,0.0,0.0,0.0,0.0,0.0,0.0,0.0,0.0,0.0,0.0,0.0,0.0,0.0,0.0,0.0,0.0,0.0,0.0,0.0,0.0,0.0,0.0,0.0,0.0,0.0,0.0,3.4955,3.4995,3.3817,3.4047,3.3815,0.0,0.0,0.0,0.0,0.0,0.0,3.5275,3.691,3.8298,3.9219,4.0195,4.1172,4.2109,4.2695,4.3537,4.4612,4.5351,4.6113,4.6861,4.6719,4.666,4.6621,4.6074,4.5332,4.4238,4.0469,3.7832,3.6113,3.5351,3.4922,3.4824,3.5449,3.5762,3.6055,3.7461,3.7754,3.7516,3.7363,0.0,3.6328,3.5098,0.0,0.0,0.0,0.0,3.6934,3.8633,3.9883,4.1035,4.2324,4.3359,4.3789,4.2832,4.2441,4.1308,0.0,3.6719,3.5957,3.5195,0.0,0.0,0.0,0.0,3.9023,4.0644,4.2148,4.3418,4.4316,4.3223,4.2382,4.2382,4.166,4.0859,4.0098,3.8926,3.7699,3.6528,3.4844,3.3535,3.2707,0.0,0.0,0.0,0.0,0.0,0.0,0.0,0.0,0.0,0.0,0.0,0.0,0.0,0.0,0.0,0.0,0.0,0.0,0.0,0.0,0.0,0.0,0.0,0.0,0.0,0.0,0.0,0.0,0.0,3.1405,3.3203,0.0,0.0,0.0,0.0,3.517,3.6788,3.7943,3.8356,4.0038,4.1563,4.2814,4.4062,4.5289,4.6557,4.7441,4.8086,4.862,4.9043,4.9512,4.9941,4.9512,4.9336,4.9231,4.8418,4.7558,4.646,4.3027,4.1055,4.0021,3.8343,3.7969,3.8356,3.8396,3.8633,3.9043,3.959,3.9746,3.9863,4.0702,4.0351,3.9492,3.863,3.8047,0.0,0.0,3.9316,4.0059,4.1758,4.2558,4.3242,4.4551,4.4902,4.4941,4.484,4.4199,4.2715,0.0,3.8711,3.8262,3.7777,0.0,3.7246,3.7676,3.8906,4.0273,4.1562,4.2519,4.3418,4.4316,4.3223,4.2382,4.2382,4.166,4.0976,4.0527,3.9629,3.875,3.7835,3.6191,3.4883,3.4016,3.3164,0.0,0.0,0.0,0.0,0.0,0.0,0.0,0.0,0.0,0.0,0.0,0.0,0.0,0.0,0.0,0.0,0.0,0.0,0.0,0.0,0.0,0.0,0.0,0.0,0.0,0.0,0.0,0.0,3.6563,3.8101,0.0,3.6855,3.7246,3.7793,3.8262,3.9863,4.1269,4.2266,4.4219,4.5898,4.7187,4.8223,4.9082,4.9777,5.0089,5.0351,5.0527,5.0957,5.125,5.1406,5.125,5.1016,5.0675,5.0137,4.9551,4.8906,4.7402,4.5117,4.248,4.1582,4.1172,4.1113,4.168,4.1973,4.2246,4.3262,4.3437,4.3144,4.2891,4.2226,4.1465,4.1152,4.1133,4.1367,4.1933,4.2441,4.3125,4.4551,4.5039,4.541,4.6426,4.666,4.6582,4.6265,4.5953,4.4802,4.1519,4.0764,4.0028,3.7981,3.7383,3.7291,3.7603,3.723,3.7875,4.0386,4.0059,3.9746,4.007,3.9238,3.9152,4.0349,3.8522,3.7627,3.8522,3.668,3.5718,3.5941,3.4848,3.4188,3.4101,3.3496,3.2773,0.0,0.0,0.0,0.0,0.0,0.0,0.0,0.0,0.0,0.0,0.0,0.0,0.0,0.0,0.0,0.0,0.0,0.0,0.0,0.0,0.0,0.0,0.0,0.0,0.0,0.0,4.0144,3.9846,4.1515,4.2051,4.0449,4.0957,4.1562,4.2031,4.3906,4.5488,4.6504,4.8594,5.0078,5.0801,5.166,5.2187,5.2255,5.2255,5.2226,5.209,5.2383,5.2569,5.2569,5.2569,5.2441,5.2236,5.1699,5.1211,5.0781,5.0351,4.8476,4.5801,4.4941,4.459,4.4629,4.4902,4.5098,4.5351,4.623,4.625,4.5801,4.5195,4.4433,4.373,4.373,4.3848,4.4062,4.4629,4.5117,4.5703,4.6699,4.7051,4.7305,4.7916,4.8053,4.7684,4.6514,4.6143,4.5138,4.1981,4.1525,4.0726,3.7812,3.7043,3.6962,3.7303,3.6635,3.6896,3.9201,3.8538,3.7862,3.7907,3.7124,3.7068,3.8202,3.6357,3.5443,3.6219,3.4377,3.3475,3.3844,3.3643,3.356,3.3641,3.2885,3.2181,3.1515,0.0,0.0,0.0,0.0,0.0,0.0,0.0,0.0,0.0,0.0,0.0,0.0,0.0,0.0,0.0,0.0,0.0,0.0,0.0,0.0,0.0,0.0,0.0,3.5172,3.9126,4.1851,4.0857,4.3047,4.4121,4.2791,4.4629,4.6055,4.6465,4.8867,5.0488,5.0918,5.2949,5.3906,5.3527,5.4348,5.4531,5.405,5.405,5.3887,5.3488,5.3488,5.3507,5.3507,5.3488,5.3672,5.3992,5.3164,5.2558,5.2129,5.1699,5.1035,5.0137,4.8379,4.8249,4.8855,4.8033,4.793,4.8262,4.8262,4.8008,4.7656,4.7656,4.709,4.6426,4.6426,4.6133,4.5976,4.6797,4.7344,4.7754,4.8164,4.8528,4.8794,4.8775,4.8729,4.7995,4.5426,4.4584,4.3521,4.0896,4.0851,4.0324,3.7392,3.6562,3.6535,3.7014,3.7208,0.0,3.8178,3.8031,3.7969,3.8104,3.7084,3.6328,3.6106,3.5359,3.4555,3.3746,3.2923,3.2234,3.1673,3.2649,3.3006,3.2591,3.137,3.0563,3.0153,0.0,0.0,0.0,0.0,0.0,0.0,0.0,0.0,0.0,0.0,0.0,0.0,0.0,0.0,0.0,0.0,0.0,0.0,0.0,0.0,0.0,0.0,3.9521,3.8962,4.227,4.5055,4.5981,4.8105,4.9309,4.8938,4.9785,5.0488,5.0918,5.2207,5.3301,5.4023,5.4922,5.5508,5.5683,5.5937,5.5859,5.5358,5.5723,5.5664,5.5215,5.5215,5.539,5.5683,5.5371,5.5293,5.5319,5.4824,5.4355,5.3926,5.3496,5.3133,5.2793,5.1055,5.0332,5.0234,5.0,4.9805,4.9629,4.9629,4.9551,4.9519,4.9519,4.9297,4.9121,4.9121,4.9043,4.8984,4.9219,4.9375,4.9492,4.9609,4.8301,4.6837,4.6637,4.5054,4.3369,4.2454,4.2175,4.1326,3.8691,3.8163,3.7758,3.6573,3.5944,3.5792,3.6388,3.4419,0.0,3.6445,3.4847,3.3548,3.3776,3.3119,3.3061,3.3962,3.1797,3.0619,3.1086,2.9036,2.811,2.8665,2.899,2.9447,3.0156,2.9733,2.9429,0.0,0.0,0.0,0.0,0.0,0.0,0.0,0.0,0.0,0.0,0.0,0.0,0.0,0.0,0.0,0.0,0.0,0.0,0.0,0.0,0.0,0.0,4.112,4.332,4.4414,4.5996,4.7851,5.0098,5.1641,5.2606,5.3027,5.3437,5.3789,5.4043,5.4863,5.5586,5.6074,5.6626,5.7051,5.7109,5.7305,5.7187,5.6738,5.6992,5.6894,5.6411,5.6411,5.6601,5.6836,5.6582,5.6562,0.0,5.6113,5.5605,5.5176,5.4746,5.4238,0.0,0.0,0.0,0.0,0.0,5.0957,5.0488,5.0859,5.0742,5.0469,5.0644,5.0586,5.041,5.0234,5.0176,4.9986,4.8786,4.848,4.8241,4.705,4.5562,4.4372,4.4195,4.284,4.1261,4.0026,3.9656,3.8782,3.6164,3.5541,0.0,3.5086,3.453,3.4293,3.465,3.3147,3.2619,3.4471,3.3188,3.2099,3.2104,3.157,3.1411,3.197,3.014,0.0,0.0,0.0,2.6392,2.7254,2.7281,0.0,0.0,0.0,2.8444,2.8302,0.0,0.0,0.0,2.8571,2.8503,0.0,0.0,0.0,0.0,0.0,0.0,0.0,0.0,0.0,0.0,0.0,0.0,0.0,0.0,0.0,0.0,4.4375,4.7773,5.0332,5.0156,5.0723,5.3331,5.4062,5.4687,5.5449,5.5898,5.6119,5.6177,5.6933,5.7383,5.7422,0.0,0.0,0.0,0.0,5.8379,5.7984,5.8043,5.7793,5.7363,5.7363,5.7383,5.7422,5.7383,5.7598,5.7969,5.7148,5.6582,5.6138,5.5723,5.4805,5.3742,5.3507,5.341,5.3312,5.25,5.1719,5.1133,5.1836,0.0,0.0,5.1387,5.123,5.082,5.0488,5.0351,4.9769,4.7034,4.624,4.559,4.2856,4.1914,4.1716,4.1667,4.1225,4.0211,3.7815,3.7129,3.6266,3.3905,3.3467,3.3454,3.3414,3.2959,3.2661,3.2688,3.2848,3.2915,3.2714,3.2634,3.25,3.2185,0.0,0.0,3.0507,2.9806,2.8724,2.7068,2.6372,2.6264,2.6856,2.6884,2.6884,2.6884,2.7431,2.757,2.7188,2.6126,2.6526,2.835,2.8852,2.9269,0.0,0.0,0.0,0.0,0.0,0.0,0.0,0.0,0.0,0.0,0.0,0.0,0.0,0.0,0.0,4.4687,4.8144,5.123,5.3496,5.4551,5.5058,5.4941,5.5918,5.666,5.6836,5.7246,5.7637,5.7953,5.8128,5.8418,5.8769,5.8945,5.9004,5.8945,5.9004,5.8828,5.8363,5.8769,5.8711,5.8246,0.0,0.0,5.8789,5.8418,5.848,5.8906,5.8379,5.807,5.7969,5.7168,5.6504,5.5781,5.4094,5.341,5.339,5.3234,5.2793,5.2324,5.2148,5.1973,5.1855,5.1933,5.166,5.1367,5.1621,5.1465,0.0,4.7906,4.7149,4.6537,4.3758,4.1449,3.977,3.9495,3.7739,3.5874,3.5127,3.4929,3.4667,3.3943,3.3801,3.3721,3.3454,3.312,3.2973,3.3213,3.2942,3.2822,3.3187,3.2888,3.2567,3.2514,3.2144,3.1597,3.0782,2.974,2.8764,2.7978,2.672,2.6045,2.6173,2.6211,2.6211,2.6211,2.6528,2.6639,2.6571,2.6355,2.6436,2.683,2.6738,2.6822,0.0,0.0,0.0,0.0,0.0,0.0,0.0,0.0,0.0,0.0,0.0,3.7892,0.0,0.0,4.5605,4.8418,5.1533,5.4141,5.5449,5.6758,5.7324,5.666,5.7344,5.7969,5.8183,5.8434,5.8613,5.8828,5.9062,5.9221,5.9473,5.9687,5.9707,5.9512,5.9707,5.959,5.918,5.9394,5.9394,5.918,5.8945,5.8945,5.918,5.8945,5.9004,5.918,5.8711,5.848,5.8421,5.7344,5.664,5.6133,5.4844,5.4199,5.4074,5.4074,5.3476,5.2734,5.2969,5.2773,5.2402,5.2402,5.1182,4.9696,4.9764,4.8607,4.6818,4.4077,4.3318,4.2726,3.9977,3.8248,3.7192,3.7037,3.5872,3.4775,3.4576,3.4429,3.4229,3.3948,3.3881,3.3788,3.3467,3.3293,3.324,3.3387,3.316,3.308,3.3374,3.3026,3.2808,3.2808,3.2554,3.2024,3.1289,2.9887,2.8911,2.8604,2.7389,2.672,2.6867,2.6734,2.6653,2.6653,2.7081,2.7309,2.7309,2.7562,2.7709,2.7709,2.7764,2.7523,0.0,0.0,0.0,0.0,0.0,0.0,0.0,0.0,3.6753,3.876,3.9505,4.0723,4.3713,4.6601,4.9394,5.1845,5.4577,5.6562,5.6914,5.8086,5.8711,5.832,5.8555,5.8889,5.9297,5.9411,5.9414,5.9414,5.9648,5.9807,5.9922,6.0156,6.0158,5.9922,6.0216,6.0273,5.9922,5.9922,5.9922,5.9922,5.9512,5.9297,5.9297,5.9238,5.918,5.918,5.8828,5.8594,5.8421,5.7402,5.6699,5.6269,5.584,5.541,5.5039,5.4863,5.4121,5.3301,5.3848,5.3555,5.2849,5.2232,5.0215,4.7932,4.7128,4.5274,4.2823,4.0197,3.9419,3.8766,3.6064,3.5324,3.5284,3.5284,3.5057,3.4895,3.4895,3.4656,3.4402,3.4108,3.4055,3.3935,3.3574,3.3507,3.348,3.3427,3.3414,3.3414,3.3414,3.32,3.304,3.2986,3.2822,3.242,3.1778,3.0368,2.9428,2.9268,2.8404,2.7991,2.8123,2.7909,2.7817,2.7817,2.8286,2.8526,2.8526,2.8978,2.9161,2.9175,2.9513,2.9072,4.0902,3.8838,3.6972,3.5957,3.5267,3.5552,0.0,0.0,3.9101,4.1955,4.3482,4.5098,4.7779,5.0371,5.2851,5.5026,5.6958,5.8242,5.8301,5.9394,6.0021,5.9648,5.9629,5.9687,5.9746,6.0041,6.0255,6.0255,5.998,5.998,6.0332,6.0039,6.0039,6.0314,6.0372,6.0372,6.0314,6.0314,6.0314,6.0314,5.9922,5.9746,5.9746,5.9355,5.918,5.918,5.9121,5.8887,5.848,5.8359,5.8027,5.7598,5.7168,5.6738,5.6269,5.5527,5.5137,5.4922,5.4206,5.3914,5.3382,5.0456,4.9013,4.8028,4.5766,4.4464,4.3195,4.0716,3.9822,3.9096,3.6637,3.5778,3.5578,3.5578,3.5364,3.5151,3.5151,3.5124,3.5017,3.4775,3.4721,3.4548,3.3935,3.3828,3.3734,3.3454,3.3414,3.3414,3.3414,3.3387,3.3267,3.3013,3.2946,3.2585,3.1791,3.149,3.1095,3.0306,3.0132,2.9913,2.9673,2.9633,2.9619,2.9619,2.9686,2.9713,2.9713,2.978,2.982,2.982,3.0127,2.9958,3.9409,3.7651,3.6507,3.6708,3.7052,3.7963,4.021,4.1367,4.2676,4.5176,4.7324,4.9473,5.1865,5.4141,5.6172,0.0,5.8828,5.9629,5.9629,5.9863,5.9922,5.9473,5.9648,5.9865,6.0156,6.0332,6.0372,6.0372,6.0508,6.0625,6.0801,6.0841,6.0898,6.0801,6.1016,6.1016,6.0801,6.0801,6.0801,6.0801,6.0099,5.9805,5.9805,5.9355,5.918,5.918,5.918,5.8945,5.848,5.8262,5.791,5.7441,5.7012,5.5678,5.41,5.5244,5.5527,5.4954,5.2666,5.192,5.1341,4.7757,4.5413,4.3762,4.2435,4.0771,3.9087,3.8073,3.7696,3.7373,3.6356,3.5979,3.5845,3.5672,3.5538,3.5404,3.5231,3.5191,3.511,3.4869,3.4815,3.4681,3.4215,3.4135,3.4095,3.3961,3.3641,3.3414,3.3414,3.3414,3.336,3.324,3.308,3.2826,3.2514,3.2118,3.1837,3.1698,3.1363,3.1142,3.1183,3.0862,3.0675,3.0675,3.0515,3.0515,3.0675,3.0515,3.0515,3.0642,3.0982,3.1042,3.7614,3.6869,3.6974,3.8275,3.9509,4.1055,4.3398,4.5098,4.6816,4.9082,5.1211,5.3262,5.5195,5.6914,5.8375,5.9238,6.0039,6.0566,6.0449,6.0273,5.9824,5.8945,5.9004,5.9219,5.9512,6.0158,6.0605,6.0605,6.0918,6.1152,6.125,6.1426,6.1426,6.1269,6.1543,6.1543,6.1269,6.1269,6.1269,6.125,6.0508,6.0098,5.998,5.9414,5.918,5.918,5.918,5.8945,5.8405,5.7263,5.6547,5.6036,5.4783,5.3,5.1285,5.2994,5.3431,5.2828,5.0259,4.9318,4.877,4.4998,4.2501,4.0717,3.9582,3.7829,3.6206,3.6286,3.6193,3.6112,3.6273,3.6193,3.6046,3.5899,3.5805,3.5698,3.5485,3.5378,3.5271,3.5203,3.5057,3.491,3.4616,3.4563,3.4509,3.4349,3.3948,3.3668,3.3668,3.3668,3.3627,3.3547,3.336,3.3227,3.3227,3.2759,3.2519,3.2701,3.2313,3.2091,3.2225,3.181,3.1583,3.1583,3.1383,3.1383,3.1583,3.1383,3.1383,3.1597,3.1858,3.1965,3.5879,3.6592,3.8115,4.051,4.2325,4.457,4.8372,4.998,5.1348,5.3926,5.5176,5.6191,5.7519,5.8183,5.8769,5.9648,6.0508,6.0918,6.0431,6.0801,6.0273,5.8199,5.7539,5.7305,0.0,5.959,6.1074,6.1074,6.1094,6.1269,6.166,6.1308,6.1308,6.166,6.1719,6.1719,6.1719,6.1719,6.1719,6.1719,6.125,6.084,6.0314,5.957,5.918,5.918,5.918,5.8945,5.8294,5.532,5.3867,5.3189,4.9841,4.847,4.8347,4.7982,4.7833,4.7734,4.6966,4.6734,4.6129,4.248,4.1252,4.0655,3.7825,3.6782,3.654,3.6779,3.65,3.6206,3.6754,3.65,3.6139,3.6393,3.6259,3.6059,3.6046,3.5819,3.5698,3.5979,3.5805,3.5511,3.5217,3.5164,3.4977,3.4402,3.4309,3.4295,3.4295,3.4295,3.4189,3.3895,3.3868,3.3855,3.3855,3.3561,3.3253,3.2986,3.2946,3.2862,3.2594,3.2567,3.2554,3.2554,3.2541,3.2541,3.2554,3.2541,3.2541,3.2554,3.2567,3.2567,3.6242,3.8735,4.1831,4.4363,4.6933,4.9426,5.1904,5.3398,5.4531,5.5703,5.5723,5.5742,5.6445,5.6933,5.7519,5.8379,5.998,6.1133,6.125,6.1426,6.0625,5.8199,5.7789,0.0,0.0,0.0,0.0,6.0566,6.0918,6.1269,6.1719,6.1601,6.1543,6.1719,6.1719,6.1719,6.1719,6.1719,6.1719,6.1719,6.0958,6.0273,5.959,5.9297,5.918,5.9087,5.7005,5.5859,5.5245,5.2141,5.0471,4.9892,4.8649,4.6873,4.4913,4.4748,4.3429,4.1874,4.3276,4.3735,4.3146,3.9494,3.8376,3.817,3.7217,3.6861,3.6779,3.6845,3.6794,3.6687,3.6845,3.6794,3.662,3.654,3.6433,3.6313,3.6112,3.5992,3.5952,3.6059,3.5992,3.5899,3.5792,3.5618,3.5351,3.4963,3.4563,3.4322,3.4322,3.4322,3.4282,3.4189,3.4002,3.3961,3.4162,3.3708,3.3454,3.3574,3.3387,3.3213,3.312,3.2982,3.2888,3.2888,3.2688,3.2688,3.2875,3.2688,3.2688,3.2888,3.2888,3.2888,3.8613,4.1992,4.5566,4.832,5.0918,5.3223,5.4805,5.5918,5.6562,5.6387,5.5683,5.498,5.4629,5.4414,5.4824,5.6518,5.8144,5.9707,6.1074,6.1015,6.0039,5.7926,5.7226,5.6621,0.0,0.0,0.0,5.9807,6.0508,6.1035,6.1484,6.1602,6.1719,6.1719,6.1719,6.1719,6.1719,6.1543,6.1426,6.125,6.049,5.9335,5.7703,5.7607,5.693,5.5722,5.3711,5.2587,5.2067,4.8915,4.7265,4.6666,4.5373,4.3677,4.1877,4.1676,4.0423,3.903,4.0406,4.0797,4.0302,3.7861,3.7008,3.6912,3.7048,3.7088,3.7128,3.7179,3.7088,3.6912,3.7032,3.7008,3.6845,3.6659,3.6727,3.6727,3.6433,3.638,3.638,3.638,3.638,3.6353,3.6246,3.5979,3.5725,3.5538,3.5191,3.483,3.4523,3.4563,3.4589,3.4496,3.4309,3.4282,3.4456,3.4028,3.3774,3.3881,3.3694,3.3534,3.3414,3.3227,3.3133,3.3133,3.2946,3.2946,3.3133,3.2946,3.2946,3.3133,3.3133,3.3133,4.2793,4.6211,4.9277,5.2207,5.4219,5.5801,5.7031,5.7558,5.7422,5.6133,5.5078,5.3848,0.0,0.0,5.1094,5.4062,5.543,5.7075,6.0041,5.9863,5.8887,0.0,0.0,0.0,0.0,0.0,0.0,5.9062,0.0,6.0605,6.1094,6.1484,6.1719,6.1719,6.1719,6.1719,6.1719,6.1308,6.0859,6.039,5.981,5.795,5.5031,5.452,5.2602,4.9806,4.9631,4.9318,4.8742,4.5723,4.4252,4.3532,4.0354,3.9287,3.9493,3.8945,3.8846,3.8993,3.8477,3.8076,3.7782,3.7489,3.7195,3.6992,3.7301,3.7382,3.7448,3.7702,3.7382,3.6992,3.7315,3.7195,3.6981,3.6981,3.7195,3.7342,3.6992,3.6925,3.6912,3.6925,3.6912,3.6861,3.658,3.6286,3.6099,3.6099,3.6086,3.5819,3.4989,3.507,3.5137,3.4909,3.4855,3.4842,3.4855,3.4509,3.4202,3.3948,3.3921,3.3761,3.3454,3.3454,3.344,3.3414,3.3427,3.3427,3.3414,3.3414,3.3414,3.3414,3.3414,3.3414,4.625,5.0215,5.3906,5.5625,5.6894,5.7836,5.8535,5.7808,5.6543,5.5273,5.2539,4.9844,0.0,0.0,0.0,5.2363,5.5898,0.0,6.1074,6.1777,0.0,5.8945,0.0,5.7965,5.7285,5.7305,0.0,0.0,5.9863,6.0449,6.1484,6.166,6.1719,6.1719,6.1719,6.1719,6.1719,6.1308,6.0723,5.9904,5.7493,5.5727,5.4541,5.2101,5.0545,4.9648,4.7319,4.6116,4.5649,4.272,4.1284,4.0624,3.9788,3.9353,3.9167,3.8806,3.8758,3.8798,3.8651,3.8397,3.8103,3.7809,3.7662,3.7555,3.7422,3.7529,3.7635,3.7261,3.7326,3.7555,3.7422,3.7489,3.7595,3.7595,3.7635,3.7676,3.7595,3.7422,3.7342,3.7555,3.7422,3.7168,3.6874,3.658,3.6393,3.6393,3.6206,3.6046,3.5819,3.5805,3.5819,3.5805,3.5351,3.5177,3.5391,3.4736,3.4389,3.4588,3.4336,3.4082,3.3774,3.3975,3.3881,3.3414,3.3641,3.3654,3.3414,3.3414,3.3414,3.3414,3.3414,3.3534,5.0703,5.4238,5.7226,5.8125,5.8711,5.8769,5.75,5.6308,5.457,5.1387,4.8711,4.623,4.3906,4.5195,4.7422,0.0,0.0,0.0,6.1074,6.1875,6.1719,0.0,6.0117,0.0,5.9372,5.9297,5.9765,0.0,6.039,6.0488,6.1367,6.1601,6.1719,6.1719,6.1719,6.1543,6.1133,5.9551,5.8327,5.742,5.4261,5.1926,5.0288,4.8521,4.7009,4.562,0.0,4.2999,4.2751,4.1173,4.0214,3.9773,3.964,3.9493,3.9247,3.8865,3.8798,3.8846,3.8758,3.8611,3.8397,3.8103,3.7929,3.7809,3.7782,3.7889,3.7969,3.7782,3.7849,3.7969,3.7823,3.7889,3.7969,3.7849,3.7929,3.7969,3.7849,3.7782,3.7823,3.7969,3.7782,3.7529,3.7342,3.7195,3.7088,3.7088,3.6834,3.666,3.666,3.6313,3.6019,3.5899,3.5578,3.5404,3.5431,3.499,3.4723,3.4815,3.4603,3.4389,3.4095,3.4229,3.4162,3.3814,3.3855,3.3855,3.3814,3.3681,3.3681,3.3814,3.3814,3.3841,5.5143,5.7851,5.959,5.9824,5.9746,5.8769,5.5449,5.3848,5.1553,4.6328,4.4375,4.2793,4.0059,4.1777,4.4668,4.7871,5.2324,5.6719,6.0566,6.1327,6.1543,6.1836,6.166,6.1484,6.1426,6.1426,6.1719,6.2422,6.1426,6.0898,6.125,6.1601,6.1777,6.1719,6.1719,6.1077,5.982,5.7131,5.5186,5.3914,5.0678,4.7715,4.5085,4.4669,4.3053,4.0481,0.0,0.0,4.0481,4.0481,4.0294,4.0,3.9706,3.9559,3.9493,3.8886,3.8865,3.8993,3.8798,3.8718,3.8691,3.8397,3.8143,3.7969,3.824,3.829,3.837,3.8544,3.8477,3.8348,3.8321,3.8348,3.825,3.7996,3.8143,3.825,3.7996,3.8143,3.8348,3.8281,3.8036,3.7889,3.7889,3.7849,3.7823,3.7849,3.7635,3.7422,3.7382,3.6687,3.6086,3.5778,3.5711,3.5631,3.5338,3.5271,3.5137,3.4895,3.4869,3.4683,3.4389,3.4416,3.4402,3.4322,3.4108,3.4108,3.4322,3.4068,3.4068,3.4322,3.4322,3.4202,5.7402,5.9629,6.1133,6.0431,5.9512,5.8027,5.5312,5.1308,4.7123,4.3711,4.1172,3.9256,3.7969,4.0723,4.4531,4.8633,5.2919,5.7051,6.0566,6.2363,6.3105,0.0,6.3319,6.3613,0.0,0.0,0.0,0.0,0.0,6.2461,6.2207,6.2246,6.207,6.1719,6.1719,6.0145,5.6931,5.6193,5.4205,5.1015,4.7547,4.562,4.5011,4.248,4.1013,4.0481,4.0481,0.0,4.0481,4.0481,4.0294,4.0,3.9706,3.9452,3.914,3.8838,3.8758,3.874,3.8731,3.8718,3.866,3.8651,3.8611,3.8486,3.833,3.8437,3.8544,3.8103,3.829,3.8584,3.8388,3.8437,3.8624,3.8584,3.8611,3.8611,3.8584,3.8611,3.8504,3.7996,3.8036,3.8183,3.8183,3.7969,3.7889,3.8143,3.7929,3.7662,3.7422,3.7048,3.6754,3.6659,3.65,3.6233,3.5939,3.5698,3.5431,3.5137,3.5124,3.499,3.4696,3.4923,3.4817,3.4336,3.4509,3.4523,3.4322,3.4269,3.4269,3.4322,3.4322,3.4429,5.9004,6.0548,6.1543,6.0918,5.9121,5.6426,5.2266,4.8008,4.3691,3.9316,3.7617,3.666,3.5815,3.9336,4.3379,4.6367,5.0273,5.4531,5.9121,6.0273,6.1426,6.3457,6.4082,6.4433,0.0,0.0,0.0,0.0,0.0,6.3105,6.2422,6.2187,6.1191,5.9238,5.9219,5.7351,5.3457,5.1693,4.9742,4.7538,4.428,4.2679,4.2647,4.1181,4.0481,4.0481,4.0481,0.0,4.0481,4.0481,4.0214,3.9786,3.9666,3.9287,3.8905,3.8758,3.8718,3.8718,3.8718,3.8718,3.8718,3.8718,3.8718,3.8691,3.8544,3.8611,3.8651,3.8357,3.8504,3.8691,3.8544,3.8611,3.8718,3.8718,3.8718,3.8718,3.8718,3.8718,3.8593,3.8299,3.8397,3.8504,3.8504,3.8397,3.833,3.8477,3.825,3.7929,3.7635,3.7342,3.7048,3.6754,3.658,3.6393,3.6099,3.5939,3.5738,3.5444,3.5418,3.5284,3.5004,3.5124,3.507,3.4776,3.4763,3.4763,3.4776,3.4629,3.4629,3.4776,3.4776,3.4776,6.0099,6.1191,6.166,6.0976,5.8418,5.4609,4.916,4.4844,4.0547,3.5469,3.4648,3.4687,3.4192,3.7851,4.1699,4.3887,4.7344,5.1641,5.709,5.8262,5.9998,6.373,6.459,0.0,6.5644,6.5019,0.0,0.0,0.0,0.0,6.1378,6.0917,5.916,5.5922,5.582,5.3991,5.014,4.7495,4.5575,4.4231,4.1706,4.0481,4.0481,4.0481,4.0481,4.0481,4.0481,0.0,0.0,4.0481,4.0187,3.9706,3.9706,3.9346,3.8766,3.8766,3.8758,3.8718,3.8718,3.8718,3.8731,3.8798,3.8758,3.8718,3.8718,3.8718,3.8718,3.8718,3.8718,3.8718,3.8718,3.8718,3.8718,3.8718,3.8718,3.8718,3.8718,3.8758,3.8766,3.8766,3.8766,3.8766,3.8766,3.8758,3.8718,3.8718,3.8504,3.825,3.7956,3.7702,3.7382,3.6834,3.6687,3.6473,3.6193,3.6166,3.6032,3.5738,3.5672,3.5525,3.5297,3.5231,3.5191,3.5191,3.4977,3.4963,3.5191,3.4963,3.4977,3.5191,3.5191,3.507,6.0683,6.166,6.1972,6.0332,5.707,5.2938,4.8099,4.2518,3.7445,3.4186,3.3262,3.3242,3.3977,3.6387,3.9492,4.3164,4.6367,5.0078,5.4922,5.8594,6.1543,6.3515,0.0,0.0,6.6148,6.5762,0.0,0.0,0.0,0.0,5.7989,5.7565,5.582,5.2532,5.2427,5.084,4.7508,4.6614,4.464,4.1627,4.0891,4.0481,4.0481,4.0481,4.0481,4.0481,4.0481,0.0,0.0,4.0481,4.0294,3.994,3.994,3.9567,3.906,3.906,3.8886,3.8718,3.8718,3.8718,3.8758,3.8993,3.8886,3.8718,3.8718,3.8718,3.8718,3.8718,3.8718,3.8718,3.8718,3.8718,3.8718,3.8718,3.8718,3.8718,3.8718,3.8886,3.906,3.906,3.906,3.906,3.906,3.8846,3.8718,3.8718,3.8691,3.8584,3.8321,3.824,3.8093,3.7742,3.7179,3.6739,3.65,3.6473,3.634,3.6046,3.5778,3.5565,3.5538,3.5338,3.5191,3.5191,3.5177,3.5177,3.5191,3.5177,3.5177,3.5191,3.5191,3.5177,5.9531,6.0957,6.1308,6.0098,5.6308,5.1621,4.6855,4.1308,3.623,3.2949,3.2344,3.2628,3.3203,3.5,3.7402,4.0488,4.1797,4.4336,4.9883,5.2207,5.5234,6.039,6.2422,0.0,0.0,0.0,0.0,0.0,0.0,0.0,5.4566,5.4146,5.2427,4.9126,4.9049,4.7279,4.3606,4.3382,4.2414,4.0802,4.0588,4.0481,4.0481,4.0481,4.0481,4.0481,4.0481,0.0,0.0,4.0481,4.0294,3.9967,3.9967,3.9773,3.9353,3.9167,3.902,3.8913,3.874,3.8718,3.8758,3.8993,3.902,3.8913,3.8913,3.8913,3.8913,3.8913,3.8913,3.8913,3.8913,3.8913,3.8913,3.8913,3.8913,3.8886,3.8758,3.8886,3.906,3.8886,3.8993,3.9033,3.8886,3.8798,3.8718,3.8718,3.8718,3.8611,3.8348,3.8321,3.8143,3.7849,3.7448,3.7235,3.7301,3.7128,3.6901,3.662,3.6473,3.6259,3.5912,3.5778,3.5645,3.5458,3.5458,3.5364,3.5191,3.5191,3.5191,3.5191,3.5191,3.5191,5.7558,5.957,6.0449,5.9473,5.5351,5.0312,4.5683,4.0312,3.5391,3.2187,3.1875,3.2296,3.2559,3.4141,3.6113,3.8281,3.9043,4.1308,4.6797,4.8379,5.123,5.7324,0.0,6.1328,0.0,0.0,0.0,0.0,0.0,0.0,5.1191,4.9869,4.8016,4.5735,4.5586,4.4189,4.1483,4.1248,4.1016,4.0615,4.0508,4.0481,4.0481,4.0481,4.0481,4.0481,0.0,0.0,0.0,4.0481,4.0361,4.0174,4.0174,3.992,3.9559,3.9313,3.9127,3.8953,3.8798,3.874,3.8846,3.914,3.9247,3.9247,3.9247,3.9167,3.91,3.8993,3.902,3.91,3.91,3.91,3.91,3.91,3.902,3.8913,3.8758,3.8886,3.902,3.8846,3.9033,3.914,3.8846,3.8806,3.8766,3.8731,3.8718,3.8651,3.8437,3.8397,3.833,3.8103,3.7823,3.7676,3.7809,3.7635,3.7422,3.7195,3.6992,3.6754,3.6353,3.6166,3.5979,3.5765,3.5765,3.5658,3.5458,3.5364,3.5364,3.5458,3.5271,3.5191,5.4765,5.7539,5.9512,5.8258,5.4055,4.9062,4.4707,3.9414,3.4668,3.202,3.1875,3.2198,3.2198,3.3977,3.582,3.7109,3.9473,4.2696,4.6973,4.9433,5.1914,0.0,0.0,5.8262,6.0918,6.0404,0.0,0.0,0.0,0.0,4.7751,4.4299,4.2295,4.2218,4.2,4.1853,4.179,4.1203,4.0909,4.0909,4.0615,4.0481,4.0481,4.0481,4.0481,0.0,0.0,0.0,0.0,4.0481,4.0481,4.0481,4.0481,4.0107,3.9599,3.9599,3.9239,3.8718,3.8718,3.8846,3.914,3.9493,3.9599,3.9599,3.9599,3.9372,3.902,3.8798,3.8886,3.91,3.91,3.91,3.91,3.91,3.8886,3.8718,3.8718,3.8886,3.91,3.91,3.9386,3.9493,3.914,3.91,3.8993,3.8758,3.8718,3.8718,3.8718,3.8718,3.866,3.866,3.8437,3.8143,3.7849,3.7809,3.7809,3.7809,3.7206,3.6885,3.6885,3.638,3.6072,3.6072,3.6072,3.6059,3.6113,3.5765,3.5778,3.61,3.5471,3.5191,4.9551,5.1601,5.2461,5.1152,4.8281,4.4766,4.1055,3.7461,3.4199,3.1621,3.1426,3.1816,3.214,3.3,3.4707,3.8047,3.9297,4.1133,4.4883,4.8281,5.0732,5.1546,5.4562,5.6922,0.0,0.0,0.0,0.0,0.0,0.0,4.7563,4.404,4.1924,4.1924,4.1817,4.1603,4.1203,4.1016,4.0802,4.0615,4.0508,4.0481,4.0481,4.0481,0.0,0.0,0.0,0.0,0.0,4.0481,4.0481,4.0481,4.0481,4.0254,3.982,3.9666,3.9493,3.9306,3.9033,3.9199,3.946,3.9754,3.9893,3.9853,3.9666,3.9533,3.9393,3.9346,3.9386,3.9493,3.9647,3.9746,3.9647,3.946,3.9386,3.9199,3.8798,3.8886,3.91,3.91,3.9167,3.9287,3.9393,3.9118,3.8913,3.9265,3.8985,3.8798,3.8972,3.8838,3.8718,3.8718,3.8593,3.8544,3.8437,3.825,3.8116,3.8116,3.7986,3.7676,3.7275,3.7061,3.6767,3.638,3.6366,3.6273,3.6072,3.5979,3.5979,3.6113,3.5471,3.5297,4.4551,4.7012,4.8125,4.7305,4.4902,4.1973,3.9004,3.6074,3.3398,3.1328,3.123,3.166,3.212,3.2804,3.4258,3.7266,3.8437,3.9756,4.2102,4.5291,0.0,4.8352,0.0,0.0,0.0,0.0,0.0,0.0,0.0,0.0,4.5532,4.3212,4.175,4.163,4.1523,4.1269,4.0909,4.0802,4.0588,4.0294,4.0294,4.0254,4.0147,4.0254,0.0,0.0,0.0,0.0,0.0,4.0481,4.0481,4.0481,4.0361,4.0147,3.9813,3.9533,3.9412,3.9353,3.9167,3.9412,3.9786,3.996,3.9967,4.0,3.9813,3.9599,3.9412,3.9412,3.9599,3.9786,3.9853,3.9853,3.9813,3.964,3.9519,3.9306,3.878,3.8993,3.9207,3.8993,3.9159,3.9287,3.9412,3.9167,3.9132,3.9386,3.9167,3.9033,3.91,3.9092,3.9052,3.9052,3.9052,3.9012,3.8846,3.8611,3.8437,3.8437,3.8388,3.8116,3.7772,3.7595,3.7315,3.6834,3.6834,3.6687,3.6393,3.6393,3.6286,3.6059,3.5805,3.5725,0.0,4.3242,4.5469,4.541,4.2988,4.0078,3.7988,3.5039,0.0,3.1152,3.1191,3.1641,3.2237,3.3254,3.4407,3.5566,3.7402,3.886,3.931,4.1281,0.0,0.0,4.8436,0.0,0.0,0.0,0.0,0.0,0.0,0.0,4.2258,4.1924,4.163,4.1274,4.1016,4.0842,4.0842,4.0588,4.0294,4.0,4.0,3.9853,3.9599,3.9893,0.0,0.0,0.0,0.0,0.0,4.0481,4.0481,4.0441,4.0147,3.9853,3.9559,3.9207,3.91,3.914,3.914,3.95,4.0067,4.0067,4.004,3.9967,3.9967,3.9567,3.914,3.9167,3.9599,3.996,3.9706,3.964,3.964,3.9599,3.9372,3.906,3.8838,3.9199,3.9452,3.8846,3.9199,3.9493,3.9167,3.9372,3.9452,3.9207,3.9412,3.9493,3.9207,3.9393,3.9599,3.9599,3.9599,3.9493,3.914,3.8905,3.87,3.8718,3.8495,3.829,3.8321,3.7996,3.7702,3.7382,3.7398,3.7235,3.6925,3.6885,3.6647,3.622,3.6393,3.6366,3.4016,0.0,3.7266,3.6621,3.584,3.4941,0.0,3.2922,3.2081,3.1094,3.0976,3.1562,3.3332,3.334,3.4473,3.8633,3.9473,3.9912,4.0747,4.1799,0.0,4.6723,4.6762,0.0,0.0,0.0,0.0,0.0,0.0,4.2592,4.2195,4.1675,4.1354,4.1274,4.0615,4.0194,4.0194,4.0174,4.0,3.9706,3.9706,3.9666,3.9599,3.9666,0.0,0.0,0.0,0.0,4.0481,4.0481,4.0481,4.0441,4.0147,3.9853,3.9559,3.9207,3.9247,3.9493,3.9493,3.9893,4.0361,4.0361,4.0214,3.9967,3.9967,3.9773,3.9533,3.9714,3.986,3.9967,3.99,3.992,3.982,3.964,3.9559,3.9493,3.9412,3.9493,3.9559,3.9412,3.9306,3.9247,3.9452,3.9199,3.9118,3.9687,3.9493,3.9353,3.9714,3.9706,3.9599,3.9599,3.9599,3.9559,3.9493,3.9167,3.8913,3.8731,3.8651,3.8504,3.8321,3.824,3.7929,3.7382,3.7155,3.7128,3.7275,3.6834,3.6767,3.7061,3.6687,3.658,3.1523,3.2812,3.4043,3.3789,3.3418,3.3008,3.2559,3.2042,3.1475,3.0976,3.0898,3.1367,3.2941,3.2383,3.2777,3.6112,3.6734,3.7566,0.0,0.0,4.1747,4.5105,4.5045,0.0,0.0,0.0,0.0,0.0,0.0,4.2472,4.2044,4.1541,4.1168,4.0949,4.03,3.9967,3.9967,3.9714,3.9433,3.9199,3.9199,3.9132,3.8985,3.9265,3.9433,0.0,0.0,0.0,4.008,4.008,4.0147,4.0214,3.9754,3.9567,3.9559,3.906,3.91,3.9412,3.9559,4.0,4.0481,4.0481,4.0361,4.0214,4.0067,3.992,3.9813,3.9813,3.992,3.9967,3.9967,3.9967,3.994,3.9794,3.9754,3.9706,3.9452,3.9599,3.9706,3.9393,3.9372,3.9452,3.9746,3.9412,3.9287,3.992,3.9714,3.9607,3.994,4.0,4.0,4.0,4.0,3.996,3.9813,3.9607,3.9313,3.8886,3.9052,3.8945,3.8477,3.8611,3.8397,3.7839,3.7489,3.7408,3.7569,3.7275,3.7275,3.7569,3.7261,3.7195,3.1211,3.2383,3.3535,3.3606,3.3086,3.2578,3.2519,3.166,3.0898,3.0898,3.0937,3.1239,3.2073,3.1761,3.1627,3.2421,3.3154,0.0,3.8398,3.8765,3.9706,4.2659,4.3634,0.0,0.0,0.0,0.0,0.0,0.0,4.2362,4.1817,4.1456,4.1016,4.0542,4.0147,3.986,3.9794,3.9273,3.8905,3.8584,3.8584,3.8437,3.8223,3.8758,3.8993,3.906,0.0,0.0,3.9599,3.9599,3.9746,3.986,3.9313,3.9247,3.9452,3.8905,3.8846,3.914,3.95,4.004,4.0481,4.0441,4.0401,4.0334,4.0,3.9893,3.9794,3.9599,3.9773,3.9967,3.996,3.996,3.99,3.986,3.992,3.9794,3.9313,3.9666,3.982,3.9273,3.9412,3.9666,3.9853,3.9746,3.9706,3.994,3.9967,4.004,4.0047,4.0321,4.0481,4.0481,4.0481,4.0361,4.0107,4.0107,3.9853,3.9273,3.9393,3.9306,3.87,3.8905,3.8798,3.8388,3.7996,3.7849,3.7889,3.7793,3.7849,3.7889,3.7889,3.7889,3.2637,3.3496,3.3555,3.1816,3.1543,3.1621,3.1269,3.1035,3.0898,3.0898,3.1172,3.1592,3.2177,3.4176,3.545,3.4615,0.0,3.6869,0.0,0.0,4.0836,4.2576,0.0,0.0,0.0,0.0,0.0,0.0,0.0,4.1897,4.179,4.1269,4.0842,4.0542,3.996,3.9412,3.8886,3.8838,3.8504,3.7956,3.7956,3.7929,3.7889,3.825,3.8544,3.8798,0.0,3.9313,3.9599,3.9599,3.964,3.964,3.9247,3.9127,3.914,3.8838,3.8846,3.9167,3.9714,4.0187,4.0441,4.0187,4.0107,4.0,3.9393,3.9247,3.9207,3.9167,3.9567,3.996,3.9746,3.9666,3.9599,3.9287,3.9433,3.9706,3.9853,3.99,3.992,3.9599,3.9559,3.9533,3.9273,3.9452,3.9706,3.994,3.9967,4.0107,4.0361,4.0441,4.0481,4.0481,4.0481,4.0502,4.0401,4.0401,4.0254,3.986,3.942,3.902,3.8731,3.8504,3.8477,3.8651,3.8103,3.7929,3.824,3.7929,3.7956,3.824,3.824,3.824,3.1836,3.2363,3.2617,3.2324,3.2949,3.3107,3.117,3.0717,3.0792,3.1015,3.122,3.1603,3.2438,3.38,3.4739,3.4588,0.0,3.7053,3.9806,0.0,0.0,0.0,0.0,0.0,0.0,0.0,0.0,0.0,0.0,0.0,4.131,4.1056,4.0615,4.004,3.9746,3.9159,3.8193,3.821,3.7996,3.7569,3.7408,3.7422,3.7595,3.7772,3.8036,3.8477,0.0,3.8838,3.9118,3.9118,3.9167,3.9287,3.8993,3.8953,3.91,3.8953,3.91,3.9393,3.9706,4.0,4.0214,4.0067,3.9967,3.99,3.9519,3.9386,3.9313,3.914,3.9287,3.95,3.9599,3.9599,3.9559,3.9412,3.9567,3.9813,3.9813,3.992,3.994,3.9853,3.9813,3.9794,3.9853,3.9853,3.992,4.0214,4.0147,4.0147,4.0441,4.0481,4.0481,4.0481,4.0481,4.0481,4.0481,4.0481,4.0361,4.0007,3.942,3.902,3.8913,3.878,3.8731,3.8718,3.8553,3.8486,3.8504,3.8486,3.8553,3.8758,3.8905,3.8905,3.1367,3.1719,3.2226,3.3301,3.4043,3.3944,3.1803,3.1055,3.091,3.125,3.1392,3.1617,3.2102,3.2737,0.0,3.5471,3.6464,3.7702,0.0,0.0,0.0,0.0,0.0,0.0,0.0,0.0,0.0,0.0,0.0,0.0,4.0909,4.0762,4.0361,3.964,3.9452,3.8878,3.7809,3.7676,3.7448,3.7168,3.6941,3.6941,3.7168,3.7235,3.7595,3.82,3.8281,3.8437,3.8718,3.8718,3.8806,3.8993,3.8798,3.8806,3.8993,3.8993,3.9239,3.9493,3.9493,3.9666,3.986,3.9794,3.9813,3.9714,3.9493,3.9452,3.9393,3.9118,3.906,3.914,3.9393,3.9559,3.9599,3.9519,3.9666,3.9754,3.9706,3.9813,3.99,3.9967,3.9967,4.0107,4.0334,4.0254,4.0214,4.0441,4.0294,4.0214,4.0441,4.0481,4.0481,4.0481,4.0481,4.0481,4.0481,4.0481,4.0361,4.0007,3.9599,3.9247,3.91,3.9167,3.9033,3.8731,3.8953,3.8993,3.8766,3.8993,3.914,3.9207,3.9493,3.9493,3.2812,3.323,3.3367,3.3938,3.291,3.2056,3.3123,3.2386,3.1493,3.1631,3.2016,3.1929,3.0655,3.1828,3.4582,3.9349,3.9932,4.0361,0.0,0.0,0.0,0.0,0.0,0.0,0.0,0.0,0.0,0.0,0.0,0.0,4.0909,4.0401,3.99,3.9599,3.9092,3.8464,3.7809,3.7261,3.6805,3.658,3.654,3.654,3.658,3.6834,3.7246,3.7849,3.8143,3.8437,3.8718,3.8718,3.8731,3.8758,3.8731,3.8731,3.8758,3.8758,3.8886,3.914,3.914,3.9372,3.9599,3.9247,3.9167,3.91,3.8865,3.8913,3.906,3.8838,3.8886,3.91,3.9127,3.9386,3.9533,3.9207,3.914,3.9313,3.982,3.9813,3.9706,3.994,3.9967,4.0027,4.0007,4.0294,4.0441,4.0481,4.0468,4.0441,4.0481,4.0481,4.0481,4.0481,4.0481,4.0481,4.0481,4.0481,4.0361,4.0007,3.994,3.9673,3.9127,3.9412,3.9306,3.8731,3.8953,3.91,3.906,3.91,3.9247,3.9559,3.9599,3.9599,3.1601,3.143,3.1615,3.4243,3.3619,3.2261,3.203,3.2904,3.3486,3.2662,3.3092,3.3586,3.3572,3.415,3.5628,3.8653,4.0246,4.1497,0.0,0.0,0.0,0.0,0.0,0.0,0.0,0.0,0.0,0.0,0.0,0.0,4.0361,4.0,3.95,3.9052,3.8838,3.8357,3.7555,3.7099,3.6687,3.6233,3.6046,3.6059,3.6233,3.6153,3.6485,3.7246,3.7595,3.7889,3.8183,3.8571,3.8611,3.8495,3.8651,3.8718,3.87,3.8886,3.8993,3.91,3.91,3.9167,3.9247,3.914,3.91,3.906,3.8953,3.902,3.902,3.8798,3.8886,3.906,3.8886,3.8972,3.9033,3.91,3.9247,3.9533,3.99,4.0107,4.0187,4.0294,4.0294,4.0294,4.0294,4.0401,4.0481,4.0481,4.0481,4.0481,4.0481,4.0481,4.0481,4.0481,4.0481,4.0481,4.0481,4.0481,4.0441,4.0321,4.0147,3.9794,3.9452,3.9706,3.9666,3.9265,3.95,3.9599,3.9412,3.9599,3.9746,3.982,4.0067,3.996,3.0032,2.9646,2.9762,3.2382,3.3032,3.2798,3.1794,3.3543,3.5063,3.392,3.3979,3.4416,3.5208,3.5586,0.0,0.0,4.0435,0.0,0.0,0.0,0.0,0.0,0.0,0.0,0.0,0.0,0.0,0.0,0.0,0.0,0.0,3.9493,3.9092,3.8584,3.8397,3.7956,3.7235,3.6874,3.6433,3.5925,3.5631,3.5645,3.5925,3.5819,3.6193,3.6941,3.7261,3.7595,3.7996,3.8397,3.8504,3.8437,3.8651,3.8718,3.87,3.8886,3.8953,3.8953,3.8953,3.8953,3.8953,3.8953,3.8953,3.8953,3.8953,3.902,3.902,3.8798,3.8886,3.902,3.8798,3.874,3.8886,3.9167,3.9372,3.9599,4.0067,4.0254,4.0361,4.0468,4.0481,4.0481,4.0481,4.0481,4.0481,4.0481,4.0481,4.0481,4.0481,4.0481,4.0481,4.0481,4.0481,4.0481,4.0481,4.0481,4.0481,4.0481,4.0294,4.004,3.9746,3.992,3.9893,3.9599,3.9786,3.9853,3.9746,3.992,4.0067,4.0174,4.0361,4.0214,2.8408,2.8397,2.8291,2.7931,3.0735,3.3456,3.2964,3.4482,3.5852,3.5349,3.4523,3.4095,3.4721,3.5551,0.0,0.0,0.0,0.0,0.0,0.0,0.0,0.0,0.0,0.0,0.0,0.0,0.0,0.0,0.0,0.0,0.0,3.8865,3.8584,3.8321,3.7676,3.7235,3.6885,3.6353,3.5925,3.5631,3.5338,3.5351,3.5631,3.5925,3.638,3.6885,3.7235,3.7716,3.8321,3.8321,3.8437,3.8718,3.8718,3.8718,3.8718,3.8718,3.8718,3.8718,3.8718,3.8718,3.8718,3.8718,3.8718,3.8718,3.8718,3.8886,3.902,3.8798,3.8886,3.902,3.8798,3.8886,3.9167,3.9533,3.9372,3.9353,4.0294,4.0254,4.0107,4.0462,4.0481,4.0481,4.0481,4.0481,4.0481,4.0481,4.0481,4.0481,4.0481,4.0481,4.0481,4.0481,4.0481,4.0481,4.0481,4.0481,4.0481,4.0481,4.0481,4.0334,4.004,3.9967,3.9893,3.9599,3.9599,3.9746,3.9967,3.9967,4.0187,4.0481,4.0481,4.0321,2.9584,2.8397,2.7731,3.0495,3.1622,3.2505,3.4356,3.5474,3.6202,3.6355,3.6219,3.6019,3.5992,3.7048,0.0,0.0,0.0,0.0,0.0,0.0,0.0,0.0,0.0,0.0,0.0,0.0,0.0,0.0,0.0,0.0,0.0,3.8036,3.7555,3.7048,3.6874,3.662,3.6326,3.5952,3.5712,3.5631,3.5338,3.5244,3.5324,3.5418,3.5778,3.6353,3.6647,3.6981,3.7382,3.7782,3.825,3.8718,3.8718,3.8718,3.8718,3.8718,3.8718,3.8718,3.8718,3.8718,3.8718,3.8718,3.8718,3.8718,3.8718,3.874,3.878,3.87,3.874,3.878,3.87,3.874,3.8972,3.9493,3.9533,3.9666,4.0334,4.0401,4.0361,4.0468,4.0481,4.0481,4.0481,4.0481,4.0481,4.0481,4.0481,4.0481,4.0481,4.0481,4.0481,4.0481,4.0481,4.0481,4.0481,4.0481,4.0481,4.0481,4.0481,4.0441,4.0361,4.0334,4.0294,4.0214,4.0214,4.0254,4.0334,4.0334,4.0401,4.0481,4.0481,4.0214,2.7783,2.691,2.6677,2.9461,3.0781,3.2119,3.4704,3.6269,3.734,3.7877,3.7702,3.7448,3.7382,3.8036,0.0,0.0,0.0,0.0,0.0,0.0,0.0,0.0,0.0,0.0,0.0,0.0,0.0,0.0,0.0,0.0,0.0,3.7275,3.6834,3.6353,3.6326,3.6193,3.5899,3.5712,3.5578,3.5458,3.5284,3.5191,3.5204,3.5311,3.5565,3.5925,3.6433,3.6834,3.7155,3.7742,3.821,3.8544,3.8691,3.8651,3.8544,3.8544,3.8464,3.8357,3.8357,3.8357,3.8357,3.8357,3.8357,3.8397,3.8504,3.8544,3.8584,3.8691,3.8718,3.8718,3.8718,3.8718,3.8865,3.9452,3.9599,3.9746,4.0361,4.0481,4.0481,4.0481,4.0481,4.0481,4.0481,4.0481,4.0481,4.0481,4.0481,4.0481,4.0481,4.0481,4.0481,4.0481,4.0481,4.0481,4.0481,4.0481,4.0481,4.0481,4.0481,4.0481,4.0481,4.0361,4.0361,4.0481,4.0361,4.0361,4.0481,4.0481,4.0481,4.0481,4.0481,4.0214,2.4641,2.488,2.5577,2.658,2.9383,3.2441,3.4601,3.6981,3.8905,3.9386,3.8945,3.8544,3.8798,3.8624,3.8789,0.0,0.0,0.0,0.0,0.0,0.0,0.0,0.0,0.0,0.0,0.0,0.0,0.0,0.0,0.0,0.0,3.658,3.6246,3.5965,3.5925,3.5778,3.5458,3.5458,3.5391,3.5151,3.5151,3.5177,3.5204,3.5471,3.5605,3.5672,3.6485,3.7048,3.7382,3.8026,3.8281,3.825,3.8544,3.8504,3.8281,3.8281,3.8036,3.7809,3.7809,3.7809,3.7809,3.7809,3.7809,3.7849,3.8143,3.8281,3.829,3.8584,3.8691,3.8691,3.866,3.8718,3.8865,3.9412,3.9559,3.9746,4.0334,4.0502,4.0481,4.0481,4.0481,4.0481,4.0481,4.0481,4.0481,4.0481,4.0481,4.0481,4.0481,4.0481,4.0481,4.0481,4.0481,4.0481,4.0481,4.0481,4.0481,4.0481,4.0481,4.0481,4.0481,4.0214,4.0214,4.0481,4.0214,4.0214,4.0481,4.0481,4.0481,4.0481,4.0441,4.0294,2.7634,2.6675,2.6187,2.9258,3.2353,3.5245,3.7105,3.833,3.8913,3.8624,3.9378,3.996,3.9773,3.9893,0.0,0.0,0.0,0.0,0.0,0.0,0.0,0.0,0.0,0.0,0.0,0.0,0.0,0.0,0.0,0.0,3.662,3.5885,3.5351,3.511,3.4817,3.467,3.4603,3.4603,3.4683,0.0,3.4909,3.4977,3.5204,3.5257,3.5418,3.5672,3.6313,3.6754,3.7032,3.7676,3.7929,3.7929,3.825,3.8183,3.7929,3.7929,3.7849,3.7809,3.7809,3.7809,3.7809,3.7809,3.7809,3.7809,3.7889,3.7929,3.7969,3.8321,3.837,3.8397,3.8651,3.8718,3.8798,3.9159,3.9412,3.9706,4.004,4.0321,4.0481,4.0481,4.0481,4.0481,4.0481,4.0481,4.0481,4.0481,4.0481,4.0481,4.0481,4.0481,4.0481,4.0481,4.0481,4.0481,4.0481,4.0481,4.0481,4.0481,4.0481,4.0481,4.0481,4.0401,4.0401,4.0481,4.0401,4.0401,4.0481,4.0481,4.0481,4.0481,4.0254,3.996,2.7005,2.7034,2.7973,3.1165,3.3805,3.5979,3.7315,3.8259,3.8846,3.8731,3.9533,4.0254,4.0254,4.0361,0.0,0.0,0.0,0.0,0.0,0.0,0.0,0.0,0.0,0.0,0.0,0.0,0.0,0.0,0.0,3.6246,3.6099,3.5391,3.4923,3.4815,3.4469,3.4322,3.4322,3.4322,3.4402,3.4549,3.4549,3.4629,3.479,3.507,3.5284,3.5458,3.6046,3.6473,3.6739,3.7382,3.7595,3.7635,3.7929,3.7863,3.7595,3.7595,3.7529,3.7352,3.7352,3.7352,3.7352,3.7352,3.7352,3.7408,3.7555,3.7595,3.7702,3.8143,3.8321,3.8388,3.8651,3.8718,3.8758,3.8905,3.9159,3.9452,3.9714,4.0067,4.0254,4.0254,4.0361,4.0481,4.0481,4.0481,4.0481,4.0481,4.0481,4.0481,4.0481,4.0481,4.0481,4.0481,4.0481,4.0481,4.0481,4.0481,4.0481,4.0481,4.0481,4.0481,4.0481,4.0481,4.0481,4.0481,4.0481,4.0481,4.0481,4.0481,4.0481,4.0481,4.0321,4.0147,2.5511,2.7011,2.9711,3.2273,3.4282,3.5792,3.6632,3.7702,3.8584,3.8886,3.946,4.004,4.0294,0.0,0.0,0.0,0.0,0.0,0.0,0.0,0.0,0.0,0.0,0.0,0.0,0.0,0.0,0.0,0.0,3.5551,3.5551,3.5004,3.467,3.4668,3.4322,3.4162,3.4162,3.4162,3.4189,3.4242,3.4295,3.4295,3.4269,3.4803,3.507,3.5151,3.5738,3.6166,3.6473,3.7048,3.7275,3.7275,3.7555,3.7448,3.7168,3.7168,3.7008,3.6794,3.6834,3.6805,3.6861,3.6885,3.6885,3.6981,3.7235,3.7301,3.7422,3.8067,3.8183,3.8321,3.8624,3.8718,3.8718,3.8718,3.8846,3.91,3.9452,3.9786,3.9967,3.9967,4.0254,4.0481,4.0481,4.0481,4.0481,4.0481,4.0481,4.0481,4.0481,4.0481,4.0481,4.0481,4.0481,4.0481,4.0481,4.0481,4.0481,4.0481,4.0481,4.0481,4.0481,4.0481,4.0481,4.0481,4.0481,4.0481,4.0481,4.0481,4.0481,4.0481,4.0441,4.0401,2.6431,2.7809,2.9943,3.2107,3.4122,3.5792,3.6433,3.7088,3.7716,0.0,3.9052,3.9666,0.0,0.0,0.0,0.0,0.0,0.0,0.0,0.0,0.0,0.0,0.0,0.0,0.0,0.0,0.0,0.0,3.5979,3.5525,3.5271,3.4696,3.4269,3.4015,3.3694,3.3534,3.3534,3.3534,3.3668,3.3948,3.4202,3.4189,3.3961,3.4282,3.4576,3.4909,3.5431,3.5859,3.6179,3.6754,3.6834,3.6647,3.6941,3.6727,3.6246,3.6246,3.6274,3.6219,3.6473,3.658,3.6607,3.6805,3.6885,3.6885,3.6981,3.6952,3.7059,3.7702,3.7889,3.7996,3.8571,3.8718,3.8718,3.8718,3.8758,3.8806,3.91,3.964,3.9967,3.9967,4.0254,4.0481,4.0481,4.0481,4.0481,4.0481,4.0481,4.0481,4.0481,4.0481,4.0481,4.0481,4.0481,4.0481,4.0481,4.0481,4.0481,4.0481,4.0481,4.0481,4.0481,4.0481,4.0481,4.0481,4.0481,4.0481,4.0481,4.0481,4.0481,4.0481,4.0214,4.0047,2.8839,2.8608,2.8981,3.1872,3.3397,3.4429,3.5525,3.6233,3.6767,3.7195,3.7702,3.8259,0.0,0.0,0.0,0.0,0.0,0.0,0.0,0.0,0.0,0.0,0.0,0.0,0.0,0.0,0.0,0.0,3.5378,3.5017,3.4723,3.4309,3.4015,3.3895,3.3574,3.3414,3.3414,3.3414,3.348,3.3627,3.3748,3.3748,3.3627,3.3935,3.4242,3.4549,3.5137,3.5551,3.5859,3.6286,3.638,3.6273,3.6393,3.6299,3.6072,3.6072,3.6072,3.614,3.6219,3.6366,3.654,3.6647,3.6794,3.6885,3.6885,3.6885,3.7008,3.7448,3.7569,3.7702,3.829,3.8477,3.8504,3.8691,3.8718,3.8758,3.8846,3.9167,3.9567,3.99,4.0254,4.0481,4.0481,4.0481,4.0481,4.0481,4.0481,4.0481,4.0481,4.0481,4.0481,4.0481,4.0481,4.0481,4.0481,4.0481,4.0481,4.0481,4.0481,4.0481,4.0481,4.0481,4.0481,4.0481,4.0481,4.0481,4.0481,4.0481,4.0481,4.0481,4.0334,4.0294,2.9558,2.8391,2.759,3.06,3.2086,3.3066,3.4255,3.5097,3.5712,0.0,3.6299,3.6739,0.0,0.0,0.0,0.0,0.0,0.0,0.0,0.0,0.0,0.0,0.0,0.0,0.0,0.0,0.0,0.0,3.4776,3.4523,3.4229,3.4002,3.3855,3.3774,3.3534,3.3414,3.3414,3.3414,3.3414,3.3414,3.3334,3.3307,3.3307,3.3547,3.3814,3.4122,3.479,3.5244,3.5538,3.5832,3.5965,3.5965,3.5965,3.5912,3.5845,3.5845,3.5845,3.5859,3.5939,3.6153,3.6393,3.6473,3.6687,3.6885,3.6885,3.6885,3.6952,3.7382,3.7489,3.7635,3.8281,3.8428,3.8437,3.8651,3.8718,3.87,3.8766,3.9052,3.9353,3.992,4.0254,4.0481,4.0481,4.0481,4.0481,4.0481,4.0481,4.0481,4.0481,4.0481,4.0481,4.0481,4.0481,4.0481,4.0481,4.0481,4.0481,4.0481,4.0481,4.0481,4.0481,4.0481,4.0481,4.0481,4.0481,4.0481,4.0481,4.0481,4.0481,4.0481,4.0481,4.0481,2.6808,2.6452,2.5985,2.7562,3.0074,3.2238,3.2648,3.3574,3.4496,3.4842,3.5084,0.0,0.0,0.0,0.0,0.0,0.0,0.0,0.0,0.0,0.0,0.0,0.0,0.0,0.0,0.0,0.0,0.0,3.4349,3.4215,3.3921,3.3895,3.3748,3.344,3.3414,3.3414,3.3414,3.3414,3.3414,3.3414,3.3133,3.3,3.3,3.3013,3.3187,3.3507,3.4402,3.495,3.5244,3.5538,3.5658,3.5658,3.5658,3.5485,3.5244,3.5244,3.5244,3.5284,3.5551,3.5845,3.6139,3.6433,3.6687,3.6885,3.6885,3.6885,3.6992,3.7635,3.7782,3.7929,3.8544,3.8691,3.8691,3.8718,3.8718,3.8798,3.902,3.9313,3.9666,3.996,4.0254,4.0481,4.0481,4.0481,4.0481,4.0481,4.0481,4.0481,4.0481,4.0481,4.0481,4.0481,4.0481,4.0481,4.0481,4.0481,4.0481,4.0481,4.0481,4.0481,4.0481,4.0481,4.0481,4.0481,4.0481,4.0481,4.0481,4.0481,4.0481,4.0481,4.0481,4.0481,2.6013,2.4974,2.4102,2.6533,2.8217,2.9606,3.0908,3.2246,3.3263,3.337,3.4028,0.0,0.0,0.0,0.0,0.0,0.0,0.0,0.0,0.0,0.0,0.0,0.0,0.0,0.0,0.0,0.0,0.0,0.0,3.3908,3.3601,3.3587,3.3534,3.3414,3.3414,3.3414,3.3414,3.3414,3.332,3.3133,3.3026,3.2929,3.2755,3.2942,3.304,3.3173,3.3895,3.4469,3.4937,3.5231,3.5351,3.5351,3.5351,3.5284,3.5191,3.5191,3.5191,3.5204,3.5311,3.5538,3.5832,3.6126,3.6433,3.6687,3.6874,3.6885,3.7008,3.7422,3.7408,3.7392,3.8223,3.829,3.8193,3.8611,3.8718,3.8798,3.902,3.9372,3.964,3.9746,4.0147,4.0481,4.0481,4.0481,4.0481,4.0481,4.0481,4.0481,4.0481,4.0481,4.0481,4.0481,4.0481,4.0481,4.0481,4.0481,4.0481,4.0481,4.0481,4.0481,4.0481,4.0481,4.0481,4.0481,4.0481,4.0481,4.0481,4.0481,4.0481,4.0481,4.0481,4.0481,2.4722,2.3563,2.2913,2.5571,2.6533,2.7415,2.9686,3.0808,3.1617,3.23,3.3106,0.0,0.0,0.0,0.0,0.0,0.0,0.0,0.0,0.0,0.0,0.0,0.0,0.0,0.0,0.0,0.0,0.0,0.0,0.0,3.3427,3.3414,3.3414,3.3414,3.3414,3.336,3.3267,3.3267,3.312,3.2875,3.2732,3.2585,3.246,3.2599,3.2732,3.2915,3.3467,3.4015,3.4548,3.4776,3.4897,3.491,3.5017,3.5057,3.5057,3.5164,3.5191,3.5191,3.5191,3.5391,3.5672,3.5979,3.6273,3.658,3.6805,3.6885,3.6952,3.7301,3.7235,3.7235,3.7929,3.8036,3.8103,3.8553,3.8718,3.8798,3.902,3.9372,3.964,3.9746,4.0147,4.0481,4.0481,4.0481,4.0481,4.0481,4.0481,4.0481,4.0481,4.0481,4.0481,4.0481,4.0481,4.0481,4.0481,4.0481,4.0481,4.0481,4.0481,4.0481,4.0481,4.0481,4.0481,4.0481,4.0481,4.0481,4.0481,4.0481,4.0481,4.0481,4.0481,4.0481,0.0,0.0,0.0,2.4512,2.5034,2.5852,2.9032,0.0,2.9482,3.1583,3.23,0.0,0.0,0.0,0.0,0.0,0.0,0.0,0.0,0.0,0.0,0.0,0.0,0.0,0.0,0.0,0.0,0.0,3.3414,3.3414,3.3414,3.34,3.34,3.34,3.34,3.3267,3.2986,3.2973,3.2875,3.2581,3.2238,3.2104,3.2091,3.2104,3.2278,3.2621,3.316,3.3587,3.3895,3.4202,3.4322,3.4362,3.4656,3.4815,3.4869,3.5097,3.5191,3.5191,3.5191,3.5378,3.5672,3.5979,3.6259,3.654,3.6834,3.6885,3.6952,3.7301,3.7382,3.7448,3.7742,3.8036,3.8388,3.8651,3.866,3.8798,3.906,3.9372,3.9666,3.996,4.0254,4.0481,4.0481,4.0481,4.0481,4.0481,4.0481,4.0481,4.0481,4.0481,4.0481,4.0481,4.0481,4.0481,4.0481,4.0481,4.0481,4.0481,4.0481,4.0481,4.0481,4.0481,4.0481,4.0481,4.0481,4.0481,4.0481,4.0481,4.0481,4.0481,4.0481,4.0481,2.2913,0.0,0.0,0.0,0.0,0.0,0.0,0.0,2.7335,2.9192,3.036,0.0,0.0,0.0,0.0,0.0,0.0,0.0,0.0,0.0,0.0,0.0,0.0,0.0,0.0,0.0,0.0,0.0,3.3414,3.3414,3.3414,3.3213,3.3093,3.3093,3.3093,3.3066,3.2973,3.2973,3.2719,3.2225,3.2144,3.1998,3.1845,3.2273,3.2514,3.2621,3.316,3.3467,3.3587,3.4108,3.4442,3.4643,3.4788,3.4949,3.5084,3.5164,3.5191,3.5191,3.5191,3.5244,3.5404,3.5912,3.6126,3.6286,3.6739,3.6885,3.6952,3.7301,3.7235,3.7139,3.7676,3.8036,3.8388,3.8651,3.8544,3.8584,3.9306,3.9313,3.9412,3.992,4.0254,4.0401,4.0187,4.0334,4.0401,4.0187,4.0334,4.0481,4.0481,4.0481,4.0481,4.0481,4.0481,4.0481,4.0481,4.0481,4.0481,4.0481,4.0481,4.0481,4.0481,4.0481,4.0481,4.0481,4.0481,4.0481,4.0481,4.0481,4.0481,4.0481,4.0481,4.0481,0.0,0.0,0.0,0.0,0.0,0.0,2.4382,2.4836,2.5464,0.0,0.0,0.0,0.0,0.0,0.0,0.0,0.0,0.0,0.0,0.0,0.0,0.0,0.0,0.0,0.0,3.2946,3.3053,3.3053,3.3053,3.3053,3.3053,3.2942,3.2848,3.2848,3.2848,3.2795,3.2612,3.2612,3.2318,3.1744,3.1864,3.177,3.1503,3.2139,3.2474,3.2621,3.3026,3.3293,3.344,3.3788,3.4042,3.4229,3.4482,3.4683,3.4857,3.511,3.5191,3.5191,3.5191,3.5191,3.5271,3.5738,3.5885,3.5992,3.658,3.6754,3.6779,3.7128,3.7032,3.7032,3.7662,3.7929,3.8183,3.8611,3.8584,3.8624,3.9265,3.9265,3.9273,3.986,4.0067,4.004,3.9893,4.0107,4.0214,4.0007,4.0294,4.0481,4.0481,4.0481,4.0481,4.0481,4.0481,4.0481,4.0481,4.0481,4.0481,4.0481,4.0481,4.0481,4.0481,4.0481,4.0481,4.0481,4.0481,4.0481,4.0481,4.0481,4.0481,4.0481,4.0481,4.0481,0.0,0.0,0.0,0.0,0.0,0.0,2.4165,2.3981,2.4008,0.0,0.0,0.0,0.0,0.0,0.0,0.0,0.0,0.0,0.0,0.0,0.0,0.0,0.0,0.0,3.25,3.2554,3.2594,3.2594,3.2594,3.2581,3.2541,3.2541,3.2541,3.2541,3.2541,3.242,3.2104,3.2064,3.177,3.1176,3.149,3.1476,3.1203,3.1864,3.234,3.2607,3.2942,3.3173,3.3414,3.3414,3.3427,3.3521,3.4055,3.4309,3.4429,3.495,3.5164,3.5191,3.5191,3.5191,3.5244,3.5538,3.5578,3.5685,3.6326,3.6473,3.6513,3.6794,3.6901,3.7032,3.7662,3.7809,3.7956,3.8584,3.8691,3.8758,3.902,3.906,3.9207,3.9813,3.9746,3.9599,3.9559,3.9813,3.9967,3.994,4.0254,4.0481,4.0481,4.0481,4.0481,4.0481,4.0481,4.0481,4.0481,4.0481,4.0481,4.0481,4.0481,4.0481,4.0481,4.0481,4.0481,4.0481,4.0481,4.0481,4.0481,4.0481,4.0481,4.0481,4.0481,4.0481,0.0,0.0,0.0,0.0,0.0,0.0,2.2412,2.2806,2.3572,0.0,0.0,0.0,0.0,0.0,0.0,0.0,0.0,0.0,0.0,0.0,0.0,0.0,0.0,0.0,3.1938,3.2313,3.2594,3.2594,3.2594,3.2487,3.2198,3.2185,3.2185,3.2185,3.2185,3.2158,3.2104,3.1877,3.157,3.1176,3.1289,3.1276,3.1203,3.2078,3.2541,3.2621,3.3106,3.336,3.3414,3.3414,3.3561,3.3801,3.3921,3.4255,3.4748,3.4803,3.499,3.5191,3.5191,3.5191,3.5244,3.5538,3.5578,3.5685,3.6326,3.634,3.6219,3.65,3.6754,3.7032,3.7662,3.7809,3.7956,3.8584,3.8544,3.8504,3.8993,3.8913,3.8905,3.9207,3.9433,3.9519,3.9265,3.9666,3.99,3.9706,4.0147,4.0481,4.0481,4.0481,4.0481,4.0481,4.0481,4.0481,4.0481,4.0481,4.0481,4.0481,4.0481,4.0481,4.0481,4.0481,4.0481,4.0481,4.0481,4.0481,4.0481,4.0481,4.0481,4.0481,4.0481,4.0481,0.0,0.0,0.0,2.1724,0.0,0.0,0.0,2.2111,2.2472,2.3354,2.3888,0.0,0.0,0.0,0.0,0.0,0.0,0.0,0.0,0.0,0.0,0.0,0.0,0.0,3.1069,3.1323,3.1564,3.1711,3.1724,3.161,3.1463,3.1583,3.1597,3.145,3.1583,3.1597,3.145,3.1303,3.1089,3.0795,3.1089,3.1156,3.1049,3.2126,3.2594,3.2621,3.316,3.3414,3.3414,3.3414,3.3507,3.3668,3.3828,3.4068,3.4362,3.4656,3.4857,3.499,3.5151,3.5191,3.5217,3.5364,3.5418,3.5525,3.6112,3.6393,3.65,3.65,3.6672,3.6992,3.7489,3.7702,3.7929,3.8397,3.8477,3.8584,3.8865,3.8766,3.8758,3.8846,3.9052,3.9118,3.8913,3.9247,3.95,3.9353,3.9893,4.0254,4.0254,4.0401,4.0481,4.0481,4.0481,4.0481,4.0481,4.0481,4.0481,4.0481,4.0481,4.0481,4.0481,4.0481,4.0481,4.0481,4.0481,4.0481,4.0481,4.0481,4.0481,4.0481,4.0481,4.0481,0.0,0.0,0.0,0.0,0.0,2.1991,0.0,0.0,0.0,2.2492,0.0,0.0,0.0,0.0,0.0,0.0,0.0,0.0,0.0,0.0,0.0,0.0,0.0,0.0,3.0199,3.0239,3.036,3.0608,3.0568,3.0595,3.0702,3.0929,3.0982,3.0795,3.1022,3.1036,3.0795,3.0742,3.0595,3.0413,3.0889,3.1022,3.0835,3.1992,3.2514,3.2541,3.308,3.3334,3.3334,3.3387,3.3414,3.344,3.3694,3.3828,3.3948,3.4417,3.4658,3.4751,3.5097,3.5191,3.5191,3.5191,3.5231,3.5351,3.5778,3.6313,3.6727,3.65,3.662,3.6941,3.7342,3.7635,3.7889,3.8321,3.8544,3.8718,3.8718,3.8718,3.8718,3.8718,3.8718,3.8718,3.8718,3.8913,3.91,3.91,3.9607,3.9967,3.9967,4.0294,4.0481,4.0481,4.0481,4.0481,4.0481,4.0481,4.0481,4.0481,4.0481,4.0481,4.0481,4.0481,4.0481,4.0481,4.0481,4.0481,4.0481,4.0481,4.0481,4.0481,4.0481,4.0481,0.0,0.0,0.0,0.0,2.3527,0.0,0.0,0.0,2.2806,2.193,0.0,0.0,0.0,0.0,0.0,0.0,0.0,0.0,0.0,0.0,0.0,0.0,0.0,0.0,0.0,2.9579,2.97,2.9993,2.978,2.986,3.0426,3.048,3.0614,3.0782,3.0822,3.0822,3.0795,3.0587,3.044,3.0413,3.0688,3.0822,3.0822,3.173,3.2158,3.2185,3.2772,3.3026,3.3053,3.3307,3.3414,3.3414,3.3454,3.3641,3.3921,3.4255,3.4536,3.4803,3.5097,3.5191,3.5191,3.5191,3.5364,3.5538,3.5351,3.5712,3.6166,3.6126,3.6326,3.6754,3.7555,3.7782,3.7956,3.8544,3.8691,3.8718,3.8718,3.8718,3.8718,3.8718,3.8718,3.8718,3.8718,3.8913,3.91,3.91,3.9607,3.9967,3.9967,4.0294,4.0481,4.0481,4.0481,4.0481,4.0481,4.0481,4.0481,4.0481,4.0481,4.0481,4.0481,4.0481,4.0481,4.0481,4.0481,4.0481,4.0481,4.0481,4.0481,4.0481,4.0481,4.0481,0.0,0.0,0.0,0.0,0.0,0.0,0.0,0.0,2.1951,0.0,0.0,0.0,0.0,0.0,0.0,0.0,0.0,0.0,0.0,0.0,0.0,0.0,0.0,0.0,0.0,0.0,0.0,0.0,2.862,2.8781,2.8804,2.9517,2.9958,3.0034,3.0194,3.0287,3.0287,3.0167,3.01,3.0114,3.0568,3.0795,3.0822,3.1704,3.2104,3.2118,3.2545,3.2875,3.2986,3.3106,3.3253,3.3414,3.3414,3.3494,3.3668,3.4148,3.4402,3.4576,3.503,3.5191,3.5191,3.5191,3.5391,3.5578,3.5284,3.5605,3.6072,3.6072,3.6286,3.662,3.7155,3.7555,3.7889,3.8143,3.8464,3.8718,3.8718,3.8718,3.8718,3.8718,3.8718,3.8718,3.8718,3.8766,3.8846,3.8846,3.9207,3.954,3.9746,4.004,4.0294,4.0468,4.0481,4.0481,4.0481,4.0481,4.0481,4.0481,4.0481,4.0481,4.0481,4.0481,4.0481,4.0481,4.0481,4.0481,4.0481,4.0481,4.0481,4.0481,4.0481,4.0481,2.3174,0.0,0.0,0.0,0.0,0.0,0.0,0.0,0.0,0.0,0.0,0.0,0.0,0.0,0.0,0.0,0.0,0.0,0.0,0.0,0.0,0.0,0.0,0.0,0.0,0.0,0.0,2.7081,2.7242,2.7429,2.7562,2.8404,2.9032,2.9352,2.9646,2.9793,2.9793,2.9873,2.9913,2.9927,3.0434,3.0675,3.0702,3.1503,3.1864,3.1877,3.2313,3.2634,3.2915,3.2946,3.3146,3.3414,3.3414,3.3414,3.348,3.4095,3.4322,3.4402,3.499,3.5191,3.5191,3.5191,3.5338,3.5471,3.5257,3.5551,3.5965,3.6046,3.6286,3.658,3.6925,3.7392,3.7793,3.7929,3.833,3.8718,3.8718,3.8718,3.8718,3.8718,3.8718,3.8718,3.8718,3.8718,3.8718,3.8718,3.8913,3.9207,3.9559,3.9853,4.0147,4.0441,4.0481,4.0481,4.0481,4.0481,4.0481,4.0481,4.0481,4.0481,4.0481,4.0481,4.0481,4.0481,4.0481,4.0481,4.0481,4.0481,4.0481,4.0481,4.0481,4.0481,0.0,0.0,0.0,2.3415,0.0,0.0,0.0,0.0,2.2679,0.0,0.0,0.0,0.0,0.0,0.0,0.0,0.0,0.0,0.0,0.0,0.0,0.0,0.0,0.0,0.0,0.0,2.6172,2.64,2.569,2.5837,2.7242,2.7362,2.7869,2.8975,2.9339,2.9499,2.9499,2.978,2.9913,2.9913,3.0266,3.0426,3.044,3.0982,3.1203,3.1243,3.1864,3.2326,3.2634,3.2915,3.3146,3.3414,3.3414,3.3414,3.348,3.4095,3.4322,3.4402,3.499,3.5191,3.5191,3.5191,3.5204,3.5204,3.5204,3.5404,3.5698,3.5992,3.6286,3.6647,3.7235,3.7595,3.7889,3.8183,3.8477,3.8718,3.8718,3.8718,3.8718,3.8718,3.8718,3.8718,3.8718,3.8718,3.8718,3.8718,3.8913,3.9207,3.9559,3.9853,4.0147,4.0441,4.0481,4.0481,4.0481,4.0481,4.0481,4.0481,4.0481,4.0481,4.0481,4.0481,4.0481,4.0481,4.0481,4.0481,4.0481,4.0481,4.0481,4.0481,4.0481,4.0481,0.0,0.0,2.6079,2.4222,0.0,0.0,0.0,0.0,0.0,0.0,0.0,0.0,0.0,0.0,0.0,0.0,0.0,0.0,0.0,0.0,0.0,0.0,0.0,0.0,0.0,0.0,0.0,2.4369,2.4275,2.4596,2.5478,2.644,2.7335,2.8123,2.8831,2.9285,2.9486,2.9766,2.9913,2.9913,3.0221,3.0507,3.0662,3.1049,3.133,3.1543,3.1931,3.2278,3.2621,3.2915,3.3146,3.3414,3.3414,3.3414,3.3467,3.3881,3.4148,3.4402,3.499,3.5191,3.5191,3.5191,3.5191,3.5191,3.5191,3.5271,3.5444,3.5939,3.6139,3.6353,3.6941,3.7301,3.7595,3.7889,3.8036,3.821,3.8593,3.8544,3.8477,3.8691,3.8718,3.8718,3.8718,3.8718,3.8718,3.8718,3.8798,3.8993,3.9533,3.968,3.9933,4.0441,4.0481,4.0481,4.0481,4.0294,4.0254,4.0481,4.0294,4.0254,4.0481,4.0481,4.0481,4.0481,4.0481,4.0481,4.0481,4.0294,4.0187,4.0174,4.0,4.0,2.4653,2.5558,0.0,2.4716,2.4583,0.0,2.2706,0.0,0.0,0.0,0.0,0.0,0.0,0.0,0.0,0.0,0.0,0.0,0.0,0.0,0.0,0.0,0.0,0.0,0.0,0.0,2.3166,2.2873,2.296,2.3362,0.0,0.0,2.656,2.7362,2.8414,2.9081,2.9325,2.9726,2.9913,2.9913,3.0114,3.04,3.0648,3.0942,3.1236,3.153,3.1824,3.2219,3.2607,3.2795,3.3053,3.3414,3.3414,3.3414,3.3467,3.3881,3.4295,3.4683,3.507,3.5191,3.5191,3.5191,3.5191,3.5191,3.5191,3.5191,3.5338,3.6032,3.6072,3.6099,3.6901,3.7155,3.7301,3.7595,3.7742,3.7929,3.8317,3.833,3.833,3.8504,3.8651,3.8718,3.8718,3.8718,3.8718,3.8718,3.8718,3.8846,3.9372,3.9393,3.9666,4.0254,4.0321,4.0321,4.0321,4.0147,4.0107,4.0294,4.0254,4.0294,4.0481,4.0481,4.0716,4.1096,4.0695,4.0695,4.1096,4.034,3.9967,3.9967,3.9746,3.964]},{"header":{"parameterUnit":"m.s-1","parameterCategory":1,"la1":30.6,"la2":29.2853,"lo1":-89.7004,"lo2":-87.6739,"dy":0.0162,"dx":0.0183,"nx":112,"ny":82,"refTime":"2023-04-09T00:00:00:Z","depth":0,"parameterNumber":3,"parameterNumberName":"V-component_of_WINDS"},"data":[0.0,0.0,0.0,0.0,0.0,0.0,0.0,0.0,0.0,0.0,0.0,0.0,0.0,0.0,0.0,0.0,0.0,0.0,0.0,0.0,0.0,0.0,0.0,0.0,0.0,0.0,0.0,0.0,0.0,0.0,0.0,0.0,0.0,0.0,0.0,0.0,0.0,0.0,0.0,0.0,0.0,0.0,0.0,0.0,0.0,0.0,0.0,0.0,0.0,0.0,0.0,0.0,0.0,0.0,0.0,0.0,0.0,0.0,0.0,0.0,0.0,0.0,0.0,0.0,0.0,0.0,0.0,0.0,0.0,0.0,0.0,0.0,0.0,0.0,0.0,0.0,0.0,0.0,0.0,0.0,0.0,0.0,0.0,0.0,0.0,0.0,0.0,0.0,0.0,0.0,0.0,5.7848,6.6115,7.0804,6.9553,6.8199,6.4478,5.7577,0.0,0.0,0.0,0.0,0.0,0.0,0.0,0.0,0.0,0.0,0.0,0.0,0.0,0.0,0.0,0.0,0.0,0.0,0.0,0.0,0.0,0.0,0.0,0.0,0.0,0.0,0.0,0.0,0.0,0.0,0.0,0.0,0.0,0.0,0.0,0.0,0.0,0.0,0.0,0.0,0.0,0.0,0.0,0.0,0.0,0.0,0.0,0.0,0.0,0.0,0.0,0.0,0.0,0.0,0.0,0.0,0.0,0.0,0.0,0.0,0.0,0.0,0.0,0.0,0.0,0.0,0.0,0.0,0.0,0.0,0.0,0.0,0.0,0.0,0.0,0.0,0.0,0.0,0.0,0.0,0.0,0.0,0.0,0.0,0.0,0.0,0.0,0.0,0.0,0.0,0.0,0.0,0.0,0.0,0.0,0.0,0.0,0.0,0.0,0.0,0.0,0.0,0.0,0.0,5.5513,6.4343,6.8888,7.1188,7.1007,6.7354,6.326,5.8945,0.0,0.0,0.0,0.0,0.0,0.0,0.0,0.0,0.0,0.0,0.0,0.0,0.0,0.0,0.0,0.0,0.0,0.0,0.0,0.0,0.0,0.0,0.0,0.0,0.0,0.0,0.0,0.0,0.0,0.0,0.0,0.0,0.0,0.0,0.0,0.0,0.0,0.0,0.0,0.0,0.0,0.0,0.0,0.0,0.0,0.0,0.0,0.0,0.0,0.0,0.0,0.0,0.0,0.0,0.0,0.0,0.0,0.0,0.0,0.0,0.0,0.0,0.0,0.0,0.0,0.0,0.0,0.0,0.0,0.0,0.0,0.0,0.0,0.0,0.0,0.0,0.0,0.0,0.0,0.0,0.0,0.0,0.0,0.0,0.0,0.0,0.0,0.0,0.0,0.0,0.0,0.0,0.0,0.0,0.0,0.0,0.0,0.0,0.0,0.0,0.0,0.0,0.0,5.4431,5.9047,6.7184,7.0004,7.1289,7.1289,6.7557,6.3599,5.9844,5.5683,0.0,0.0,0.0,0.0,0.0,0.0,0.0,0.0,0.0,0.0,0.0,0.0,0.0,0.0,0.0,0.0,0.0,0.0,0.0,0.0,0.0,0.0,0.0,0.0,0.0,0.0,0.0,0.0,0.0,0.0,0.0,0.0,0.0,0.0,0.0,0.0,0.0,0.0,0.0,0.0,0.0,0.0,0.0,0.0,0.0,0.0,0.0,0.0,0.0,0.0,0.0,0.0,0.0,0.0,0.0,0.0,0.0,0.0,0.0,0.0,0.0,0.0,0.0,0.0,0.0,0.0,0.0,0.0,0.0,0.0,0.0,0.0,0.0,0.0,0.0,0.0,0.0,0.0,0.0,0.0,0.0,0.0,0.0,0.0,0.0,0.0,0.0,0.0,0.0,0.0,0.0,0.0,0.0,0.0,0.0,0.0,0.0,0.0,0.0,0.0,0.0,0.0,5.9438,6.2699,6.8944,7.0804,7.1515,7.1289,6.7692,6.3903,6.0317,5.5209,0.0,0.0,0.0,0.0,0.0,0.0,0.0,0.0,0.0,0.0,0.0,0.0,0.0,0.0,0.0,0.0,0.0,0.0,0.0,0.0,0.0,0.0,0.0,0.0,0.0,0.0,0.0,0.0,0.0,0.0,0.0,0.0,0.0,0.0,0.0,0.0,0.0,0.0,0.0,0.0,0.0,0.0,0.0,0.0,0.0,0.0,0.0,0.0,0.0,0.0,0.0,0.0,0.0,0.0,0.0,0.0,0.0,0.0,0.0,0.0,0.0,0.0,0.0,0.0,0.0,0.0,0.0,0.0,0.0,0.0,0.0,0.0,0.0,0.0,0.0,0.0,0.0,0.0,0.0,0.0,0.0,0.0,0.0,0.0,0.0,0.0,0.0,0.0,0.0,0.0,0.0,0.0,0.0,0.0,0.0,0.0,0.0,0.0,0.0,0.0,0.0,0.0,6.2009,6.6,7.0647,7.1853,7.2056,7.1357,6.7252,6.3362,6.0283,5.526,0.0,0.0,0.0,0.0,0.0,0.0,0.0,0.0,0.0,0.0,0.0,0.0,0.0,0.0,0.0,0.0,0.0,0.0,0.0,0.0,0.0,0.0,0.0,0.0,0.0,0.0,0.0,0.0,0.0,0.0,0.0,0.0,0.0,0.0,0.0,0.0,0.0,0.0,0.0,0.0,0.0,0.0,0.0,0.0,0.0,0.0,0.0,0.0,0.0,0.0,0.0,0.0,0.0,0.0,0.0,0.0,0.0,0.0,0.0,0.0,0.0,0.0,0.0,0.0,0.0,0.0,0.0,0.0,0.0,0.0,0.0,0.0,0.0,0.0,0.0,0.0,0.0,0.0,0.0,0.0,0.0,0.0,0.0,0.0,0.0,0.0,0.0,0.0,0.0,0.0,0.0,0.0,0.0,0.0,0.0,0.0,0.0,0.0,0.0,0.0,0.0,0.0,6.2279,6.6508,0.0,7.2225,7.2293,7.2022,6.7861,6.3802,6.0317,0.0,0.0,0.0,0.0,0.0,0.0,0.0,0.0,0.0,0.0,0.0,0.0,0.0,0.0,0.0,0.0,0.0,0.0,0.0,0.0,0.0,0.0,0.0,0.0,0.0,0.0,0.0,0.0,0.0,0.0,0.0,0.0,0.0,0.0,0.0,0.0,0.0,0.0,0.0,0.0,0.0,0.0,0.0,0.0,0.0,0.0,0.0,0.0,0.0,0.0,0.0,0.0,0.0,0.0,0.0,0.0,0.0,0.0,0.0,0.0,0.0,0.0,0.0,0.0,0.0,0.0,0.0,0.0,0.0,0.0,0.0,0.0,0.0,0.0,0.0,0.0,0.0,0.0,0.0,0.0,0.0,0.0,0.0,0.0,0.0,0.0,0.0,0.0,0.0,0.0,0.0,0.0,0.0,0.0,0.0,0.0,0.0,0.0,0.0,0.0,0.0,0.0,5.8743,6.326,6.759,0.0,7.2462,7.2563,7.209,6.7489,6.3463,6.0655,0.0,0.0,0.0,0.0,0.0,0.0,0.0,0.0,0.0,0.0,0.0,0.0,0.0,0.0,0.0,0.0,0.0,0.0,0.0,0.0,0.0,0.0,0.0,0.0,0.0,0.0,0.0,0.0,0.0,0.0,0.0,0.0,0.0,0.0,0.0,0.0,0.0,0.0,0.0,0.0,0.0,0.0,0.0,0.0,0.0,0.0,0.0,0.0,0.0,0.0,0.0,0.0,0.0,0.0,0.0,0.0,0.0,0.0,0.0,0.0,0.0,0.0,0.0,0.0,0.0,0.0,0.0,0.0,0.0,0.0,0.0,0.0,0.0,0.0,0.0,0.0,0.0,0.0,0.0,0.0,0.0,0.0,0.0,0.0,0.0,0.0,0.0,0.0,0.0,0.0,0.0,0.0,0.0,0.0,0.0,0.0,0.0,0.0,0.0,0.0,0.0,0.0,5.9641,6.5392,6.9688,7.1154,7.2631,7.2902,7.1424,6.5831,6.2076,0.0,0.0,0.0,0.0,0.0,0.0,0.0,0.0,0.0,0.0,0.0,0.0,0.0,0.0,0.0,0.0,0.0,0.0,0.0,0.0,0.0,0.0,0.0,0.0,0.0,0.0,0.0,0.0,0.0,0.0,0.0,0.0,0.0,0.0,0.0,0.0,0.0,0.0,0.0,0.0,0.0,0.0,0.0,0.0,0.0,0.0,0.0,0.0,0.0,0.0,0.0,0.0,0.0,0.0,0.0,0.0,0.0,0.0,0.0,0.0,0.0,0.0,0.0,0.0,0.0,0.0,0.0,0.0,0.0,0.0,0.0,0.0,0.0,0.0,0.0,0.0,0.0,0.0,0.0,0.0,0.0,0.0,0.0,0.0,0.0,0.0,0.0,0.0,0.0,0.0,0.0,0.0,0.0,0.0,0.0,0.0,0.0,0.0,0.0,0.0,0.0,0.0,0.0,6.1163,6.6034,7.006,7.2563,7.324,7.2902,7.1424,6.6284,6.2415,6.0554,0.0,0.0,0.0,0.0,0.0,0.0,0.0,0.0,0.0,0.0,0.0,0.0,0.0,0.0,0.0,0.0,0.0,0.0,0.0,0.0,0.0,0.0,0.0,0.0,0.0,0.0,0.0,0.0,0.0,0.0,0.0,0.0,0.0,0.0,0.0,0.0,0.0,0.0,0.0,0.0,0.0,0.0,0.0,0.0,0.0,0.0,0.0,0.0,0.0,0.0,0.0,0.0,0.0,0.0,0.0,0.0,0.0,0.0,0.0,0.0,0.0,0.0,0.0,0.0,0.0,0.0,0.0,0.0,0.0,0.0,0.0,0.0,0.0,0.0,0.0,0.0,0.0,0.0,0.0,0.0,0.0,0.0,0.0,0.0,0.0,0.0,0.0,0.0,0.0,0.0,0.0,0.0,0.0,0.0,0.0,0.0,0.0,0.0,0.0,0.0,0.0,0.0,6.1941,6.6846,7.0872,7.3263,7.35,7.3003,7.1853,6.6656,6.2767,6.1129,0.0,0.0,0.0,0.0,0.0,0.0,0.0,0.0,0.0,0.0,0.0,0.0,0.0,0.0,0.0,0.0,0.0,0.0,0.0,0.0,0.0,0.0,0.0,0.0,0.0,0.0,0.0,0.0,0.0,0.0,0.0,0.0,0.0,0.0,0.0,0.0,0.0,0.0,0.0,0.0,0.0,0.0,0.0,0.0,0.0,0.0,0.0,0.0,0.0,0.0,0.0,0.0,0.0,0.0,0.0,0.0,0.0,0.0,0.0,0.0,0.0,0.0,0.0,0.0,0.0,0.0,0.0,0.0,0.0,0.0,0.0,0.0,0.0,0.0,0.0,0.0,0.0,0.0,0.0,0.0,0.0,0.0,0.0,0.0,0.0,0.0,0.0,0.0,0.0,0.0,0.0,0.0,0.0,0.0,0.0,0.0,0.0,0.0,0.0,0.0,0.0,0.0,6.2279,6.7624,7.1819,7.3409,7.3567,7.3172,7.236,6.6927,6.3226,6.2347,0.0,0.0,0.0,0.0,0.0,0.0,0.0,0.0,0.0,0.0,0.0,0.0,0.0,0.0,0.0,0.0,0.0,0.0,0.0,0.0,0.0,0.0,0.0,0.0,0.0,0.0,0.0,0.0,0.0,0.0,0.0,0.0,0.0,0.0,0.0,0.0,0.0,0.0,0.0,0.0,0.0,0.0,0.0,0.0,0.0,0.0,0.0,0.0,0.0,0.0,0.0,0.0,0.0,0.0,0.0,0.0,0.0,0.0,0.0,0.0,4.652,0.0,0.0,0.0,0.0,0.0,0.0,0.0,0.0,0.0,0.0,0.0,0.0,0.0,0.0,0.0,0.0,0.0,0.0,0.0,0.0,0.0,0.0,0.0,0.0,0.0,0.0,0.0,0.0,0.0,0.0,0.0,0.0,0.0,0.0,0.0,0.0,0.0,0.0,0.0,0.0,0.0,6.3599,6.7827,7.1447,7.4086,7.3849,7.2969,7.165,6.7151,6.3565,6.1637,0.0,0.0,0.0,0.0,0.0,0.0,0.0,0.0,0.0,0.0,0.0,0.0,0.0,0.0,0.0,0.0,0.0,0.0,0.0,0.0,0.0,0.0,0.0,0.0,0.0,0.0,0.0,0.0,0.0,0.0,0.0,0.0,0.0,0.0,0.0,0.0,0.0,0.0,0.0,0.0,0.0,0.0,0.0,0.0,0.0,0.0,0.0,0.0,0.0,0.0,0.0,0.0,0.0,0.0,0.0,0.0,0.0,0.0,0.0,0.0,0.0,4.8888,0.0,0.0,0.0,0.0,0.0,0.0,0.0,0.0,0.0,0.0,0.0,0.0,0.0,0.0,0.0,0.0,0.0,0.0,0.0,0.0,0.0,0.0,0.0,0.0,0.0,0.0,0.0,0.0,0.0,0.0,0.0,0.0,0.0,0.0,0.0,0.0,0.0,0.0,0.0,0.0,6.5121,6.8944,7.2394,7.5405,7.439,7.3172,7.2428,6.8571,6.5256,6.3024,5.9351,0.0,0.0,0.0,0.0,0.0,0.0,0.0,0.0,0.0,0.0,0.0,0.0,0.0,0.0,0.0,0.0,0.0,0.0,0.0,0.0,0.0,0.0,0.0,0.0,0.0,0.0,0.0,0.0,0.0,0.0,0.0,0.0,0.0,0.0,0.0,0.0,0.0,0.0,0.0,0.0,0.0,0.0,0.0,0.0,0.0,0.0,0.0,0.0,0.0,0.0,0.0,0.0,0.0,5.7734,5.9175,6.1,6.0869,6.1425,6.2128,5.6348,5.3681,5.3301,0.0,0.0,0.0,0.0,0.0,0.0,0.0,0.0,0.0,0.0,0.0,0.0,0.0,0.0,0.0,0.0,0.0,0.0,0.0,0.0,0.0,0.0,0.0,0.0,0.0,6.1231,6.1434,0.0,0.0,0.0,0.0,0.0,0.0,0.0,0.0,0.0,0.0,0.0,0.0,6.617,6.9992,7.351,7.6386,7.4762,7.35,7.35,7.0195,6.7151,6.4918,6.1535,5.8254,0.0,0.0,0.0,0.0,0.0,0.0,0.0,0.0,0.0,0.0,0.0,0.0,0.0,0.0,0.0,0.0,0.0,0.0,0.0,0.0,0.0,0.0,0.0,0.0,0.0,0.0,0.0,0.0,0.0,0.0,0.0,0.0,4.7153,4.7956,0.0,0.0,0.0,0.0,0.0,0.0,0.0,0.0,0.0,0.0,0.0,0.0,0.0,5.6948,5.9076,6.1305,6.2912,6.3958,6.5584,6.6877,6.7786,6.7057,6.7582,6.887,6.7346,0.0,5.8807,5.5966,0.0,0.0,0.0,0.0,0.0,0.0,0.0,0.0,0.0,0.0,0.0,0.0,0.0,0.0,0.0,0.0,0.0,0.0,0.0,0.0,0.0,0.0,6.0216,6.2395,6.3139,6.3362,0.0,6.1366,5.9268,5.7881,0.0,0.0,0.0,0.0,0.0,0.0,0.0,0.0,6.5547,6.9688,7.3274,7.5608,7.4424,7.35,7.35,7.0703,6.7963,6.5696,6.3294,6.0588,5.7595,5.6055,0.0,0.0,0.0,0.0,0.0,0.0,0.0,0.0,0.0,0.0,0.0,0.0,0.0,0.0,0.0,0.0,0.0,0.0,0.0,0.0,0.0,0.0,0.0,0.0,0.0,0.0,0.0,0.0,0.0,4.7687,4.9555,4.8962,5.0556,5.12,0.0,0.0,0.0,0.0,0.0,0.0,0.0,0.0,0.0,6.0891,6.2405,6.4054,6.5869,6.7447,6.8987,7.0553,7.2177,7.3578,7.4728,7.4356,7.4559,7.5168,7.4424,7.209,6.8482,6.3316,5.979,5.7541,0.0,0.0,0.0,0.0,5.7476,5.7543,5.9911,6.0433,0.0,0.0,0.0,0.0,0.0,0.0,0.0,0.0,0.0,0.0,0.0,0.0,0.0,6.7963,6.9451,7.0094,6.918,6.7963,6.5831,0.0,6.0114,5.9066,5.8168,0.0,0.0,0.0,0.0,0.0,6.7882,7.1379,7.4356,7.6183,7.4627,7.35,7.35,7.1548,6.9553,6.7726,6.5514,6.3111,6.0539,5.8186,5.6258,0.0,0.0,0.0,0.0,0.0,0.0,0.0,0.0,0.0,0.0,0.0,0.0,0.0,0.0,0.0,0.0,0.0,0.0,0.0,0.0,0.0,0.0,0.0,0.0,0.0,0.0,0.0,0.0,5.0153,5.2066,5.0552,5.3573,5.4778,0.0,0.0,0.0,0.0,0.0,0.0,6.0868,6.3849,6.625,6.7929,6.962,7.1312,7.3026,7.395,7.5314,7.7174,7.8551,7.987,8.1063,8.0919,8.0818,8.075,7.9803,7.8517,7.6623,7.0094,6.5527,6.255,6.1231,6.0486,6.0317,6.14,6.1941,6.2448,6.4884,6.5392,6.4897,6.4715,0.0,6.2922,6.0791,0.0,0.0,0.0,0.0,6.3971,6.6914,6.9079,7.1075,7.3308,7.51,7.5845,7.4187,7.351,7.1548,0.0,6.3599,6.2279,6.096,0.0,0.0,0.0,0.0,6.759,7.0398,7.3003,7.5202,7.6758,7.4864,7.35,7.35,7.2157,7.077,6.9451,6.7421,6.5378,6.3348,6.0351,5.8084,5.6578,0.0,0.0,0.0,0.0,0.0,0.0,0.0,0.0,0.0,0.0,0.0,0.0,0.0,0.0,0.0,0.0,0.0,0.0,0.0,0.0,0.0,0.0,0.0,0.0,0.0,0.0,0.0,0.0,0.0,5.3448,5.7148,0.0,0.0,0.0,0.0,6.0839,6.3558,6.5553,6.6352,6.926,7.1898,7.4062,7.6318,7.8542,8.0741,8.2171,8.3287,8.4106,8.4945,8.5757,8.6501,8.5757,8.5452,8.5378,8.3862,8.2374,8.0572,7.4525,7.1109,6.9405,6.6495,6.5764,6.6352,6.6419,6.6914,6.7624,6.8571,6.8842,6.9045,7.041,6.9891,6.8402,6.6825,6.5899,0.0,0.0,6.8098,6.9383,7.2326,7.3713,7.4897,7.7164,7.7773,7.7841,7.7764,7.6555,7.3984,0.0,6.7049,6.6271,6.5514,0.0,6.4512,6.5256,6.7387,6.9755,7.1988,7.3646,7.5202,7.6758,7.4864,7.35,7.35,7.2157,7.0973,7.0195,6.8639,6.7117,6.5615,6.2685,6.0419,5.8844,5.7442,0.0,0.0,0.0,0.0,0.0,0.0,0.0,0.0,0.0,0.0,0.0,0.0,0.0,0.0,0.0,0.0,0.0,0.0,0.0,0.0,0.0,0.0,0.0,0.0,0.0,0.0,0.0,0.0,5.9738,6.4601,0.0,6.3835,6.4512,6.5459,6.6271,6.9045,7.1481,7.3206,7.6589,7.9498,8.1731,8.3524,8.5012,8.6325,8.6866,8.7211,8.7516,8.826,8.8767,8.9038,8.8767,8.8361,8.7882,8.6839,8.5824,8.4708,8.2103,7.8145,7.3578,7.2022,7.1312,7.121,7.2191,7.2699,7.3172,7.4931,7.5236,7.4728,7.4289,7.3138,7.1819,7.1278,7.1244,7.165,7.2631,7.351,7.4695,7.7164,7.801,7.8653,8.0412,8.0818,8.0682,8.0234,7.9692,7.8686,7.6667,7.307,7.0391,7.0409,6.9755,6.9494,7.0257,7.2481,7.4433,7.5458,7.7572,7.9177,7.9714,7.8165,7.6632,7.5389,7.4496,7.3156,7.1227,7.0744,6.935,6.6716,6.4687,6.2155,5.9066,5.8017,5.6765,0.0,0.0,0.0,0.0,0.0,0.0,0.0,0.0,0.0,0.0,0.0,0.0,0.0,0.0,0.0,0.0,0.0,0.0,0.0,0.0,0.0,0.0,0.0,0.0,0.0,0.0,6.4872,6.5422,7.0478,7.2834,7.006,7.0939,7.1988,7.28,7.6048,7.8788,8.0547,8.4167,8.6738,8.7989,8.9478,9.0391,9.0623,9.0623,9.0459,9.0222,9.0729,9.0938,9.0938,9.0938,9.0831,9.0589,8.9545,8.87,8.7955,8.7211,8.3964,7.9329,7.7841,7.7232,7.7299,7.7773,7.8111,7.8551,8.0073,8.0107,7.9329,7.828,7.6961,7.5743,7.5743,7.5946,7.6318,7.7299,7.8145,7.916,8.0885,8.1494,8.1934,8.2889,8.3126,8.3113,8.3057,8.2817,8.2703,8.295,7.8613,7.5008,7.5428,7.4807,7.4542,7.5332,7.7132,7.8564,7.9056,8.0683,8.1777,8.1757,8.0182,7.8483,7.6936,7.601,7.4412,7.1857,7.1371,6.9984,6.7236,6.541,6.3117,6.0225,5.8947,5.7685,5.6491,0.0,0.0,0.0,0.0,0.0,0.0,0.0,0.0,0.0,0.0,0.0,0.0,0.0,0.0,0.0,0.0,0.0,0.0,0.0,0.0,0.0,0.0,0.0,6.0386,6.4717,6.8546,7.0411,7.4559,7.642,7.421,7.7299,7.9769,8.0479,8.464,8.7448,8.8192,9.1711,9.3368,9.2595,9.4015,9.4451,9.3736,9.3736,9.3334,9.2527,9.2527,9.2561,9.2561,9.2527,9.2962,9.3634,9.2083,9.1034,9.029,8.9545,8.8395,8.6839,8.3795,8.3464,8.4512,8.3092,8.3016,8.3592,8.3592,8.3152,8.2543,8.2543,8.1562,8.0412,8.0412,7.9904,7.9634,8.1054,8.2002,8.2712,8.3422,8.4159,8.4727,8.4694,8.472,8.5048,8.6227,8.5874,8.5761,8.6957,8.3295,8.0111,8.0531,7.9882,7.9593,8.0405,8.1176,0.0,8.2578,8.2732,8.2717,8.2655,8.0673,7.8915,7.7984,7.6479,7.4527,7.206,7.0504,6.8929,6.7251,6.4951,6.332,6.2523,6.0341,5.8867,5.8155,0.0,0.0,0.0,0.0,0.0,0.0,0.0,0.0,0.0,0.0,0.0,0.0,0.0,0.0,0.0,0.0,0.0,0.0,0.0,0.0,0.0,0.0,6.7346,6.74,7.23,7.6871,7.9541,8.3321,8.5513,8.487,8.623,8.7448,8.8192,9.0425,9.2319,9.3571,9.5127,9.6142,9.6447,9.6886,9.6751,9.6003,9.6514,9.6413,9.5635,9.5635,9.5939,9.6447,9.5905,9.577,9.5936,9.4958,9.4146,9.3402,9.2658,9.2145,9.144,8.8429,8.7177,8.7008,8.6602,8.6264,8.596,8.596,8.5824,8.5662,8.5662,8.5384,8.508,8.508,8.4945,8.4843,8.5249,8.552,8.5723,8.5926,8.6802,8.7512,8.691,8.7478,8.8064,8.7772,8.7559,8.7747,8.8983,8.7637,8.6194,8.577,8.4552,8.4065,8.5466,8.5057,0.0,8.6121,8.598,8.5992,8.6574,8.5027,8.2867,8.0131,7.8576,7.6144,7.2355,7.1307,6.9575,6.672,6.5982,6.4708,6.2695,6.2075,6.17,0.0,0.0,0.0,0.0,0.0,0.0,0.0,0.0,0.0,0.0,0.0,0.0,0.0,0.0,0.0,0.0,0.0,0.0,0.0,0.0,0.0,0.0,6.9895,7.5033,7.6927,7.9667,8.2881,8.6771,8.9444,9.1232,9.1846,9.2556,9.3165,9.3605,9.5026,9.6277,9.7123,9.8203,9.8815,9.8916,9.9254,9.9051,9.8273,9.8713,9.8544,9.7831,9.7831,9.8037,9.8442,9.8003,9.7969,0.0,9.7191,9.6311,9.5567,9.4823,9.3943,0.0,0.0,0.0,0.0,0.0,8.826,8.7448,8.8091,8.7888,8.7414,8.7719,8.7617,8.7313,8.7008,8.6907,8.7016,8.7561,8.7686,8.7817,8.8372,8.9061,8.9485,8.9006,8.919,8.9502,8.9505,8.9199,8.9327,9.0503,9.0371,0.0,8.9501,8.8083,8.7337,8.8246,8.807,8.7975,8.8357,8.818,8.8042,8.8206,8.6738,8.4716,8.2079,8.0479,0.0,0.0,0.0,6.966,6.6,6.5862,0.0,0.0,0.0,6.4644,6.4322,0.0,0.0,0.0,6.1887,6.2005,0.0,0.0,0.0,0.0,0.0,0.0,0.0,0.0,0.0,0.0,0.0,0.0,0.0,0.0,0.0,0.0,7.686,8.2746,8.7177,8.6873,8.7854,9.2257,9.3639,9.4721,9.6041,9.6819,9.7323,9.7424,9.8612,9.939,9.9457,0.0,0.0,0.0,0.0,10.1115,10.0305,10.0407,10.01,9.9356,9.9356,9.939,9.9457,9.939,9.9762,10.0405,9.8984,9.8003,9.7357,9.6514,9.4924,9.2967,9.2561,9.2392,9.2223,9.0932,8.9579,8.8564,8.9782,0.0,0.0,8.9004,8.8734,8.8023,8.7448,8.7211,8.741,8.8691,8.9063,8.9354,9.0611,9.105,9.1141,9.1034,9.0592,9.0448,9.1434,9.104,9.0757,9.1748,9.195,9.1913,9.1803,9.0555,8.9583,8.9657,9.0097,9.028,8.973,8.951,8.9143,8.8426,0.0,0.0,8.3675,8.1893,7.8919,7.4368,7.2334,6.9667,6.5952,6.5815,6.5815,6.5815,6.7363,6.7813,6.7082,6.9301,7.0361,7.0278,6.6554,6.526,0.0,0.0,0.0,0.0,0.0,0.0,0.0,0.0,0.0,0.0,0.0,0.0,0.0,0.0,0.0,7.7401,8.3389,8.8734,9.2658,9.4485,9.5364,9.5161,9.6853,9.8138,9.8442,9.9153,9.9829,10.0504,10.0808,10.1183,10.1792,10.2096,10.2198,10.2096,10.2198,10.1893,10.1214,10.1792,10.169,10.1011,0.0,0.0,10.1825,10.1183,10.1418,10.2028,10.1115,10.0707,10.0405,9.9018,9.7867,9.6616,9.3575,9.2392,9.2358,9.2087,9.144,9.0628,9.0324,9.0019,8.9816,8.9951,8.9478,8.897,8.941,8.914,0.0,9.0218,9.0572,9.0844,9.2128,9.3233,9.3834,9.3186,9.3701,9.4222,9.3794,9.3576,9.334,9.2941,9.2868,9.2648,9.1913,9.0996,9.0592,9.1253,9.0354,9.0024,9.1179,9.0207,8.9326,8.9179,8.8316,8.6811,8.4572,8.1709,7.9029,7.6738,7.3289,7.0957,7.0118,7.0104,7.0104,7.0104,7.107,7.1487,7.1304,7.18,7.202,7.1999,7.0573,7.0332,0.0,0.0,0.0,0.0,0.0,0.0,0.0,0.0,0.0,0.0,0.0,6.3453,0.0,0.0,7.8991,8.3862,8.9371,9.3774,9.6041,9.8307,9.9288,9.8138,9.9322,10.0405,10.0777,10.1083,10.1521,10.1893,10.2299,10.2703,10.3009,10.3382,10.3415,10.3077,10.3415,10.3212,10.2502,10.2874,10.2874,10.2502,10.2096,10.2096,10.2502,10.2096,10.2198,10.2502,10.169,10.1418,10.1316,9.9322,9.8104,9.7225,9.4992,9.3876,9.3542,9.3542,9.2624,9.1338,9.1744,9.1406,9.0763,9.0763,9.0695,9.0583,9.0591,9.0818,9.127,9.2539,9.2896,9.3213,9.4467,9.5265,9.564,9.5239,9.5309,9.5382,9.4997,9.4593,9.4042,9.3272,9.3088,9.2831,9.195,9.1473,9.1326,9.173,9.1106,9.0886,9.1693,9.0739,8.9987,8.9987,8.929,8.7986,8.5967,8.2113,7.9433,7.8589,7.5124,7.3289,7.3692,7.3325,7.3105,7.3105,7.428,7.4903,7.4903,7.5726,7.613,7.613,7.6151,7.5491,0.0,0.0,0.0,0.0,0.0,0.0,0.0,0.0,5.9392,6.2789,6.6402,7.0534,7.5618,8.0716,8.5554,8.9912,9.465,9.7969,9.8578,10.0608,10.169,10.1014,10.1419,10.2128,10.2705,10.2774,10.2908,10.2908,10.3314,10.3719,10.3787,10.4193,10.4328,10.3787,10.4429,10.4396,10.3787,10.3787,10.3787,10.3787,10.3077,10.2705,10.2705,10.2603,10.2502,10.2502,10.1893,10.1487,10.1316,9.9424,9.8206,9.7461,9.6717,9.5973,9.533,9.5026,9.374,9.2319,9.3267,9.2759,9.1768,9.1851,9.2125,9.2322,9.2121,9.2568,9.3426,9.4841,9.5167,9.535,9.678,9.7052,9.6942,9.6942,9.6318,9.5712,9.5712,9.5217,9.452,9.3712,9.3565,9.3235,9.2244,9.206,9.1987,9.184,9.1803,9.1803,9.1803,9.1216,9.0776,9.0629,9.0024,8.8923,8.7161,8.3434,8.0991,8.055,7.8038,7.6775,7.7268,7.668,7.6298,7.6298,7.7582,7.8243,7.8243,7.9617,8.0257,8.0293,8.1085,7.9874,4.8745,4.8067,4.9175,5.4196,5.5158,5.6826,0.0,0.0,6.7048,7.2032,7.5029,7.8111,8.2652,8.7245,9.1541,9.5428,9.8778,10.0878,10.098,10.2874,10.4091,10.3314,10.328,10.3382,10.3483,10.4125,10.4497,10.4497,10.3889,10.3889,10.4498,10.399,10.399,10.4598,10.47,10.47,10.4598,10.4598,10.4598,10.4598,10.3787,10.3483,10.3483,10.2806,10.2502,10.2502,10.2401,10.1995,10.1418,10.1081,10.0506,9.9762,9.9018,9.8273,9.7461,9.6176,9.5499,9.5127,9.4007,9.3499,9.3399,9.3904,9.3653,9.3503,9.5281,9.4948,9.4373,9.636,9.6437,9.6312,9.8317,9.83,9.775,9.775,9.7163,9.6575,9.6575,9.6502,9.6208,9.5382,9.5235,9.4758,9.3235,9.2941,9.2684,9.1913,9.1803,9.1803,9.1803,9.173,9.14,9.0702,9.0519,8.9528,8.7198,8.6518,8.5289,8.3124,8.2647,8.2186,8.1525,8.1415,8.1379,8.1379,8.1562,8.1636,8.1636,8.1819,8.1929,8.1929,8.2774,8.217,5.1592,5.2361,5.4251,5.7482,6.0538,6.4048,6.9296,7.165,7.3916,7.8247,8.1968,8.5689,8.972,9.3774,9.7292,0.0,10.1893,10.328,10.328,10.3686,10.3787,10.3009,10.3314,10.382,10.4193,10.4498,10.47,10.47,10.4802,10.5005,10.531,10.5512,10.5479,10.531,10.5817,10.5817,10.531,10.531,10.531,10.531,10.4226,10.3585,10.3585,10.2806,10.2502,10.2502,10.2502,10.2096,10.1418,10.0912,10.0303,9.9491,9.8747,9.8788,9.8994,9.7149,9.6176,9.5785,9.5503,9.5377,9.5425,9.5524,9.5883,9.6304,9.6726,9.6931,9.7201,9.8063,9.8042,9.7998,9.8879,9.8851,9.8484,9.8007,9.764,9.7273,9.6795,9.6685,9.6465,9.5639,9.5492,9.5125,9.4006,9.3786,9.3675,9.3308,9.2427,9.1803,9.1803,9.1803,9.1657,9.1326,9.0886,9.0188,8.9179,8.8243,8.7472,8.6941,8.6023,8.5563,8.5673,8.4792,8.4278,8.4278,8.3838,8.3838,8.4278,8.3838,8.3838,8.4332,8.5123,8.5143,5.4157,5.6168,5.8885,6.2078,6.6491,7.1109,7.5168,7.8111,8.1088,8.5012,8.87,9.2252,9.5601,9.8578,10.0982,10.2603,10.399,10.4904,10.4701,10.4396,10.3618,10.2096,10.2198,10.257,10.3077,10.4328,10.4971,10.4971,10.5513,10.5919,10.6088,10.6392,10.6392,10.6122,10.6595,10.6595,10.6122,10.6122,10.6122,10.6088,10.4802,10.4092,10.3889,10.2908,10.2502,10.2502,10.2502,10.2096,10.1416,10.1213,10.0585,9.9931,9.9599,10.0074,10.0788,9.9015,9.8024,9.7551,9.7583,9.7581,9.755,9.7328,9.789,9.8603,9.8433,9.8869,9.9475,9.9695,9.9438,9.9218,9.9659,9.9438,9.9035,9.8631,9.8374,9.808,9.7493,9.7199,9.6906,9.6556,9.6318,9.5914,9.5107,9.496,9.4813,9.4373,9.3272,9.2501,9.2501,9.2501,9.2391,9.217,9.1657,9.1289,9.1289,9.0005,8.9344,8.9693,8.8629,8.8169,8.8536,8.7399,8.6775,8.6775,8.6224,8.6224,8.6775,8.6224,8.6224,8.6811,8.7381,8.7675,5.5647,5.7925,6.1443,6.903,7.3217,7.7198,8.3889,8.6569,8.8937,9.3402,9.5567,9.7326,9.9627,10.0777,10.1792,10.3314,10.4802,10.5513,10.4802,10.531,10.4396,10.0677,9.966,9.9254,0.0,10.3212,10.5783,10.5783,10.5817,10.6122,10.6798,10.6189,10.6189,10.6798,10.69,10.69,10.69,10.69,10.69,10.69,10.6088,10.5377,10.4598,10.3179,10.2502,10.2502,10.2502,10.2096,10.1479,10.282,10.2928,10.2312,10.2901,10.3208,10.3093,10.2315,10.1997,10.1785,10.029,9.9794,9.9774,9.9473,9.9439,9.9684,10.1001,10.0887,10.0393,10.122,10.0283,9.9475,10.098,10.0283,9.9292,9.9989,9.9622,9.9071,9.9035,9.8411,9.808,9.8851,9.8374,9.7566,9.6759,9.6612,9.6098,9.452,9.4263,9.4226,9.4226,9.4226,9.3932,9.3125,9.3051,9.3015,9.3015,9.2207,9.1363,9.0629,9.0519,9.0134,8.94,8.9326,8.929,8.929,8.9253,8.9253,8.929,8.9253,8.9253,8.929,8.9326,8.9326,6.0617,6.527,7.0927,7.655,8.1291,8.5716,9.0014,9.2489,9.4451,9.648,9.6514,9.6548,9.7766,9.8612,9.9627,10.1115,10.3889,10.5885,10.6088,10.6392,10.5005,10.0677,9.9967,0.0,0.0,0.0,0.0,10.4904,10.5513,10.6122,10.69,10.6697,10.6595,10.69,10.69,10.69,10.69,10.69,10.69,10.69,10.5715,10.4396,10.3212,10.2705,10.2502,10.26,10.3504,10.3417,10.2816,10.4294,10.4201,10.3006,10.3297,10.3601,10.3912,10.3685,10.4203,10.4627,10.2106,10.1187,10.1185,10.0906,10.0793,10.0913,10.1393,10.1274,10.122,10.1404,10.109,10.0796,10.1404,10.109,10.0613,10.0393,10.0099,9.9769,9.9218,9.8888,9.8778,9.9071,9.8888,9.8631,9.8337,9.786,9.7126,9.6061,9.496,9.4299,9.4299,9.4299,9.4189,9.3932,9.3418,9.3308,9.3859,9.2611,9.1913,9.2244,9.173,9.1253,9.0996,9.0464,9.0207,9.0207,8.9657,8.9657,9.017,8.9657,8.9657,9.0207,9.0207,9.0207,6.688,7.2732,7.8923,8.3693,8.8192,9.2184,9.4924,9.6853,9.7969,9.7664,9.6447,9.5229,9.462,9.4248,9.4958,9.7769,10.0709,10.3415,10.5783,10.5682,10.399,10.0204,9.9119,9.807,0.0,0.0,0.0,10.3719,10.4802,10.5716,10.6494,10.6832,10.69,10.69,10.69,10.69,10.69,10.6595,10.6392,10.6088,10.4903,10.4079,10.3698,10.3394,10.3501,10.4112,10.4988,10.49,10.4287,10.5802,10.5694,10.4507,10.482,10.5284,10.5803,10.5294,10.5823,10.6511,10.3904,10.2911,10.2477,10.2113,10.1677,10.1587,10.1788,10.1898,10.2008,10.2322,10.1898,10.1587,10.1918,10.1677,10.1404,10.089,10.0907,10.0907,10.0099,9.9952,9.9952,9.9952,9.9952,9.9879,9.9585,9.8851,9.8154,9.764,9.6685,9.5694,9.485,9.496,9.5034,9.4777,9.4263,9.4189,9.4666,9.3492,9.2794,9.3088,9.2574,9.2134,9.1803,9.1289,9.1033,9.1033,9.0519,9.0519,9.1033,9.0519,9.0519,9.1033,9.1033,9.1033,7.4119,8.004,8.5351,9.0425,9.3909,9.665,9.8781,9.9694,9.9457,9.7225,9.5398,9.3267,0.0,0.0,8.8497,9.3639,9.6007,9.8981,10.4125,10.3686,10.1995,0.0,0.0,0.0,0.0,0.0,0.0,10.2299,0.0,10.4971,10.5817,10.6494,10.69,10.69,10.69,10.69,10.69,10.6189,10.5411,10.4599,10.3987,10.441,10.5713,10.5011,10.5504,10.681,10.6891,10.652,10.5882,10.739,10.7498,10.6906,10.7395,10.8123,10.8505,10.7,10.6911,10.7315,10.5715,10.4614,10.3806,10.2999,10.2191,10.1808,10.2485,10.2705,10.2889,10.3586,10.2705,10.1808,10.2522,10.2191,10.1604,10.1604,10.2191,10.2595,10.1808,10.1624,10.1587,10.1624,10.1587,10.1274,10.0503,9.9695,9.9181,9.9181,9.9145,9.8244,9.5969,9.6355,9.6539,9.5749,9.5602,9.5565,9.5602,9.4813,9.3969,9.3272,9.3198,9.2758,9.1913,9.1913,9.1877,9.1803,9.184,9.184,9.1803,9.1803,9.1803,9.1803,9.1803,9.1803,8.0107,8.6974,9.3368,9.6345,9.8544,10.0301,10.1386,10.0001,9.7935,9.5736,9.1,8.6332,0.0,0.0,0.0,9.0696,9.6819,0.0,10.5783,10.7001,0.0,10.2096,0.0,10.0272,9.9221,9.9254,0.0,0.0,10.3686,10.4701,10.6494,10.6798,10.69,10.69,10.69,10.69,10.69,10.6189,10.5174,10.3888,10.4796,10.5083,10.4912,10.5796,10.6418,10.6926,10.802,10.7987,10.7379,10.9501,10.9507,10.8295,10.8397,10.8306,10.7792,10.6801,10.6486,10.6596,10.6192,10.5495,10.4687,10.388,10.3476,10.3182,10.2815,10.3109,10.3403,10.2375,10.2726,10.3182,10.2815,10.2999,10.3293,10.3293,10.3403,10.3513,10.3293,10.2815,10.2595,10.3182,10.2815,10.2118,10.131,10.0503,9.9989,9.9989,9.9475,9.8868,9.8244,9.8374,9.8411,9.8208,9.7126,9.6649,9.7236,9.5437,9.4483,9.4868,9.4336,9.3639,9.2794,9.3345,9.3088,9.1803,9.2427,9.2464,9.1803,9.1803,9.1803,9.1803,9.1803,9.2134,8.782,9.3943,9.9119,10.0675,10.169,10.1792,9.9593,9.7529,9.4518,8.9004,8.437,8.0073,7.6048,7.828,8.2137,0.0,0.0,0.0,10.5783,10.717,10.69,0.0,10.4126,0.0,10.2706,10.2705,10.3517,0.0,10.4599,10.4769,10.6291,10.6697,10.69,10.69,10.69,10.6595,10.5885,10.62,10.5496,10.4123,10.5496,10.6317,10.6627,10.7399,10.8113,10.8791,0.0,10.9685,10.9404,11.0675,11.0487,10.9276,10.8909,10.8505,10.8012,10.678,10.6596,10.6911,10.6486,10.6082,10.5495,10.4687,10.421,10.388,10.3806,10.41,10.432,10.3806,10.399,10.432,10.3917,10.41,10.432,10.399,10.421,10.432,10.399,10.3806,10.3917,10.432,10.3806,10.3109,10.2595,10.2191,10.1898,10.1898,10.12,10.0723,10.0723,9.9769,9.8961,9.8631,9.775,9.7273,9.7346,9.6135,9.5401,9.5492,9.507,9.4483,9.3675,9.4042,9.3859,9.2905,9.3015,9.3015,9.2905,9.2537,9.2537,9.2905,9.2905,9.2978,9.5631,10.0202,10.3212,10.3618,10.3483,10.1792,9.6041,9.3267,8.9404,8.0242,7.686,7.4119,6.9383,7.236,7.7367,8.2915,9.0628,9.824,10.4904,10.6088,10.6595,10.7103,10.6798,10.6494,10.6392,10.6392,10.69,10.8118,10.6392,10.5479,10.6088,10.6697,10.7001,10.69,10.69,10.6323,10.5196,10.6326,10.6293,10.5103,10.6398,10.7803,10.9013,10.9185,11.0,11.1221,0.0,0.0,11.1221,11.1221,11.0707,10.99,10.9092,10.8688,10.8505,10.7021,10.678,10.7315,10.6596,10.6376,10.6302,10.5495,10.4798,10.432,10.4887,10.5201,10.5422,10.5899,10.5715,10.518,10.5107,10.518,10.5091,10.4394,10.4798,10.5091,10.4394,10.4798,10.518,10.4997,10.4504,10.41,10.41,10.399,10.3917,10.399,10.3403,10.2815,10.2705,10.0796,9.9145,9.8467,9.8283,9.7897,9.7089,9.6906,9.6539,9.5712,9.5639,9.529,9.4483,9.4556,9.452,9.4299,9.3712,9.3712,9.4299,9.3602,9.3602,9.4299,9.4299,9.3969,9.9424,10.328,10.5885,10.4802,10.3077,10.0506,9.5804,8.8869,8.1723,7.5709,7.1312,6.7907,6.5764,7.0534,7.713,8.4234,9.1773,9.8815,10.4904,10.7881,10.9302,0.0,10.981,11.0181,0.0,0.0,0.0,0.0,0.0,10.8185,10.761,10.7678,10.7509,10.69,10.69,10.7122,10.7495,10.7089,10.7104,10.7406,10.8218,10.8791,10.9002,11.0306,11.0984,11.1221,11.1221,0.0,11.1221,11.1221,11.0707,10.99,10.9092,10.8395,10.7719,10.6706,10.6486,10.6617,10.6413,10.6376,10.6397,10.6192,10.6082,10.592,10.5311,10.5605,10.5899,10.4687,10.5201,10.6009,10.529,10.5605,10.6119,10.6009,10.6082,10.6082,10.6009,10.6082,10.5789,10.4394,10.4504,10.4908,10.4908,10.432,10.41,10.4798,10.421,10.3476,10.2815,10.1788,10.098,10.089,10.0283,9.9548,9.8741,9.808,9.7346,9.6539,9.6502,9.6135,9.5327,9.5951,9.5658,9.4336,9.4813,9.485,9.4299,9.4153,9.4153,9.4299,9.4299,9.4593,10.2198,10.5005,10.6595,10.5513,10.2401,9.7732,9.0527,8.3152,7.5676,6.8098,6.5155,6.3497,6.1955,6.8132,7.5134,8.031,8.7076,9.4451,10.2401,10.4396,10.6392,10.9911,11.0993,11.1602,0.0,0.0,0.0,0.0,0.0,10.9302,10.8118,10.7576,10.7607,10.8116,10.8082,10.8289,10.8699,10.8987,10.899,10.8521,10.9596,11.0103,11.02,11.0881,11.1221,11.1221,11.1221,0.0,11.1221,11.1221,11.0487,10.9312,10.8982,10.8123,10.689,10.6486,10.6376,10.6376,10.6376,10.6376,10.6376,10.6376,10.6376,10.6302,10.5899,10.6082,10.6192,10.5385,10.5789,10.6302,10.5899,10.6082,10.6376,10.6376,10.6376,10.6376,10.6376,10.6376,10.6213,10.5406,10.5495,10.5789,10.5789,10.5495,10.5311,10.5715,10.5091,10.421,10.3403,10.2595,10.1788,10.098,10.0503,9.9989,9.9181,9.8741,9.819,9.7383,9.7309,9.6942,9.6171,9.6502,9.6355,9.5547,9.5511,9.5511,9.5547,9.5144,9.5144,9.5547,9.5547,9.5547,10.4226,10.5986,10.6798,10.5614,10.1183,9.4586,8.5148,7.7671,7.0229,6.1434,6.0013,6.008,5.9148,6.5561,7.2225,7.6014,8.2002,8.9444,9.8882,10.0912,10.3789,11.0384,11.1873,0.0,11.3699,11.2617,0.0,0.0,0.0,0.0,10.8624,10.7808,10.8114,10.9605,10.9701,10.9785,11.0182,11.0881,11.0882,10.9994,11.081,11.1221,11.1221,11.1221,11.1221,11.1221,11.1221,0.0,0.0,11.1221,11.0414,10.9092,10.9092,10.8101,10.6691,10.6691,10.6486,10.6376,10.6376,10.6376,10.6413,10.6596,10.6486,10.6376,10.6376,10.6376,10.6376,10.6376,10.6376,10.6376,10.6376,10.6376,10.6376,10.6376,10.6376,10.6376,10.6376,10.6486,10.6691,10.6691,10.6691,10.6691,10.6691,10.6486,10.6376,10.6376,10.5789,10.5091,10.4284,10.3586,10.2705,10.12,10.0796,10.0209,9.9438,9.9365,9.8998,9.819,9.8007,9.7603,9.6979,9.6795,9.6685,9.6685,9.6098,9.6061,9.6685,9.6061,9.6098,9.6685,9.6685,9.6355,10.5107,10.6798,10.7204,10.4498,9.8848,9.1807,8.3415,7.3737,6.4938,5.9287,5.7611,5.7577,5.8776,6.3024,6.8402,7.4762,8.031,8.6738,9.5127,10.1487,10.6595,11.0012,0.0,0.0,11.4717,11.3902,0.0,0.0,0.0,0.0,11.0073,10.9413,10.9701,11.1226,11.1319,11.1881,11.3294,11.2016,11.1892,11.3215,11.1778,11.1221,11.1221,11.1221,11.1221,11.1221,11.1221,0.0,0.0,11.1221,11.0707,10.9922,10.9922,10.8894,10.7498,10.7498,10.7021,10.6376,10.6376,10.6376,10.6486,10.7315,10.7021,10.6376,10.6376,10.6376,10.6376,10.6376,10.6376,10.6376,10.6376,10.6376,10.6376,10.6376,10.6376,10.6376,10.6376,10.7021,10.7498,10.7498,10.7498,10.7498,10.7498,10.6911,10.6376,10.6376,10.6302,10.6009,10.5107,10.4887,10.4483,10.3696,10.2322,10.111,10.0283,10.0209,9.9842,9.9035,9.83,9.7879,9.7806,9.7089,9.6685,9.6685,9.6649,9.6649,9.6685,9.6649,9.6649,9.6685,9.6685,9.6649,10.3111,10.558,10.6189,10.4092,9.7529,8.941,8.1156,7.1548,6.2753,5.707,5.6021,5.6443,5.7509,6.0622,6.4783,7.0128,7.2394,7.6792,8.6399,9.0425,9.5669,10.4599,10.8118,0.0,0.0,0.0,0.0,0.0,0.0,0.0,11.1722,11.1015,11.1319,11.2814,11.2805,11.3093,11.3598,11.3014,11.2505,11.2102,11.1515,11.1221,11.1221,11.1221,11.1221,11.1221,11.1221,0.0,0.0,11.1221,11.0707,10.9995,10.9995,10.9276,10.8306,10.7792,10.7388,10.7095,10.6617,10.6376,10.6486,10.7315,10.7388,10.7095,10.7095,10.7095,10.7095,10.7095,10.7095,10.7095,10.7095,10.7095,10.7095,10.7095,10.7095,10.7021,10.6486,10.7021,10.7498,10.7021,10.7315,10.7425,10.7021,10.6596,10.6376,10.6376,10.6376,10.6082,10.518,10.5107,10.4798,10.399,10.2889,10.2301,10.2485,10.2008,10.1384,10.0613,10.0209,9.9622,9.8668,9.83,9.7933,9.7419,9.7419,9.7163,9.6685,9.6685,9.6685,9.6685,9.6685,9.6685,9.9694,10.3179,10.4701,10.3009,9.5872,8.7144,7.9126,6.9823,6.1298,5.575,5.5209,5.5868,5.6393,5.9133,6.255,6.6305,6.7624,7.1458,8.1054,8.3795,8.8734,9.9288,0.0,10.6223,0.0,0.0,0.0,0.0,0.0,0.0,11.3309,11.3001,11.3291,11.4273,11.4081,11.4001,11.3974,11.3519,11.2689,11.1588,11.1295,11.1221,11.1221,11.1221,11.1221,11.1221,0.0,0.0,0.0,11.1221,11.0891,11.0377,11.0377,10.9679,10.8688,10.8196,10.7682,10.7205,10.6596,10.6617,10.6911,10.7719,10.8012,10.8012,10.8012,10.7792,10.7609,10.7315,10.7388,10.7609,10.7609,10.7609,10.7609,10.7609,10.7388,10.7095,10.6486,10.7021,10.7388,10.6911,10.7425,10.7719,10.6911,10.6801,10.6691,10.6413,10.6376,10.6192,10.5605,10.5495,10.5311,10.4687,10.3917,10.3513,10.388,10.3403,10.2815,10.2191,10.1808,10.098,9.9879,9.9365,9.8851,9.8264,9.8264,9.797,9.7419,9.7163,9.7163,9.7419,9.6906,9.6685,9.4857,9.966,10.3077,10.0779,9.3508,8.4979,7.7435,6.8267,6.0047,5.5531,5.5209,5.5699,5.5699,5.8776,6.2042,6.4275,6.8368,7.3859,8.1359,8.5621,8.9918,0.0,0.0,10.0912,10.5513,11.1395,0.0,0.0,0.0,0.0,11.4927,11.5591,11.6007,11.5993,11.5199,11.4796,11.4818,11.3203,11.2396,11.2396,11.1588,11.1221,11.1221,11.1221,11.1221,0.0,0.0,0.0,0.0,11.1221,11.1221,11.1221,11.1221,11.0193,10.8799,10.8799,10.7807,10.6376,10.6376,10.6911,10.7719,10.8505,10.8799,10.8799,10.8799,10.8175,10.7388,10.6596,10.7021,10.7609,10.7609,10.7609,10.7609,10.7609,10.7021,10.6376,10.6376,10.7021,10.7609,10.7609,10.8211,10.8505,10.7719,10.7609,10.7315,10.6486,10.6376,10.6376,10.6376,10.6376,10.6397,10.6397,10.5605,10.4798,10.399,10.388,10.388,10.388,10.2395,10.1514,10.1514,9.9952,9.9108,9.9108,9.9108,9.9071,9.9052,9.8264,9.83,9.9015,9.7456,9.6685,8.5824,8.9376,9.0865,8.8598,8.3625,7.7536,7.1109,6.4884,5.9235,5.4769,5.4431,5.5108,5.5597,5.7085,6.0114,6.5899,6.8064,7.1244,7.7739,8.3625,8.9783,9.6688,10.7229,11.4481,0.0,0.0,0.0,0.0,0.0,0.0,11.5005,11.5104,11.5185,11.5185,11.4892,11.4305,11.3203,11.2689,11.2102,11.1588,11.1295,11.1221,11.1221,11.1221,0.0,0.0,0.0,0.0,0.0,11.1221,11.1221,11.1221,11.1221,11.0597,10.9591,10.8982,10.8505,10.7991,10.7425,10.7697,10.86,10.9408,10.9606,10.9496,10.8982,10.8615,10.8416,10.8101,10.8211,10.8505,10.9114,10.9202,10.9114,10.86,10.8211,10.7697,10.6596,10.7021,10.7609,10.7609,10.7792,10.8123,10.8416,10.7477,10.7095,10.7881,10.711,10.6596,10.7073,10.6706,10.6376,10.6376,10.6213,10.5899,10.5605,10.5091,10.4724,10.4724,10.4189,10.3513,10.2412,10.1824,10.1017,9.9952,9.9916,9.9659,9.9108,9.8851,9.8851,9.9052,9.7456,9.6979,7.7164,8.1426,8.3355,8.1934,7.7773,7.2699,6.7557,6.2482,5.7848,5.4262,5.4093,5.4837,5.5564,5.6747,5.9336,6.4546,6.6576,6.9647,7.5857,8.2129,0.0,9.8455,0.0,0.0,0.0,0.0,0.0,0.0,0.0,0.0,11.5405,11.5001,11.4708,11.4378,11.4084,11.3387,11.2396,11.2102,11.1515,11.0707,11.0707,11.0597,11.0304,11.0597,0.0,0.0,0.0,0.0,0.0,11.1221,11.1221,11.1221,11.0891,11.0304,10.9386,10.8615,10.8285,10.8306,10.7792,10.8285,10.9312,10.979,10.9995,10.99,10.9386,10.8799,10.8285,10.8285,10.8799,10.9312,10.9496,10.9496,10.9386,10.8909,10.8578,10.7991,10.6727,10.7315,10.7902,10.7315,10.7587,10.8123,10.8285,10.7792,10.7514,10.8211,10.7792,10.7425,10.7609,10.7404,10.7294,10.7294,10.7294,10.7183,10.6911,10.6082,10.5605,10.5605,10.529,10.4724,10.3602,10.3293,10.2522,10.12,10.12,10.0796,9.9989,9.9989,9.9695,9.9071,9.8374,9.8154,0.0,7.4897,7.8754,7.8653,7.4458,6.9417,6.5797,6.0689,0.0,5.3957,5.4025,5.4803,5.5767,5.7525,5.952,6.1603,6.4783,6.9212,7.5716,8.2122,0.0,0.0,10.7995,0.0,0.0,0.0,0.0,0.0,0.0,0.0,11.6103,11.5185,11.4378,11.3593,11.2689,11.2212,11.2212,11.1515,11.0707,10.99,10.99,10.9496,10.8799,10.9606,0.0,0.0,0.0,0.0,0.0,11.1221,11.1221,11.1111,11.0304,10.9496,10.8688,10.7902,10.7609,10.7719,10.7719,10.871,11.0083,11.0083,11.001,10.9995,10.9995,10.8894,10.7719,10.7792,10.8799,10.979,10.9092,10.8909,10.8909,10.8799,10.8175,10.7498,10.6706,10.7697,10.8395,10.6911,10.7697,10.8505,10.7792,10.8175,10.8395,10.7902,10.8285,10.8505,10.7902,10.8416,10.8799,10.8799,10.8799,10.8505,10.7719,10.689,10.6507,10.6376,10.5584,10.5201,10.5107,10.4394,10.3586,10.2705,10.2575,10.2301,10.1624,10.1514,10.0686,9.9345,9.9989,9.9916,5.8844,0.0,6.4546,6.3429,6.2076,6.052,0.0,5.695,5.5496,5.3856,5.3653,5.4668,5.766,5.7746,5.9708,6.6914,6.8368,7.0995,7.7962,9.106,0.0,11.0912,11.7396,0.0,0.0,0.0,0.0,0.0,0.0,11.7021,11.6126,11.4694,11.3813,11.3593,11.1588,11.0619,11.0619,11.0377,10.99,10.9092,10.9092,10.8982,10.8799,10.8982,0.0,0.0,0.0,0.0,11.1221,11.1221,11.1221,11.1111,11.0304,10.9496,10.8688,10.7902,10.8012,10.8505,10.8505,10.9606,11.0891,11.0891,11.0487,10.9995,10.9995,10.9276,10.8615,10.9297,10.9701,10.9995,10.9811,10.9679,10.9591,10.8909,10.8688,10.8505,10.8285,10.8505,10.8688,10.8285,10.7991,10.8012,10.8395,10.7697,10.7477,10.9224,10.8505,10.8306,10.9297,10.9092,10.8799,10.8799,10.8799,10.8688,10.8505,10.7792,10.7095,10.6413,10.6192,10.5789,10.5107,10.4887,10.421,10.2705,10.2081,10.2008,10.2412,10.12,10.1017,10.1824,10.0796,10.0503,5.46,5.6833,5.8964,5.8524,5.7881,5.7171,5.6393,5.5428,5.4448,5.3653,5.3518,5.4329,5.6984,5.7751,5.99,6.5823,6.8906,7.4327,0.0,0.0,10.77,11.5614,12.0279,0.0,0.0,0.0,0.0,0.0,0.0,11.669,11.5516,11.4327,11.3299,11.2506,11.0913,10.9995,10.9995,10.9297,10.8526,10.7697,10.7697,10.7514,10.711,10.7881,10.8526,0.0,0.0,0.0,11.012,11.012,11.0304,11.0487,10.9408,10.8894,10.8688,10.7498,10.7609,10.8285,10.8688,10.99,11.1221,11.1221,11.0891,11.0487,11.0083,10.9679,10.9386,10.9386,10.9679,10.9995,10.9995,10.9995,10.9922,10.9518,10.9408,10.9092,10.8395,10.8799,10.9092,10.8416,10.8175,10.8395,10.9202,10.8285,10.8123,10.9679,10.9297,10.9004,10.9922,10.99,10.99,10.99,10.99,10.979,10.9386,10.9004,10.8196,10.7021,10.7294,10.7,10.5715,10.6082,10.5495,10.3786,10.2999,10.2779,10.3219,10.2412,10.2412,10.3219,10.2375,10.2191,5.4059,5.6089,5.8084,5.8134,5.7306,5.6427,5.6325,5.4837,5.3518,5.3518,5.3585,5.4313,5.6401,5.8496,6.0999,6.4235,7.0396,0.0,9.4446,10.1982,10.9092,11.7204,11.9884,0.0,0.0,0.0,0.0,0.0,0.0,11.619,11.4892,11.3901,11.2689,11.1199,11.0304,10.9701,10.9518,10.8086,10.689,10.6009,10.6009,10.5605,10.5018,10.6486,10.7315,10.7498,0.0,0.0,10.8799,10.8799,10.9202,10.9701,10.8196,10.8012,10.8395,10.689,10.6911,10.7719,10.871,11.001,11.1221,11.1111,11.1001,11.0817,10.99,10.9606,10.9518,10.8799,10.9276,10.9995,10.979,10.979,10.9811,10.9701,10.9679,10.9518,10.8196,10.8982,10.9591,10.8086,10.8285,10.8982,10.9496,10.9202,10.9092,10.9922,10.9995,11.001,11.0215,11.0781,11.1221,11.1221,11.1221,11.0891,11.0193,11.0193,10.9496,10.8086,10.8416,10.7991,10.6507,10.689,10.6596,10.529,10.4394,10.399,10.41,10.4011,10.399,10.41,10.41,10.41,5.6528,5.8017,5.8118,5.5108,5.4634,5.4769,5.416,5.3754,5.3518,5.3518,5.3991,5.591,6.0755,6.2295,6.5205,7.247,0.0,9.026,0.0,0.0,11.2006,11.6777,0.0,0.0,0.0,0.0,0.0,0.0,0.0,11.5112,11.4818,11.3387,11.2212,11.1199,10.979,10.8285,10.7021,10.6706,10.5789,10.4284,10.4284,10.421,10.41,10.5091,10.5899,10.6596,0.0,10.8196,10.8799,10.8799,10.8909,10.8909,10.8012,10.7682,10.7719,10.6706,10.6911,10.7792,10.9297,11.0414,11.1111,11.0414,11.0193,10.99,10.8416,10.8012,10.7902,10.7792,10.8894,10.979,10.9202,10.8982,10.8799,10.8123,10.8526,10.9092,10.9496,10.9811,10.9679,10.8799,10.8688,10.8615,10.8086,10.8395,10.9092,10.9922,10.9995,11.0193,11.0891,11.1111,11.1221,11.1221,11.1221,11.1089,11.1001,11.1001,11.0597,10.9701,10.849,10.7388,10.6413,10.5789,10.5715,10.6192,10.4687,10.421,10.4887,10.421,10.4284,10.4887,10.4887,10.4887,5.5141,5.6055,5.6494,5.5987,5.707,5.7925,5.6816,5.6574,5.6711,5.7123,5.7501,5.8892,6.2647,6.6426,7.2627,8.3891,0.0,9.7159,10.4721,0.0,0.0,0.0,0.0,0.0,0.0,0.0,0.0,0.0,0.0,0.0,11.3497,11.28,11.1588,11.001,10.9202,10.7587,10.5112,10.4981,10.4394,10.3219,10.2779,10.2815,10.3293,10.3602,10.4504,10.5715,0.0,10.6706,10.7477,10.7477,10.7792,10.8123,10.7315,10.7205,10.7609,10.7205,10.7609,10.8416,10.9092,10.99,11.0487,11.0083,10.9995,10.9811,10.8578,10.8211,10.8196,10.7719,10.8123,10.871,10.8799,10.8799,10.8688,10.8285,10.8894,10.9386,10.9386,10.9679,10.9922,10.9496,10.9386,10.9518,10.9496,10.9496,10.9679,11.0487,11.0304,11.0304,11.1111,11.1221,11.1221,11.1221,11.1221,11.1221,11.1221,11.1221,11.0891,11.0105,10.849,10.7388,10.7095,10.6727,10.6413,10.6376,10.6103,10.592,10.5789,10.592,10.6103,10.6486,10.689,10.689,5.4329,5.4938,5.5818,5.7679,5.8964,5.992,6.0687,6.0459,6.0665,6.2593,6.3134,6.3938,6.6093,7.2567,0.0,9.3623,9.9006,10.3586,0.0,0.0,0.0,0.0,0.0,0.0,0.0,0.0,0.0,0.0,0.0,0.0,11.2396,11.1992,11.0891,10.8909,10.8395,10.6816,10.388,10.3513,10.2889,10.2118,10.1494,10.1494,10.2118,10.2301,10.3293,10.4777,10.4997,10.5605,10.6376,10.6376,10.6801,10.7315,10.6596,10.6801,10.7315,10.7315,10.7807,10.8505,10.8505,10.8982,10.9701,10.9518,10.9386,10.9297,10.8505,10.8395,10.8416,10.7477,10.7498,10.7719,10.8416,10.8688,10.8799,10.8578,10.8982,10.9408,10.9092,10.9386,10.9811,10.9995,10.9995,11.0193,11.0817,11.0597,11.0487,11.1111,11.0707,11.0487,11.1111,11.1221,11.1221,11.1221,11.1221,11.1221,11.1221,11.1221,11.0891,11.0105,10.8799,10.8012,10.7609,10.7792,10.7425,10.6413,10.7205,10.7315,10.6691,10.7315,10.7719,10.7902,10.8505,10.8505,5.6833,5.7629,5.7866,5.8709,5.7002,5.6949,6.414,6.4252,6.4303,6.9508,7.1177,7.2243,7.3893,8.2511,9.1579,9.8316,10.4882,11.0891,0.0,0.0,0.0,0.0,0.0,0.0,0.0,0.0,0.0,0.0,0.0,0.0,11.2396,11.1001,10.9811,10.8799,10.7404,10.5678,10.388,10.2375,10.1294,10.0503,10.0393,10.0393,10.0503,10.12,10.2505,10.399,10.4798,10.5605,10.6376,10.6376,10.6413,10.6486,10.6413,10.6413,10.6486,10.6486,10.7021,10.7719,10.7719,10.8175,10.8799,10.8012,10.7792,10.7609,10.678,10.7095,10.7498,10.6706,10.7021,10.7609,10.7682,10.8211,10.8615,10.7902,10.7719,10.8196,10.9591,10.9386,10.9092,10.9922,10.9995,10.9973,11.0105,11.0707,11.1111,11.1221,11.1184,11.1111,11.1221,11.1221,11.1221,11.1221,11.1221,11.1221,11.1221,11.1221,11.0891,11.0105,10.9922,10.9187,10.7682,10.8285,10.7991,10.6413,10.7205,10.7609,10.7498,10.7609,10.8012,10.8688,10.8799,10.8799,5.4735,5.6628,5.8531,6.0065,6.0417,6.1726,6.6778,6.9866,7.2741,7.6482,7.8675,8.0586,8.2703,8.9695,9.69,10.2192,10.8727,11.4011,0.0,0.0,0.0,0.0,0.0,0.0,0.0,0.0,0.0,0.0,0.0,0.0,11.0891,10.99,10.871,10.7294,10.6706,10.5385,10.3182,10.2101,10.0796,9.9548,9.9035,9.9071,9.9548,9.9328,10.0413,10.2505,10.3293,10.41,10.4908,10.5972,10.6082,10.5584,10.6192,10.6376,10.6507,10.7021,10.7315,10.7609,10.7609,10.7792,10.8012,10.7719,10.7609,10.7498,10.7205,10.7388,10.7388,10.6596,10.7021,10.7498,10.7021,10.7073,10.7425,10.7609,10.8012,10.8615,10.9811,11.0193,11.0414,11.0707,11.0707,11.0707,11.0707,11.1001,11.1221,11.1221,11.1221,11.1221,11.1221,11.1221,11.1221,11.1221,11.1221,11.1221,11.1221,11.1221,11.1111,11.0781,11.0304,10.9518,10.8395,10.9092,10.8982,10.7881,10.871,10.8799,10.8285,10.8799,10.9202,10.9591,11.0083,10.979,5.3695,5.5464,5.7786,6.0424,6.2866,6.6143,7.1833,7.5672,7.957,8.4753,8.6537,8.7792,8.9957,9.4707,0.0,0.0,11.0905,0.0,0.0,0.0,0.0,0.0,0.0,0.0,0.0,0.0,0.0,0.0,0.0,0.0,0.0,10.8505,10.7404,10.6009,10.5495,10.4284,10.2301,10.131,10.0099,9.8704,9.7897,9.7933,9.8704,9.8411,9.9438,10.1494,10.2375,10.3293,10.4394,10.5495,10.5789,10.5605,10.6192,10.6376,10.6507,10.7021,10.7205,10.7205,10.7205,10.7205,10.7205,10.7205,10.7205,10.7205,10.7205,10.7388,10.7388,10.6596,10.7021,10.7388,10.6596,10.6617,10.7021,10.7792,10.8175,10.8799,11.0083,11.0597,11.0891,11.1184,11.1221,11.1221,11.1221,11.1221,11.1221,11.1221,11.1221,11.1221,11.1221,11.1221,11.1221,11.1221,11.1221,11.1221,11.1221,11.1221,11.1221,11.1221,11.0707,11.001,10.9202,10.9679,10.9606,10.8799,10.9312,10.9496,10.9202,10.9679,11.0083,11.0377,11.0891,11.0487,5.4572,5.4622,5.5599,5.9643,6.3543,6.9169,7.9829,8.1481,8.3826,9.4545,9.485,9.3675,9.5235,9.751,0.0,0.0,0.0,0.0,0.0,0.0,0.0,0.0,0.0,0.0,0.0,0.0,0.0,0.0,0.0,0.0,0.0,10.678,10.6009,10.5107,10.3513,10.2301,10.1514,9.9879,9.8704,9.7897,9.7089,9.7126,9.7897,9.8704,9.9952,10.1514,10.2301,10.3623,10.5107,10.5107,10.5605,10.6376,10.6376,10.6376,10.6376,10.6376,10.6376,10.6376,10.6376,10.6376,10.6376,10.6376,10.6376,10.6376,10.6376,10.7021,10.7388,10.6596,10.7021,10.7388,10.6596,10.7021,10.7792,10.8615,10.8175,10.8306,11.0707,11.0597,11.0193,11.0979,11.1221,11.1221,11.1221,11.1221,11.1221,11.1221,11.1221,11.1221,11.1221,11.1221,11.1221,11.1221,11.1221,11.1221,11.1221,11.1221,11.1221,11.1221,11.1221,11.0817,11.001,10.9995,10.9606,10.8799,10.8799,10.9202,10.9995,10.9995,11.0414,11.1221,11.1221,11.0781,5.2827,5.5062,5.8139,6.2008,6.8007,7.5316,8.424,8.6441,8.9182,9.8214,9.9512,9.8961,9.8888,10.1788,0.0,0.0,0.0,0.0,0.0,0.0,0.0,0.0,0.0,0.0,0.0,0.0,0.0,0.0,0.0,0.0,0.0,10.4504,10.3182,10.1788,10.131,10.0613,9.9805,9.8778,9.8117,9.7897,9.7089,9.6832,9.7052,9.7309,9.83,9.9879,10.0686,10.1604,10.2705,10.3806,10.5091,10.6376,10.6376,10.6376,10.6376,10.6376,10.6376,10.6376,10.6376,10.6376,10.6376,10.6376,10.6376,10.6376,10.6376,10.6617,10.6727,10.6507,10.6617,10.6727,10.6507,10.6617,10.7073,10.8505,10.8615,10.8982,11.0817,11.1001,11.0891,11.1184,11.1221,11.1221,11.1221,11.1221,11.1221,11.1221,11.1221,11.1221,11.1221,11.1221,11.1221,11.1221,11.1221,11.1221,11.1221,11.1221,11.1221,11.1221,11.1221,11.1111,11.0891,11.0817,11.0707,11.0487,11.0487,11.0597,11.0817,11.0817,11.1001,11.1221,11.1221,11.0487,5.4235,5.7058,6.0898,6.6073,7.2188,7.9372,8.8812,9.3568,9.7592,10.319,10.3586,10.2889,10.2705,10.4504,0.0,0.0,0.0,0.0,0.0,0.0,0.0,0.0,0.0,0.0,0.0,0.0,0.0,0.0,0.0,0.0,0.0,10.2412,10.12,9.9879,9.9805,9.9438,9.8631,9.8117,9.775,9.7419,9.6942,9.6685,9.6722,9.7016,9.7713,9.8704,10.0099,10.12,10.2081,10.3696,10.4981,10.5899,10.6302,10.6192,10.5899,10.5899,10.5678,10.5385,10.5385,10.5385,10.5385,10.5385,10.5385,10.5495,10.5789,10.5899,10.6009,10.6302,10.6376,10.6376,10.6376,10.6376,10.678,10.8395,10.8799,10.9202,11.0891,11.1221,11.1221,11.1221,11.1221,11.1221,11.1221,11.1221,11.1221,11.1221,11.1221,11.1221,11.1221,11.1221,11.1221,11.1221,11.1221,11.1221,11.1221,11.1221,11.1221,11.1221,11.1221,11.1221,11.1221,11.0891,11.0891,11.1221,11.0891,11.0891,11.1221,11.1221,11.1221,11.1221,11.1221,11.0487,5.7353,5.9881,6.3605,7.1092,7.6672,8.3153,9.3948,10.1604,10.689,10.8211,10.7,10.5899,10.6596,10.6119,10.6391,0.0,0.0,0.0,0.0,0.0,0.0,0.0,0.0,0.0,0.0,0.0,0.0,0.0,0.0,0.0,0.0,10.0503,9.9585,9.8814,9.8704,9.83,9.7586,9.7586,9.7236,9.6575,9.6575,9.6649,9.6722,9.7456,9.7823,9.8007,10.0413,10.1788,10.2705,10.43,10.4997,10.5091,10.5899,10.5789,10.4997,10.4997,10.4504,10.388,10.388,10.388,10.388,10.388,10.388,10.399,10.4798,10.4997,10.5201,10.6009,10.6302,10.6302,10.6397,10.6376,10.678,10.8285,10.8688,10.9202,11.0817,11.1089,11.1221,11.1221,11.1221,11.1221,11.1221,11.1221,11.1221,11.1221,11.1221,11.1221,11.1221,11.1221,11.1221,11.1221,11.1221,11.1221,11.1221,11.1221,11.1221,11.1221,11.1221,11.1221,11.1221,11.0487,11.0487,11.1221,11.0487,11.0487,11.1221,11.1221,11.1221,11.1221,11.1111,11.0707,5.6581,6.0002,6.4917,7.4038,8.5113,9.5376,10.16,10.5311,10.7095,10.6119,10.8006,10.979,10.9276,10.9606,0.0,0.0,0.0,0.0,0.0,0.0,0.0,0.0,0.0,0.0,0.0,0.0,0.0,0.0,0.0,0.0,10.0613,9.8594,9.7126,9.6299,9.5658,9.5254,9.507,9.507,9.529,0.0,9.5749,9.6098,9.6722,9.6869,9.7309,9.8007,9.9769,10.098,10.1918,10.3513,10.421,10.421,10.5091,10.4908,10.421,10.421,10.399,10.388,10.388,10.388,10.388,10.388,10.388,10.388,10.41,10.421,10.432,10.5107,10.5422,10.5495,10.6192,10.6376,10.6596,10.7587,10.8285,10.9092,11.001,11.0781,11.1221,11.1221,11.1221,11.1221,11.1221,11.1221,11.1221,11.1221,11.1221,11.1221,11.1221,11.1221,11.1221,11.1221,11.1221,11.1221,11.1221,11.1221,11.1221,11.1221,11.1221,11.1221,11.1221,11.1001,11.1001,11.1221,11.1001,11.1001,11.1221,11.1221,11.1221,11.1221,11.0597,10.979,5.7748,6.2829,6.9672,8.0925,9.0869,9.8851,10.2522,10.5296,10.6911,10.6413,10.8615,11.0597,11.0597,11.0891,0.0,0.0,0.0,0.0,0.0,0.0,0.0,0.0,0.0,0.0,0.0,0.0,0.0,0.0,0.0,9.9585,9.9181,9.7236,9.5951,9.5492,9.4703,9.4299,9.4299,9.4299,9.452,9.4923,9.4923,9.5144,9.5584,9.6355,9.6942,9.7419,9.9035,10.0209,10.111,10.2705,10.3293,10.3403,10.421,10.4027,10.3293,10.3293,10.3109,10.2799,10.2799,10.2799,10.2799,10.2799,10.2799,10.2779,10.3182,10.3293,10.3586,10.4798,10.5107,10.529,10.6192,10.6376,10.6486,10.689,10.7587,10.8395,10.9297,11.0083,11.0597,11.0597,11.0891,11.1221,11.1221,11.1221,11.1221,11.1221,11.1221,11.1221,11.1221,11.1221,11.1221,11.1221,11.1221,11.1221,11.1221,11.1221,11.1221,11.1221,11.1221,11.1221,11.1221,11.1221,11.1221,11.1221,11.1221,11.1221,11.1221,11.1221,11.1221,11.1221,11.0781,11.0304,5.8934,6.6438,7.579,8.7479,9.4189,9.8503,10.0816,10.3586,10.6009,10.7021,10.86,11.001,11.0707,0.0,0.0,0.0,0.0,0.0,0.0,0.0,0.0,0.0,0.0,0.0,0.0,0.0,0.0,0.0,0.0,9.7843,9.7676,9.6171,9.5254,9.5088,9.4299,9.3859,9.3859,9.3859,9.3932,9.4079,9.4226,9.4226,9.4153,9.5621,9.6355,9.6575,9.819,9.9365,10.0209,10.1788,10.2412,10.2412,10.3182,10.2889,10.2118,10.2118,10.1677,10.109,10.12,10.1294,10.1274,10.1514,10.1514,10.1604,10.2301,10.2485,10.2815,10.441,10.4908,10.5107,10.6119,10.6376,10.6376,10.6376,10.6911,10.7609,10.8395,10.9312,10.9995,10.9995,11.0597,11.1221,11.1221,11.1221,11.1221,11.1221,11.1221,11.1221,11.1221,11.1221,11.1221,11.1221,11.1221,11.1221,11.1221,11.1221,11.1221,11.1221,11.1221,11.1221,11.1221,11.1221,11.1221,11.1221,11.1221,11.1221,11.1221,11.1221,11.1221,11.1221,11.1111,11.1001,5.7497,6.8938,8.1302,8.7914,9.3749,9.8337,10.0099,10.1898,10.3623,0.0,10.7294,10.8982,0.0,0.0,0.0,0.0,0.0,0.0,0.0,0.0,0.0,0.0,0.0,0.0,0.0,0.0,0.0,0.0,9.8851,9.7603,9.6906,9.5327,9.4153,9.3455,9.2574,9.2134,9.2134,9.2134,9.2501,9.3272,9.3969,9.3932,9.3308,9.4189,9.4997,9.5749,9.7346,9.8521,9.9402,10.098,10.12,10.0686,10.1494,10.0907,9.9585,9.9585,9.9492,9.9512,10.0209,10.0503,10.0576,10.1294,10.1514,10.1514,10.1604,10.1698,10.1991,10.3586,10.41,10.4394,10.5972,10.6376,10.6376,10.6376,10.6486,10.6801,10.7609,10.8909,10.9995,10.9995,11.0597,11.1221,11.1221,11.1221,11.1221,11.1221,11.1221,11.1221,11.1221,11.1221,11.1221,11.1221,11.1221,11.1221,11.1221,11.1221,11.1221,11.1221,11.1221,11.1221,11.1221,11.1221,11.1221,11.1221,11.1221,11.1221,11.1221,11.1221,11.1221,11.1221,11.0487,11.0215,6.2021,7.0806,7.9491,8.7418,9.1602,9.4593,9.7603,9.9548,10.1017,10.2191,10.3586,10.5296,0.0,0.0,0.0,0.0,0.0,0.0,0.0,0.0,0.0,0.0,0.0,0.0,0.0,0.0,0.0,0.0,9.7199,9.6208,9.5401,9.4263,9.3455,9.3125,9.2244,9.1803,9.1803,9.1803,9.1987,9.2391,9.2721,9.2721,9.2391,9.3235,9.4079,9.4923,9.6539,9.7676,9.8521,9.9695,9.9952,9.9659,9.9989,9.9732,9.9108,9.9108,9.9108,9.9125,9.9512,9.9916,10.0393,10.0686,10.109,10.1514,10.1514,10.1514,10.1677,10.2889,10.3219,10.3586,10.5201,10.5715,10.5789,10.6302,10.6376,10.6486,10.6911,10.7792,10.8894,10.9811,11.0597,11.1221,11.1221,11.1221,11.1221,11.1221,11.1221,11.1221,11.1221,11.1221,11.1221,11.1221,11.1221,11.1221,11.1221,11.1221,11.1221,11.1221,11.1221,11.1221,11.1221,11.1221,11.1221,11.1221,11.1221,11.1221,11.1221,11.1221,11.1221,11.1221,11.0817,11.0707,6.3841,7.0051,7.5674,8.3931,8.8005,9.0849,9.4116,9.6428,9.8117,0.0,9.9732,10.111,0.0,0.0,0.0,0.0,0.0,0.0,0.0,0.0,0.0,0.0,0.0,0.0,0.0,0.0,0.0,0.0,9.5547,9.485,9.4042,9.3418,9.3015,9.2794,9.2134,9.1803,9.1803,9.1803,9.1803,9.1803,9.1583,9.151,9.151,9.217,9.2905,9.3749,9.5584,9.6832,9.764,9.8447,9.8814,9.8814,9.8814,9.8668,9.8484,9.8484,9.8484,9.8521,9.8741,9.9328,9.9989,10.0209,10.0796,10.1514,10.1514,10.1514,10.1698,10.2705,10.2999,10.3403,10.4997,10.5401,10.5605,10.6192,10.6376,10.6507,10.6691,10.7294,10.8306,10.9679,11.0597,11.1221,11.1221,11.1221,11.1221,11.1221,11.1221,11.1221,11.1221,11.1221,11.1221,11.1221,11.1221,11.1221,11.1221,11.1221,11.1221,11.1221,11.1221,11.1221,11.1221,11.1221,11.1221,11.1221,11.1221,11.1221,11.1221,11.1221,11.1221,11.1221,11.1221,11.1221,5.857,6.5062,7.1394,7.5726,8.2627,8.8573,8.9546,9.2244,9.4777,9.5565,9.6392,0.0,0.0,0.0,0.0,0.0,0.0,0.0,0.0,0.0,0.0,0.0,0.0,0.0,0.0,0.0,0.0,0.0,9.4373,9.4006,9.3198,9.3125,9.2721,9.1877,9.1803,9.1803,9.1803,9.1803,9.1803,9.1803,9.1033,9.0665,9.0665,9.0702,9.1179,9.206,9.452,9.6025,9.6832,9.764,9.797,9.797,9.797,9.7493,9.6832,9.6832,9.6832,9.6942,9.7676,9.8484,9.9292,10.0099,10.0796,10.1514,10.1514,10.1514,10.1808,10.3403,10.3806,10.421,10.5899,10.6302,10.6302,10.6376,10.6376,10.6596,10.7388,10.8196,10.8982,10.979,11.0597,11.1221,11.1221,11.1221,11.1221,11.1221,11.1221,11.1221,11.1221,11.1221,11.1221,11.1221,11.1221,11.1221,11.1221,11.1221,11.1221,11.1221,11.1221,11.1221,11.1221,11.1221,11.1221,11.1221,11.1221,11.1221,11.1221,11.1221,11.1221,11.1221,11.1221,11.1221,5.6915,6.1236,6.6219,7.2899,7.7524,8.1342,8.4776,8.8445,9.1235,9.1528,9.3492,0.0,0.0,0.0,0.0,0.0,0.0,0.0,0.0,0.0,0.0,0.0,0.0,0.0,0.0,0.0,0.0,0.0,0.0,9.3161,9.2317,9.2281,9.2134,9.1803,9.1803,9.1803,9.1803,9.1803,9.1546,9.1033,9.0739,9.0317,8.984,9.0354,9.0776,9.1143,9.3125,9.4703,9.5988,9.6795,9.7126,9.7126,9.7126,9.6942,9.6685,9.6685,9.6685,9.6722,9.7016,9.764,9.8447,9.9255,10.0099,10.0796,10.131,10.1514,10.1677,10.2815,10.2779,10.2909,10.5018,10.5201,10.5112,10.6082,10.6376,10.6596,10.7388,10.8175,10.8909,10.9202,11.0304,11.1221,11.1221,11.1221,11.1221,11.1221,11.1221,11.1221,11.1221,11.1221,11.1221,11.1221,11.1221,11.1221,11.1221,11.1221,11.1221,11.1221,11.1221,11.1221,11.1221,11.1221,11.1221,11.1221,11.1221,11.1221,11.1221,11.1221,11.1221,11.1221,11.1221,11.1221,5.5526,5.8689,6.2952,7.0257,7.2899,7.5322,8.1562,8.4646,8.6721,8.8592,9.0959,0.0,0.0,0.0,0.0,0.0,0.0,0.0,0.0,0.0,0.0,0.0,0.0,0.0,0.0,0.0,0.0,0.0,0.0,0.0,9.184,9.1803,9.1803,9.1803,9.1803,9.1657,9.14,9.14,9.0996,9.017,8.9931,8.9528,8.9033,8.9564,8.9931,9.028,9.195,9.3455,9.4758,9.5547,9.5878,9.5914,9.6208,9.6318,9.6318,9.6612,9.6685,9.6685,9.6685,9.7236,9.8007,9.8851,9.9659,10.0503,10.1294,10.1514,10.1698,10.2485,10.2301,10.2301,10.421,10.4504,10.4687,10.6103,10.6376,10.6596,10.7388,10.8175,10.8909,10.9202,11.0304,11.1221,11.1221,11.1221,11.1221,11.1221,11.1221,11.1221,11.1221,11.1221,11.1221,11.1221,11.1221,11.1221,11.1221,11.1221,11.1221,11.1221,11.1221,11.1221,11.1221,11.1221,11.1221,11.1221,11.1221,11.1221,11.1221,11.1221,11.1221,11.1221,11.1221,11.1221,0.0,0.0,0.0,6.7233,6.8665,7.1027,7.9764,0.0,8.1138,8.6775,8.8592,0.0,0.0,0.0,0.0,0.0,0.0,0.0,0.0,0.0,0.0,0.0,0.0,0.0,0.0,0.0,0.0,0.0,9.1803,9.1803,9.1803,9.1767,9.1767,9.1767,9.1767,9.14,9.0629,9.0592,9.017,8.9363,8.8573,8.8206,8.8169,8.8206,8.8683,8.9473,9.1106,9.2281,9.3125,9.3969,9.4299,9.441,9.5217,9.5492,9.5639,9.6428,9.6685,9.6685,9.6685,9.7199,9.8007,9.8851,9.9622,10.0393,10.12,10.1514,10.1698,10.2485,10.2705,10.2889,10.3696,10.4504,10.529,10.6192,10.6397,10.6596,10.7498,10.8175,10.8982,10.979,11.0597,11.1221,11.1221,11.1221,11.1221,11.1221,11.1221,11.1221,11.1221,11.1221,11.1221,11.1221,11.1221,11.1221,11.1221,11.1221,11.1221,11.1221,11.1221,11.1221,11.1221,11.1221,11.1221,11.1221,11.1221,11.1221,11.1221,11.1221,11.1221,11.1221,11.1221,11.1221,5.4309,0.0,0.0,0.0,0.0,0.0,0.0,0.0,7.5102,8.0204,8.3271,0.0,0.0,0.0,0.0,0.0,0.0,0.0,0.0,0.0,0.0,0.0,0.0,0.0,0.0,0.0,0.0,0.0,9.1803,9.1803,9.1803,9.1253,9.0922,9.0922,9.0922,9.0849,9.0592,9.0592,8.9895,8.8536,8.8316,8.7912,8.7344,8.8519,8.9179,8.9473,9.1106,9.195,9.2281,9.3712,9.463,9.518,9.5418,9.5859,9.6392,9.6612,9.6685,9.6685,9.6685,9.6832,9.7273,9.8668,9.9255,9.9695,10.111,10.1514,10.1698,10.2485,10.2301,10.2212,10.3513,10.4504,10.529,10.6192,10.5899,10.6009,10.7991,10.8196,10.8285,10.9679,11.0597,11.1001,11.0414,11.0817,11.1001,11.0414,11.0817,11.1221,11.1221,11.1221,11.1221,11.1221,11.1221,11.1221,11.1221,11.1221,11.1221,11.1221,11.1221,11.1221,11.1221,11.1221,11.1221,11.1221,11.1221,11.1221,11.1221,11.1221,11.1221,11.1221,11.1221,11.1221,0.0,0.0,0.0,0.0,0.0,0.0,6.699,6.8238,6.9963,0.0,0.0,0.0,0.0,0.0,0.0,0.0,0.0,0.0,0.0,0.0,0.0,0.0,0.0,0.0,0.0,9.0519,9.0812,9.0812,9.0812,9.0812,9.0812,9.0354,9.0097,9.0097,9.0097,8.995,8.9601,8.9601,8.8793,8.7215,8.7545,8.7288,8.6554,8.8152,8.9069,8.9473,9.0739,9.1473,9.1877,9.2831,9.3529,9.4042,9.474,9.529,9.5768,9.6465,9.6685,9.6685,9.6685,9.6685,9.6906,9.819,9.8594,9.8888,10.0503,10.098,10.122,10.2008,10.1918,10.1918,10.3476,10.421,10.4908,10.6082,10.6009,10.6119,10.7881,10.7881,10.8086,10.9701,11.0083,11.001,10.9606,11.0193,11.0487,11.0105,11.0707,11.1221,11.1221,11.1221,11.1221,11.1221,11.1221,11.1221,11.1221,11.1221,11.1221,11.1221,11.1221,11.1221,11.1221,11.1221,11.1221,11.1221,11.1221,11.1221,11.1221,11.1221,11.1221,11.1221,11.1221,11.1221,0.0,0.0,0.0,0.0,0.0,0.0,6.6279,6.5888,6.5962,0.0,0.0,0.0,0.0,0.0,0.0,0.0,0.0,0.0,0.0,0.0,0.0,0.0,0.0,0.0,8.9143,8.929,8.94,8.94,8.94,8.9363,8.9253,8.9253,8.9253,8.9253,8.9253,8.8923,8.8206,8.8096,8.7288,8.58,8.6518,8.6481,8.5874,8.7545,8.8702,8.9436,9.0354,9.1143,9.1803,9.1803,9.184,9.2097,9.3565,9.4263,9.4593,9.6025,9.6612,9.6685,9.6685,9.6685,9.6832,9.764,9.7916,9.821,9.9805,10.0209,10.0319,10.109,10.1384,10.1918,10.3476,10.388,10.4284,10.6009,10.6302,10.6486,10.7388,10.7498,10.7902,10.9386,10.9202,10.8799,10.8688,10.9386,10.9995,10.9922,11.0597,11.1221,11.1221,11.1221,11.1221,11.1221,11.1221,11.1221,11.1221,11.1221,11.1221,11.1221,11.1221,11.1221,11.1221,11.1221,11.1221,11.1221,11.1221,11.1221,11.1221,11.1221,11.1221,11.1221,11.1221,11.1221,0.0,0.0,0.0,0.0,0.0,0.0,6.1471,6.2658,6.4874,0.0,0.0,0.0,0.0,0.0,0.0,0.0,0.0,0.0,0.0,0.0,0.0,0.0,0.0,0.0,8.7601,8.8629,8.94,8.94,8.94,8.9106,8.8463,8.8426,8.8426,8.8426,8.8426,8.8353,8.8206,8.7582,8.6738,8.58,8.5967,8.593,8.5874,8.8133,8.9253,8.9473,9.0959,9.1657,9.1803,9.1803,9.2207,9.2868,9.3198,9.4116,9.5308,9.5621,9.6135,9.6685,9.6685,9.6685,9.6832,9.764,9.7916,9.821,9.9805,9.9842,9.9512,10.0283,10.098,10.1918,10.3476,10.388,10.4284,10.6009,10.5899,10.5789,10.7315,10.7095,10.689,10.7902,10.8526,10.8578,10.7881,10.8982,10.9811,10.9092,11.0304,11.1221,11.1221,11.1221,11.1221,11.1221,11.1221,11.1221,11.1221,11.1221,11.1221,11.1221,11.1221,11.1221,11.1221,11.1221,11.1221,11.1221,11.1221,11.1221,11.1221,11.1221,11.1221,11.1221,11.1221,11.1221,0.0,0.0,0.0,5.9685,0.0,0.0,0.0,6.075,6.1741,6.4163,6.5632,0.0,0.0,0.0,0.0,0.0,0.0,0.0,0.0,0.0,0.0,0.0,0.0,0.0,8.5216,8.5913,8.6574,8.6978,8.7014,8.6848,8.6444,8.6775,8.6811,8.6407,8.6775,8.6811,8.6407,8.6004,8.5416,8.4609,8.5416,8.56,8.5306,8.8115,8.94,8.9473,9.1106,9.1803,9.1803,9.1803,9.206,9.2501,9.2941,9.3602,9.441,9.5217,9.5768,9.6135,9.6575,9.6685,9.6759,9.7163,9.7309,9.7603,9.9218,9.9989,10.0283,10.0283,10.0927,10.1808,10.2999,10.3586,10.421,10.5495,10.5715,10.6009,10.678,10.6691,10.6486,10.6911,10.7294,10.7477,10.7095,10.8012,10.871,10.8306,10.9606,11.0597,11.0597,11.1001,11.1221,11.1221,11.1221,11.1221,11.1221,11.1221,11.1221,11.1221,11.1221,11.1221,11.1221,11.1221,11.1221,11.1221,11.1221,11.1221,11.1221,11.1221,11.1221,11.1221,11.1221,11.1221,0.0,0.0,0.0,0.0,0.0,6.0419,0.0,0.0,0.0,6.1692,0.0,0.0,0.0,0.0,0.0,0.0,0.0,0.0,0.0,0.0,0.0,0.0,0.0,0.0,8.283,8.2941,8.3271,8.4095,8.3985,8.4058,8.4352,8.4976,8.5123,8.4609,8.5233,8.527,8.4609,8.4462,8.4058,8.3418,8.4866,8.5233,8.4719,8.7748,8.9179,8.9253,9.0886,9.1583,9.1583,9.173,9.1803,9.1877,9.2574,9.2941,9.3272,9.4722,9.5383,9.564,9.6428,9.6685,9.6685,9.6685,9.6795,9.7126,9.83,9.9769,10.0907,10.0283,10.0613,10.1494,10.2595,10.3403,10.41,10.5107,10.5899,10.6376,10.6376,10.6376,10.6376,10.6376,10.6376,10.6376,10.6376,10.7095,10.7609,10.7609,10.9004,10.9995,10.9995,11.0707,11.1221,11.1221,11.1221,11.1221,11.1221,11.1221,11.1221,11.1221,11.1221,11.1221,11.1221,11.1221,11.1221,11.1221,11.1221,11.1221,11.1221,11.1221,11.1221,11.1221,11.1221,11.1221,0.0,0.0,0.0,0.0,6.464,0.0,0.0,0.0,6.2658,6.015,0.0,0.0,0.0,0.0,0.0,0.0,0.0,0.0,0.0,0.0,0.0,0.0,0.0,0.0,0.0,8.1269,8.1599,8.2406,8.1819,8.2039,8.3454,8.3601,8.3968,8.4572,8.4682,8.4682,8.4609,8.3895,8.3491,8.3418,8.4315,8.4682,8.4682,8.7178,8.8353,8.8426,9.0041,9.0739,9.0812,9.151,9.1803,9.1803,9.1913,9.2427,9.3198,9.4116,9.4887,9.5621,9.6428,9.6685,9.6685,9.6685,9.7163,9.764,9.7126,9.8117,9.9365,9.9255,9.9805,10.098,10.3182,10.3806,10.4284,10.5899,10.6302,10.6376,10.6376,10.6376,10.6376,10.6376,10.6376,10.6376,10.6376,10.7095,10.7609,10.7609,10.9004,10.9995,10.9995,11.0707,11.1221,11.1221,11.1221,11.1221,11.1221,11.1221,11.1221,11.1221,11.1221,11.1221,11.1221,11.1221,11.1221,11.1221,11.1221,11.1221,11.1221,11.1221,11.1221,11.1221,11.1221,11.1221,0.0,0.0,0.0,0.0,0.0,0.0,0.0,0.0,6.0309,0.0,0.0,0.0,0.0,0.0,0.0,0.0,0.0,0.0,0.0,0.0,0.0,0.0,0.0,0.0,0.0,0.0,0.0,0.0,7.85,7.894,7.914,8.0959,8.217,8.2517,8.2957,8.3214,8.3214,8.2884,8.27,8.2737,8.3985,8.4609,8.4682,8.7105,8.8206,8.8243,8.9417,9.017,9.0629,9.0959,9.1363,9.1803,9.1803,9.2024,9.2501,9.3822,9.452,9.4997,9.6245,9.6685,9.6685,9.6685,9.7236,9.775,9.6942,9.7823,9.9108,9.9108,9.9695,10.0613,10.2081,10.3182,10.41,10.4798,10.5678,10.6376,10.6376,10.6376,10.6376,10.6376,10.6376,10.6376,10.6376,10.6691,10.6911,10.6911,10.7902,10.882,10.9202,11.001,11.0707,11.1184,11.1221,11.1221,11.1221,11.1221,11.1221,11.1221,11.1221,11.1221,11.1221,11.1221,11.1221,11.1221,11.1221,11.1221,11.1221,11.1221,11.1221,11.1221,11.1221,11.1221,6.3563,0.0,0.0,0.0,0.0,0.0,0.0,0.0,0.0,0.0,0.0,0.0,0.0,0.0,0.0,0.0,0.0,0.0,0.0,0.0,0.0,0.0,0.0,0.0,0.0,0.0,0.0,7.428,7.472,7.5234,7.5726,7.8038,7.9764,8.0645,8.1452,8.1856,8.1856,8.2076,8.2186,8.2223,8.3618,8.4278,8.4352,8.6554,8.7545,8.7582,8.8629,8.951,9.028,9.0519,9.1069,9.1803,9.1803,9.1803,9.1987,9.3675,9.4299,9.452,9.6135,9.6685,9.6685,9.6685,9.7089,9.7456,9.6869,9.7676,9.8814,9.9035,9.9695,10.0503,10.1624,10.2909,10.4011,10.421,10.5311,10.6376,10.6376,10.6376,10.6376,10.6376,10.6376,10.6376,10.6376,10.6376,10.6376,10.6376,10.7095,10.7902,10.8688,10.9496,11.0304,11.1111,11.1221,11.1221,11.1221,11.1221,11.1221,11.1221,11.1221,11.1221,11.1221,11.1221,11.1221,11.1221,11.1221,11.1221,11.1221,11.1221,11.1221,11.1221,11.1221,11.1221,0.0,0.0,0.0,6.4224,0.0,0.0,0.0,0.0,6.2205,0.0,0.0,0.0,0.0,0.0,0.0,0.0,0.0,0.0,0.0,0.0,0.0,0.0,0.0,0.0,0.0,0.0,7.1784,7.2532,7.0463,7.0866,7.472,7.505,7.657,7.9743,8.0608,8.1048,8.1048,8.1819,8.2186,8.2186,8.3014,8.3454,8.3491,8.5123,8.5874,8.5984,8.7545,8.8666,8.951,9.028,9.1069,9.1803,9.1803,9.1803,9.1987,9.3675,9.4299,9.452,9.6135,9.6685,9.6685,9.6685,9.6722,9.6722,9.6722,9.7273,9.808,9.8888,9.9695,10.0686,10.2301,10.3293,10.41,10.4908,10.5715,10.6376,10.6376,10.6376,10.6376,10.6376,10.6376,10.6376,10.6376,10.6376,10.6376,10.6376,10.7095,10.7902,10.8688,10.9496,11.0304,11.1111,11.1221,11.1221,11.1221,11.1221,11.1221,11.1221,11.1221,11.1221,11.1221,11.1221,11.1221,11.1221,11.1221,11.1221,11.1221,11.1221,11.1221,11.1221,11.1221,11.1221,0.0,0.0,7.1651,6.6549,0.0,0.0,0.0,0.0,0.0,0.0,0.0,0.0,0.0,0.0,0.0,0.0,0.0,0.0,0.0,0.0,0.0,0.0,0.0,0.0,0.0,0.0,0.0,6.6953,6.6696,6.7577,7.0,7.2642,7.5102,7.7268,7.9213,8.0461,8.1012,8.1782,8.2186,8.2186,8.303,8.3675,8.4242,8.5306,8.6077,8.6664,8.7729,8.8683,8.9473,9.028,9.1069,9.1803,9.1803,9.1803,9.195,9.3088,9.3822,9.452,9.6135,9.6685,9.6685,9.6685,9.6685,9.6685,9.6685,9.6906,9.7383,9.8741,9.9292,9.9879,10.1494,10.2485,10.3293,10.41,10.4504,10.4981,10.6213,10.5899,10.5715,10.6302,10.6376,10.6376,10.6376,10.6376,10.6376,10.6376,10.6596,10.7315,10.8615,10.9019,10.9716,11.1111,11.1221,11.1221,11.1221,11.0707,11.0597,11.1221,11.0707,11.0597,11.1221,11.1221,11.1221,11.1221,11.1221,11.1221,11.1221,11.0707,11.0414,11.0377,10.99,10.99,6.7847,7.022,0.0,6.7907,6.754,0.0,6.2279,0.0,0.0,0.0,0.0,0.0,0.0,0.0,0.0,0.0,0.0,0.0,0.0,0.0,0.0,0.0,0.0,0.0,0.0,0.0,6.3649,6.2842,6.2976,6.4077,0.0,0.0,7.2973,7.5175,7.8201,8.0036,8.0571,8.1672,8.2186,8.2186,8.2737,8.3381,8.4205,8.5013,8.582,8.6628,8.7435,8.8372,8.9436,8.995,9.0812,9.1803,9.1803,9.1803,9.195,9.3088,9.4226,9.529,9.6355,9.6685,9.6685,9.6685,9.6685,9.6685,9.6685,9.6685,9.7089,9.8998,9.9108,9.9181,10.1384,10.2081,10.2485,10.3293,10.3696,10.421,10.5275,10.5311,10.5311,10.5789,10.6192,10.6376,10.6376,10.6376,10.6376,10.6376,10.6376,10.6911,10.8175,10.8416,10.8982,11.0597,11.0781,11.0781,11.0781,11.0304,11.0193,11.0707,11.0597,11.0707,11.1221,11.1221,11.1676,11.291,11.1808,11.1808,11.291,11.1023,10.9995,10.9995,10.9202,10.8909]}]]